Date StartTime U_cm/s V_cm/s W_cm/s Ustd_cm/s Vstd_cm/s Wstd_cm/s Uvar_(cm/s)^2 Vvar_(cm/s)^2 Wvar_(cm/s)^2 KE_(m/s)^2 TurbulentKE_(m/s)^2 HorizWindSpeed_cm/s FrictionSpeec_cm/s DragCoef SpeedOfSound_m/s SonicTemperature_C Pressure_mb 
01/26/2015  00:00:00     -108.175      -29.995       -7.024       35.766       22.312       19.540     1279.233      497.820      381.824        0.740        0.108      112.256       20.195        0.032      334.500        4.514      868.300
01/26/2015  00:01:00      -94.824      -11.164       -3.516       27.842       18.403       11.402      775.177      338.676      129.995        0.519        0.062       95.479       13.975        0.021      334.483        4.485      868.299
01/26/2015  00:02:00     -105.088      -21.553       -7.440       14.848       12.754       11.932      220.453      162.677      142.384        0.604        0.026      107.276       11.385        0.011      334.648        4.759      868.302
01/26/2015  00:03:00     -106.975      -27.653       -5.605       11.505       15.343       10.624      132.367      235.405      112.859        0.636        0.024      110.491        5.040        0.002      334.759        4.943      868.308
01/26/2015  00:04:00     -106.230      -21.487       -9.923       13.113       11.178       11.334      171.938      124.954      128.462        0.614        0.021      108.382        6.119        0.003      334.728        4.892      868.313
01/26/2015  00:05:00     -104.900      -27.797      -10.086       12.941       12.350        9.334      167.480      152.524       87.129        0.614        0.020      108.521        5.969        0.003      334.671        4.796      868.318
01/26/2015  00:06:00      -80.645      -15.859        1.191       26.957       15.462       12.885      726.706      239.077      166.020        0.394        0.057       82.190       12.072        0.022      334.680        4.813      868.306
01/26/2015  00:07:00      -68.625       -0.666       -4.835       19.375       14.810       11.063      375.391      219.341      122.386        0.273        0.036       68.628        8.728        0.016      334.613        4.702      868.279
01/26/2015  00:08:00      -32.286       -4.083      -10.738       11.751       10.921        7.575      138.088      119.275       57.381        0.074        0.016       32.543        5.418        0.028      334.514        4.538      868.254
01/26/2015  00:09:00      -48.797       25.809       -9.979       22.248       22.123       12.492      494.954      489.424      156.047        0.214        0.057       55.202        8.477        0.024      334.850        5.095      868.246
01/26/2015  00:10:00      -43.980        9.745      -12.045       13.800       24.919       10.144      190.436      620.961      102.907        0.154        0.046       45.046        5.104        0.013      334.820        5.046      868.241
01/26/2015  00:11:00      -45.704        3.038      -12.299       16.976       16.277       11.808      288.177      264.939      139.429        0.147        0.035       45.805        6.592        0.021      334.665        4.789      868.243
01/26/2015  00:12:00      -24.696       -6.585       -1.517       17.777       25.396       17.593      316.034      644.962      309.504        0.096        0.064       25.559       14.416        0.318      334.509        4.528      868.249
01/26/2015  00:13:00      -30.605        8.015      -11.105       22.373       27.294       12.910      500.536      744.980      166.673        0.127        0.071       31.637        8.310        0.069      334.517        4.543      868.262
01/26/2015  00:14:00      -44.428       -9.704      -15.493       23.634       25.254       14.974      558.572      637.748      224.213        0.186        0.071       45.475        8.337        0.034      334.484        4.487      868.251
01/26/2015  00:15:00      -53.407        2.348       -9.694       21.809       28.256       16.369      475.611      798.423      267.959        0.225        0.077       53.459        8.705        0.027      334.624        4.719      868.232
01/26/2015  00:16:00      -56.123      -11.189       -7.972       38.060       24.314       17.497     1448.557      591.149      306.149        0.284        0.117       57.227        7.735        0.018      334.551        4.599      868.212
01/26/2015  00:17:00      -93.117      -29.777       -5.620       40.640       30.266       20.906     1651.607      916.006      437.069        0.630        0.150       97.762       16.151        0.027      334.434        4.405      868.213
01/26/2015  00:18:00      -70.995      -25.405       -9.393       53.980       32.598       25.432     2913.890     1062.640      646.797        0.520        0.231       75.404       27.661        0.135      334.332        4.237      868.224
01/26/2015  00:19:00      -92.250      -15.984       -9.241       35.177       26.359       25.305     1237.398      694.775      640.332        0.571        0.129       93.625       12.174        0.017      334.292        4.169      868.238
01/26/2015  00:20:00      -55.405      -17.065      -19.968       32.626       30.038       19.293     1064.457      902.284      372.216        0.305        0.117       57.974       21.317        0.135      334.204        4.022      868.251
01/26/2015  00:21:00      -80.764      -15.900      -17.066       15.777       20.087       13.142      248.923      403.499      172.708        0.395        0.041       82.314        9.147        0.012      334.181        3.984      868.246
01/26/2015  00:22:00      -71.224      -23.730      -12.332       20.645       15.930       11.725      426.216      253.756      137.469        0.330        0.041       75.073        6.947        0.009      334.232        4.070      868.215
01/26/2015  00:23:00      -55.870      -29.659       -6.511       14.639       14.545       12.745      214.298      211.550      162.442        0.232        0.029       63.254        7.376        0.014      334.231        4.067      868.162
01/26/2015  00:24:00      -34.453       -6.777       -6.463       11.289       14.624        9.127      127.431      213.868       83.297        0.085        0.021       35.113        8.208        0.055      334.387        4.327      868.102
01/26/2015  00:25:00       -5.002        7.092       -2.906       15.763        5.325       10.709      248.472       28.356      114.674        0.024        0.020        8.679       11.988        1.908      334.754        4.935      868.034
01/26/2015  00:26:00       -0.804       24.847        1.785       16.585       26.179       14.127      275.050      685.365      199.581        0.089        0.058       24.860       13.896        0.312      334.879        5.143      867.986
01/26/2015  00:27:00      -35.297       56.977       -7.867       22.191       28.187       17.467      492.424      794.483      305.113        0.307        0.080       67.024       13.316        0.039      334.853        5.100      867.969
01/26/2015  00:28:00      -44.654       89.773      -13.534       24.972       38.011       13.638      623.581     1444.813      185.994        0.625        0.113      100.266       13.106        0.017      335.041        5.412      867.949
01/26/2015  00:29:00      -38.044      -15.403       -9.046       13.078       11.477        7.480      171.030      131.728       55.953        0.106        0.018       41.044        5.386        0.017      334.334        4.240      867.942
01/26/2015  00:30:00      -40.210      -22.868        0.846       24.417       13.018       14.034      596.171      169.474      196.949        0.155        0.048       46.258        5.783        0.016      334.108        3.864      867.953
01/26/2015  00:31:00      -96.136      -20.933      -20.358       14.462       13.535        8.648      209.157      183.201       74.789        0.528        0.023       98.389        5.512        0.003      334.049        3.765      867.966
01/26/2015  00:32:00      -89.767      -17.567      -22.399       14.918       14.837        8.549      222.544      220.132       73.083        0.469        0.026       91.470        9.876        0.012      334.127        3.896      867.978
01/26/2015  00:33:00      -93.056      -18.073      -20.755       11.722        8.502        8.143      137.400       72.277       66.316        0.485        0.014       94.794        5.841        0.004      334.150        3.931      867.975
01/26/2015  00:34:00     -103.918      -43.048      -12.226       16.852       18.573       12.991      283.980      344.946      168.778        0.680        0.040      112.481       10.720        0.009      334.076        3.810      867.962
01/26/2015  00:35:00     -121.808      -30.377      -19.567       12.812       19.817       13.719      164.149      392.717      188.210        0.844        0.037      125.539        8.967        0.005      334.101        3.852      867.943
01/26/2015  00:36:00     -130.774      -31.018      -17.858       12.667       10.624        9.350      160.442      112.880       87.422        0.937        0.018      134.402        5.762        0.002      334.211        4.034      867.935
01/26/2015  00:37:00     -127.818      -19.376      -22.297        7.918       11.261       11.395       62.693      126.814      129.846        0.876        0.016      129.278        5.080        0.002      334.197        4.012      867.956
01/26/2015  00:38:00     -142.126      -21.696      -25.499       15.215        9.613        8.096      231.490       92.410       65.550        1.085        0.019      143.772        3.982        0.001      334.253        4.104      867.989
01/26/2015  00:39:00     -137.021      -28.897      -18.113       22.806       18.095       17.313      520.096      327.437      299.735        1.054        0.057      140.035       16.062        0.013      334.188        3.995      868.021
01/26/2015  00:40:00     -136.507      -56.133      -23.164       15.685       16.694       12.957      246.018      278.678      167.877        1.151        0.035      147.598        7.460        0.003      333.984        3.657      868.039
01/26/2015  00:41:00     -124.379      -52.661      -17.740       16.582       15.836       13.376      274.963      250.780      178.908        0.963        0.035      135.068        9.485        0.005      333.989        3.667      868.044
01/26/2015  00:42:00      -97.785      -51.598      -21.330       32.659       17.505       17.267     1066.605      306.416      298.166        0.717        0.084      110.563       16.359        0.022      334.000        3.685      868.030
01/26/2015  00:43:00      -75.616      -44.889       -9.616       31.667       24.836       17.693     1002.803      616.826      313.027        0.488        0.097       87.936       13.255        0.023      333.976        3.644      868.002
01/26/2015  00:44:00      -95.718        4.405      -10.619       34.405       45.723       23.408     1183.720     2090.613      547.928        0.656        0.191       95.819       19.358        0.041      334.057        3.779      867.982
01/26/2015  00:45:00      -85.280       11.945      -10.467       42.146       38.150       23.160     1776.295     1455.456      536.373        0.565        0.188       86.112       17.957        0.043      334.116        3.876      867.976
01/26/2015  00:46:00      -97.866       -8.031       -7.836       51.008       39.408       25.260     2601.826     1552.992      638.055        0.725        0.240       98.195       21.918        0.050      334.006        3.694      867.973
01/26/2015  00:47:00      -77.438      -15.112      -15.890       15.824       19.937       16.414      250.413      397.491      269.410        0.370        0.046       78.899        8.699        0.012      333.995        3.676      867.964
01/26/2015  00:48:00      -65.819       -4.808      -13.564       11.717       11.207        7.439      137.287      125.596       55.340        0.243        0.016       65.994        3.773        0.003      334.425        4.389      867.959
01/26/2015  00:49:00      -73.120      -24.702      -16.270       21.467       18.755       10.583      460.843      351.739      111.995        0.357        0.046       77.180        4.930        0.004      334.100        3.851      867.943
01/26/2015  00:50:00      -90.646      -27.792      -11.489       17.584       18.514       11.050      309.189      342.762      122.098        0.495        0.039       94.811        7.355        0.006      334.099        3.849      867.928
01/26/2015  00:51:00      -97.399      -25.612      -12.446       16.553       25.440       14.607      273.986      647.169      213.351        0.572        0.057      100.710       13.930        0.019      333.993        3.673      867.912
01/26/2015  00:52:00      -92.126      -15.793      -15.144       18.429       13.372       10.402      339.629      178.797      108.208        0.480        0.031       93.470        9.157        0.010      333.983        3.656      867.889
01/26/2015  00:53:00      -92.566      -24.153      -15.681       15.261       17.278       10.595      232.909      298.516      112.248        0.502        0.032       95.666        3.782        0.002      333.976        3.645      867.873
01/26/2015  00:54:00      -60.220      -16.428      -10.633       10.146       11.396       10.204      102.946      129.860      104.129        0.217        0.017       62.421        6.505        0.011      334.094        3.841      867.850
01/26/2015  00:55:00      -47.452       -6.555      -12.231        7.268       11.293        6.948       52.823      127.522       48.272        0.134        0.011       47.903        4.430        0.009      334.124        3.889      867.823
01/26/2015  00:56:00      -17.533      -22.027       -2.797       15.537       14.121        8.512      241.401      199.404       72.461        0.066        0.026       28.153        9.712        0.119      334.379        4.312      867.809
01/26/2015  00:57:00       -8.425      -11.486        1.913        8.204        8.185        4.975       67.311       66.987       24.752        0.018        0.008       14.244        5.011        0.124      334.290        4.165      867.797
01/26/2015  00:58:00      -26.029      -22.219       -4.805       19.162       10.605        9.190      367.181      112.470       84.464        0.088        0.028       34.223        8.840        0.067      334.265        4.125      867.785
01/26/2015  00:59:00      -77.337      -26.292      -15.630        9.454       10.239       10.324       89.373      104.838      106.584        0.361        0.015       81.684        2.297        0.001      333.940        3.584      867.766
01/26/2015  01:00:00      -82.049      -31.213      -15.425       17.141       14.305        9.646      293.797      204.620       93.050        0.427        0.030       87.785        5.510        0.004      333.903        3.526      867.753
01/26/2015  01:01:00      -99.225       -7.708      -13.397       13.324       10.002       10.741      177.535      100.043      115.360        0.524        0.020       99.524        1.900        0.000      333.919        3.549      867.737
01/26/2015  01:02:00      -76.015      -11.293       -9.689       13.871       12.094       10.705      192.415      146.254      114.598        0.323        0.023       76.850        7.956        0.011      333.929        3.565      867.697
01/26/2015  01:03:00      -46.699      -10.391       -6.101       15.067        9.884        6.135      227.002       97.693       37.633        0.134        0.018       47.841        4.595        0.009      334.162        3.953      867.670
01/26/2015  01:04:00      -28.416        2.294       -3.166        8.707        7.109        4.866       75.819       50.532       23.682        0.049        0.008       28.509        2.635        0.009      334.412        4.367      867.655
01/26/2015  01:05:00      -10.032       -1.816        0.068       14.983       11.967        6.420      224.488      143.211       41.210        0.026        0.020       10.195        7.180        0.496      334.455        4.439      867.663
01/26/2015  01:06:00        0.019        1.267        4.683       14.293       17.080        7.586      204.296      291.733       57.541        0.029        0.028        1.267        8.253       42.407      334.308        4.195      867.655
01/26/2015  01:07:00       -1.962       42.995       -2.829       11.651       31.950        8.675      135.743     1020.784       75.257        0.155        0.062       43.039        9.112        0.045      334.703        4.850      867.620
01/26/2015  01:08:00       15.419       86.253       -5.429       11.952        9.752        6.835      142.850       95.109       46.715        0.400        0.014       87.620        2.888        0.001      334.983        5.317      867.585
01/26/2015  01:09:00       28.172       85.256      -12.318       10.400       15.392        7.873      108.156      236.902       61.983        0.431        0.020       89.790        7.134        0.006      334.720        4.879      867.553
01/26/2015  01:10:00       -5.570      105.375      -11.398        9.343       17.239        6.383       87.287      297.200       40.737        0.584        0.021      105.522        4.453        0.002      334.810        5.028      867.538
01/26/2015  01:11:00       -8.200      118.650      -13.841        7.054       10.421        5.618       49.760      108.595       31.560        0.726        0.009      118.933        3.124        0.001      334.883        5.148      867.531
01/26/2015  01:12:00      -21.722      128.116      -14.856       11.665       13.612        7.852      136.083      185.283       61.648        0.874        0.019      129.945        3.407        0.001      334.962        5.280      867.509
01/26/2015  01:13:00        1.030      135.795      -17.726       12.564       14.883        9.698      157.859      221.513       94.042        0.961        0.024      135.799        5.686        0.002      335.130        5.560      867.483
01/26/2015  01:14:00       -6.424      130.577      -16.189       15.631       15.091        9.118      244.338      227.741       83.135        0.895        0.028      130.735        4.752        0.001      335.098        5.506      867.462
01/26/2015  01:15:00        2.102      108.996      -17.648       12.600       18.338        9.099      158.748      336.296       82.796        0.639        0.029      109.016        8.108        0.006      335.143        5.581      867.449
01/26/2015  01:16:00        1.705       88.648      -10.861       17.833       25.596       12.678      318.021      655.173      160.744        0.456        0.057       88.664       13.472        0.023      335.019        5.375      867.458
01/26/2015  01:17:00      -49.948        2.335       -7.261       35.334       51.830       13.368     1248.490     2686.365      178.717        0.333        0.206       50.003       15.954        0.102      334.333        4.237      867.488
01/26/2015  01:18:00      -92.008      -29.400      -21.096       10.888       11.588        8.511      118.553      134.288       72.439        0.505        0.016       96.591        6.524        0.005      333.837        3.414      867.507
01/26/2015  01:19:00      -78.806      -13.820      -14.674       15.999        8.063        6.590      255.983       65.007       43.432        0.349        0.018       80.009        4.287        0.003      334.033        3.739      867.516
01/26/2015  01:20:00      -74.452      -25.323      -13.527        7.352        8.415        6.973       54.051       70.821       48.623        0.327        0.009       78.641        5.086        0.004      334.016        3.712      867.497
01/26/2015  01:21:00      -78.359      -24.348      -12.309        6.330        6.124        4.756       40.065       37.504       22.617        0.349        0.005       82.055        3.346        0.002      334.122        3.885      867.495
01/26/2015  01:22:00      -70.969      -37.398       -9.142       13.274        8.168        7.202      176.192       66.712       51.865        0.341        0.015       80.220        5.483        0.005      334.116        3.877      867.499
01/26/2015  01:23:00      -99.948      -27.886      -13.659        8.556        9.662        8.034       73.202       93.361       64.540        0.559        0.012      103.765        2.283        0.000      334.045        3.758      867.516
01/26/2015  01:24:00      -84.060      -47.295      -13.720       11.835       12.132        8.419      140.079      147.195       70.887        0.492        0.018       96.452        5.169        0.003      333.993        3.674      867.533
01/26/2015  01:25:00      -86.883      -51.573      -12.375       22.583       13.081       11.215      510.006      171.117      125.776        0.558        0.040      101.037        8.129        0.006      333.905        3.526      867.556
01/26/2015  01:26:00      -98.602      -50.399       -6.950       38.864       31.824       19.756     1510.410     1012.780      390.280        0.761        0.146      110.735       12.757        0.013      333.882        3.487      867.568
01/26/2015  01:27:00      -37.177      -22.747        5.777       32.102       16.707       15.862     1030.542      279.138      251.604        0.175        0.078       43.584       14.115        0.105      333.875        3.478      867.571
01/26/2015  01:28:00      -35.606      -19.932       12.202       45.447       26.441       29.045     2065.392      699.141      843.627        0.271        0.180       40.806       19.963        0.239      333.932        3.571      867.573
01/26/2015  01:29:00      -94.075      -77.671        1.276       50.921       32.767       23.045     2592.925     1073.699      531.072        0.954        0.210      121.995       18.577        0.023      333.997        3.679      867.555
01/26/2015  01:30:00     -154.998     -110.771       -8.082       34.127       32.289       22.446     1164.627     1042.553      503.844        1.954        0.136      190.512       14.587        0.006      333.962        3.619      867.535
01/26/2015  01:31:00     -119.966      -98.641       -7.043       51.353       43.605       39.628     2637.176     1901.413     1570.352        1.514        0.305      155.313       26.554        0.029      333.832        3.404      867.530
01/26/2015  01:32:00     -129.129      -82.939       -9.935       70.043       47.287       39.793     4905.954     2236.098     1583.488        1.619        0.436      153.470       38.698        0.064      333.748        3.265      867.531
01/26/2015  01:33:00     -142.518     -113.746      -11.715       46.047       38.803       27.654     2120.302     1505.686      764.770        1.889        0.220      182.344       17.377        0.009      333.666        3.129      867.538
01/26/2015  01:34:00     -117.900      -87.141       -2.168       52.480       36.392       25.501     2754.162     1324.393      650.321        1.311        0.236      146.608       27.516        0.035      333.644        3.093      867.555
01/26/2015  01:35:00      -94.941      -64.300       14.505       51.684       47.712       34.509     2671.193     2276.413     1190.891        0.975        0.307      114.666       31.780        0.077      333.675        3.145      867.573
01/26/2015  01:36:00     -144.687      -86.962        0.175       56.591       42.866       29.105     3202.547     1837.503      847.115        1.719        0.294      168.810       27.297        0.026      333.652        3.106      867.598
01/26/2015  01:37:00     -138.512      -84.043       -3.647       46.306       39.574       24.770     2144.263     1566.065      613.561        1.529        0.216      162.015       21.214        0.017      333.685        3.162      867.619
01/26/2015  01:38:00     -114.592      -64.739        3.832       67.818       42.909       35.531     4599.223     1841.218     1262.433        1.252        0.385      131.615       38.426        0.085      333.725        3.226      867.635
01/26/2015  01:39:00     -155.118      -91.022        1.308       42.750       41.559       25.863     1827.526     1727.118      668.910        1.829        0.211      179.851       22.125        0.015      333.745        3.259      867.643
01/26/2015  01:40:00     -137.408     -107.732        3.468       37.436       38.924       29.633     1401.436     1515.114      878.124        1.715        0.190      174.606       24.690        0.020      333.795        3.344      867.649
01/26/2015  01:41:00     -144.629      -58.576      -13.549       23.228       33.695       19.287      539.535     1135.387      371.987        1.329        0.102      156.040       14.289        0.008      333.732        3.240      867.624
01/26/2015  01:42:00     -115.948      -57.995       -7.301       41.111       20.966       20.882     1690.106      439.556      436.050        0.971        0.128      129.643       21.965        0.029      333.754        3.277      867.584
01/26/2015  01:43:00      -91.494      -33.949       -6.355       15.459       21.301       11.120      238.974      453.713      123.646        0.519        0.041       97.590        9.518        0.010      333.739        3.251      867.544
01/26/2015  01:44:00     -113.882      -12.959      -14.960       13.353       11.426       10.330      178.300      130.546      106.713        0.689        0.021      114.617        8.960        0.006      333.705        3.196      867.515
01/26/2015  01:45:00     -124.958      -17.999      -19.730        8.627       12.418        7.102       74.421      154.217       50.445        0.830        0.014      126.247        2.878        0.001      333.845        3.426      867.490
01/26/2015  01:46:00     -123.163      -31.521      -17.497        9.699       11.457       10.962       94.076      131.272      120.168        0.841        0.017      127.133        6.251        0.002      333.882        3.489      867.462
01/26/2015  01:47:00     -125.525      -38.176      -12.775       11.384       11.625        7.213      129.604      135.143       52.027        0.885        0.016      131.202        2.422        0.000      333.932        3.572      867.438
01/26/2015  01:48:00     -123.280      -46.233      -16.570       20.722       20.173       15.023      429.398      406.953      225.702        0.934        0.053      131.664       11.721        0.008      333.716        3.213      867.422
01/26/2015  01:49:00     -140.211      -35.677      -11.486       31.079       22.730       15.756      965.897      516.662      248.238        1.140        0.087      144.679       17.900        0.015      333.556        2.946      867.410
01/26/2015  01:50:00     -139.837      -20.765      -17.801       25.074       21.467       14.947      628.681      460.836      223.403        1.081        0.066      141.370       15.748        0.012      333.591        3.006      867.392
01/26/2015  01:51:00     -114.340        2.104      -22.451       19.289       11.904       10.405      372.049      141.707      108.268        0.710        0.031      114.360        7.229        0.004      333.638        3.083      867.381
01/26/2015  01:52:00      -72.067      -24.302      -15.073       15.651       18.454       12.096      244.963      340.535      146.315        0.337        0.037       76.054        9.566        0.016      333.637        3.083      867.386
01/26/2015  01:53:00      -83.230      -19.662      -12.059       16.589       24.926       16.151      275.196      621.294      260.841        0.431        0.058       85.521       12.201        0.020      333.910        3.535      867.394
01/26/2015  01:54:00      -66.360      -11.932       -3.657       24.063       28.478       14.617      579.008      810.989      213.667        0.308        0.080       67.424       13.802        0.042      334.013        3.707      867.395
01/26/2015  01:55:00      -34.375       -7.679        4.069       20.282       23.032       14.489      411.379      530.490      209.930        0.120        0.058       35.222       10.475        0.088      333.962        3.621      867.391
01/26/2015  01:56:00      -16.734      -25.610        1.757       12.044        9.971       13.259      145.070       99.419      175.811        0.068        0.021       30.592        6.199        0.041      333.933        3.572      867.385
01/26/2015  01:57:00      -35.763      -31.968       -7.073       14.087       12.507        8.840      198.446      156.413       78.150        0.139        0.022       47.969        4.137        0.007      333.819        3.382      867.369
01/26/2015  01:58:00      -31.620      -26.132       -6.922       11.012       12.169        7.606      121.267      148.080       57.857        0.103        0.016       41.021        4.213        0.011      333.851        3.438      867.367
01/26/2015  01:59:00      -41.136      -40.251       -7.941       19.897       12.753       11.687      395.892      162.649      136.578        0.204        0.035       57.552       10.520        0.033      333.653        3.109      867.373
01/26/2015  02:00:00      -56.161      -34.389       -6.294       10.550        8.910        9.394      111.297       79.390       88.247        0.233        0.014       65.853        4.500        0.005      333.595        3.012      867.375
01/26/2015  02:01:00      -64.945      -34.340      -17.682       16.534       13.363        8.428      273.377      178.563       71.038        0.312        0.026       73.465        6.949        0.009      333.586        2.997      867.369
01/26/2015  02:02:00      -68.941      -34.980      -12.341       16.284        9.438       10.712      265.168       89.076      114.750        0.330        0.023       77.308        7.483        0.009      333.552        2.940      867.368
01/26/2015  02:03:00      -85.098      -36.552       -9.699       12.451       11.333        9.963      155.029      128.445       99.265        0.453        0.019       92.616        5.585        0.004      333.558        2.951      867.367
01/26/2015  02:04:00      -63.477      -40.808       -5.428       27.963       16.514       12.397      781.905      272.702      153.681        0.347        0.060       75.462       12.123        0.026      333.559        2.953      867.363
01/26/2015  02:05:00      -96.841      -62.936      -10.748       18.302       17.135       13.796      334.980      293.618      190.316        0.714        0.041      115.495        7.694        0.004      333.475        2.812      867.373
01/26/2015  02:06:00     -136.604      -50.706       -9.787       25.452       18.781       12.065      647.785      352.708      145.569        1.124        0.057      145.711        8.008        0.003      333.506        2.864      867.390
01/26/2015  02:07:00     -106.093      -57.374       -5.913       60.790       30.359       15.928     3695.455      921.657      253.689        0.973        0.244      120.613       20.401        0.029      333.452        2.774      867.404
01/26/2015  02:08:00     -119.780      -83.670       -1.030       45.552       40.575       28.455     2075.000     1646.347      809.663        1.294        0.227      146.109       18.044        0.015      333.511        2.872      867.414
01/26/2015  02:09:00     -110.908     -121.319       -5.084       37.255       43.804       27.859     1387.902     1918.823      776.111        1.556        0.204      164.374       21.848        0.018      333.427        2.734      867.418
01/26/2015  02:10:00      -97.947      -95.817       -3.245       50.184       47.651       29.129     2518.439     2270.646      848.515        1.221        0.282      137.020       27.986        0.042      333.376        2.649      867.420
01/26/2015  02:11:00     -118.681      -52.535        0.247       43.316       38.792       25.738     1876.260     1504.787      662.438        1.044        0.202      129.788       23.314        0.032      333.396        2.682      867.414
01/26/2015  02:12:00     -114.706      -68.177       -1.817       45.051       35.665       23.448     2029.605     1272.007      549.787        1.083        0.193      133.438       22.156        0.028      333.409        2.705      867.395
01/26/2015  02:13:00      -70.981      -55.596        4.305       52.198       34.497       25.339     2724.671     1190.069      642.065        0.635        0.228       90.162       20.900        0.054      333.386        2.665      867.372
01/26/2015  02:14:00     -112.409      -83.240      -11.658       33.489       23.956       17.703     1121.486      573.890      313.386        1.085        0.100      139.874       10.214        0.005      333.399        2.689      867.344
01/26/2015  02:15:00      -82.815      -42.640       -5.376       28.966       22.763       15.397      839.027      518.151      237.083        0.515        0.080       93.148       16.336        0.031      333.274        2.480      867.344
01/26/2015  02:16:00     -109.263      -42.427       -7.505       12.643       13.049        9.328      159.843      170.275       87.016        0.711        0.021      117.211        4.005        0.001      333.260        2.458      867.339
01/26/2015  02:17:00     -139.799      -50.056      -12.795        9.983       12.118        8.730       99.657      146.840       76.220        1.127        0.016      148.490        3.808        0.001      333.299        2.522      867.323
01/26/2015  02:18:00     -124.870      -59.826       -6.434       16.382       13.619        9.666      268.367      185.480       93.427        0.988        0.027      138.462        5.103        0.001      333.274        2.480      867.307
01/26/2015  02:19:00     -132.600      -62.419       -1.147       21.935       17.709       14.095      481.141      313.601      198.670        1.124        0.050      146.557       12.930        0.008      333.320        2.558      867.314
01/26/2015  02:20:00     -120.310      -65.456       -3.636       24.986       19.577       14.118      624.276      383.266      199.330        0.999        0.060      136.964       12.084        0.008      333.340        2.590      867.318
01/26/2015  02:21:00     -115.115      -58.609       -6.605       18.754       21.548       15.698      351.706      464.297      246.437        0.890        0.053      129.176       11.366        0.008      333.281        2.494      867.314
01/26/2015  02:22:00      -91.059      -61.110       -3.016       28.801       26.173       17.195      829.495      685.000      295.664        0.692        0.091      109.664       11.858        0.012      333.296        2.518      867.327
01/26/2015  02:23:00     -114.445      -58.546       -1.550       33.673       21.554       14.767     1133.844      464.558      218.064        0.917        0.091      128.551       10.259        0.006      333.372        2.643      867.346
01/26/2015  02:24:00     -151.105      -54.597        3.832       34.004       29.707       18.536     1156.239      882.492      343.567        1.410        0.119      160.665       17.533        0.012      333.584        2.995      867.341
01/26/2015  02:25:00     -139.045      -44.342        2.189       26.250       20.267       14.236      689.072      410.737      202.656        1.130        0.065      145.944       12.694        0.008      333.471        2.806      867.345
01/26/2015  02:26:00     -125.674      -29.756       -5.101       16.665       17.931       12.350      277.738      321.506      152.527        0.873        0.038      129.149        8.771        0.005      333.405        2.697      867.358
01/26/2015  02:27:00     -111.897       -5.358       -6.547       29.751       17.782       14.957      885.109      316.204      223.724        0.701        0.071      112.025       15.973        0.020      333.560        2.954      867.370
01/26/2015  02:28:00     -136.746       17.683      -12.493       19.398       15.867       11.694      376.274      251.776      136.752        0.997        0.038      137.885        6.745        0.002      333.870        3.468      867.384
01/26/2015  02:29:00      -77.277       13.813      -10.409       16.592       19.869       10.640      275.283      394.762      113.208        0.353        0.039       78.502        6.326        0.006      333.761        3.288      867.392
01/26/2015  02:30:00      -88.939       -0.035      -14.276       21.628       17.439       11.663      467.764      304.129      136.018        0.451        0.045       88.939        9.758        0.012      333.831        3.404      867.397
01/26/2015  02:31:00      -68.531      -10.398       -6.952       22.643       19.501       13.638      512.713      380.305      186.001        0.297        0.054       69.316       13.311        0.037      333.721        3.221      867.392
01/26/2015  02:32:00      -42.822      -30.059       -4.980       32.360       21.304       15.182     1047.178      453.860      230.479        0.225        0.087       52.319        8.532        0.027      333.625        3.063      867.378
01/26/2015  02:33:00      -35.331      -19.636       -9.764       19.388       18.197       17.094      375.895      331.138      292.216        0.136        0.050       40.421       10.082        0.062      333.411        2.707      867.377
01/26/2015  02:34:00      -72.884      -54.517       -2.025       51.595       34.164       21.046     2662.027     1167.152      442.941        0.628        0.214       91.017       21.273        0.055      333.264        2.464      867.382
01/26/2015  02:35:00      -75.967      -63.239       -7.668       42.619       37.766       26.259     1816.356     1426.294      689.539        0.688        0.197       98.844       16.704        0.029      333.287        2.502      867.376
01/26/2015  02:36:00      -47.972      -31.280        2.456       49.687       29.594       30.039     2468.784      875.786      902.331        0.377        0.212       57.269       30.974        0.293      333.199        2.356      867.358
01/26/2015  02:37:00     -113.044      -54.524      -18.265       48.331       30.832       21.108     2335.857      950.586      445.533        0.991        0.187      125.506       10.269        0.007      333.184        2.334      867.344
01/26/2015  02:38:00     -145.699      -19.969       -5.165       31.867       23.778       17.747     1015.526      565.398      314.972        1.177        0.095      147.061       16.704        0.013      333.121        2.230      867.323
01/26/2015  02:39:00     -123.107      -26.296      -11.176       22.228       21.093       16.229      494.072      444.898      263.371        0.859        0.060      125.884       10.872        0.007      333.157        2.288      867.307
01/26/2015  02:40:00     -102.200      -27.018       -7.822       22.144       17.333       14.902      490.357      300.428      222.082        0.612        0.051      105.711       10.659        0.010      333.152        2.279      867.290
01/26/2015  02:41:00      -41.231      -30.795       -7.417       28.207       20.451       16.197      795.628      418.260      262.349        0.209        0.074       51.462        7.358        0.020      333.231        2.410      867.277
01/26/2015  02:42:00      -35.216      -18.902       -5.543       20.659       18.819       15.910      426.794      354.145      253.123        0.133        0.052       39.969        9.285        0.054      333.477        2.819      867.279
01/26/2015  02:43:00       -9.359        7.152        6.746       13.939        8.686        7.513      194.292       75.448       56.450        0.026        0.016       11.779        4.415        0.140      333.729        3.235      867.283
01/26/2015  02:44:00        6.218       12.010       20.899       14.359       16.411       12.054      206.187      269.305      145.289        0.062        0.031       13.524       11.308        0.699      333.690        3.171      867.288
01/26/2015  02:45:00        3.929       16.218       25.647       11.267       14.277       13.839      126.945      203.833      191.527        0.073        0.026       16.687       10.636        0.406      333.482        2.826      867.295
01/26/2015  02:46:00      -20.316      -12.742       -1.209       23.394        8.838        8.177      547.257       78.114       66.871        0.063        0.035       23.982        7.941        0.110      333.558        2.953      867.296
01/26/2015  02:47:00      -51.941      -32.963       -6.161       26.416       15.009       10.327      697.787      225.267      106.640        0.243        0.051       61.518        6.027        0.010      333.242        2.428      867.289
01/26/2015  02:48:00      -49.019      -35.559       -1.764       35.416       20.047       15.156     1254.266      401.880      229.693        0.278        0.094       60.558       13.853        0.052      333.163        2.298      867.281
01/26/2015  02:49:00     -118.743      -32.047      -14.469        9.668       12.745        7.169       93.467      162.440       51.391        0.782        0.015      122.991        5.918        0.002      333.177        2.321      867.266
01/26/2015  02:50:00     -108.122      -23.367      -14.129       18.977       12.348       11.116      360.139      152.483      123.572        0.654        0.032      110.618        8.488        0.006      333.160        2.294      867.259
01/26/2015  02:51:00     -111.511      -34.402      -12.638       13.991       12.259       13.165      195.760      150.287      173.329        0.715        0.026      116.697        7.056        0.004      333.246        2.436      867.267
01/26/2015  02:52:00      -97.803      -23.206      -13.693       10.468       11.514       10.884      109.588      132.568      118.454        0.533        0.018      100.519        5.899        0.003      333.257        2.452      867.271
01/26/2015  02:53:00      -95.622      -31.470      -10.465       14.522       13.162       11.053      210.901      173.237      122.178        0.537        0.025      100.667        8.475        0.007      333.212        2.379      867.267
01/26/2015  02:54:00     -101.190      -32.197       -9.738       21.142       13.975        9.997      446.983      195.302       99.948        0.606        0.037      106.189       10.783        0.010      333.258        2.454      867.265
01/26/2015  02:55:00     -106.062      -34.234      -12.335       10.046        9.560        8.159      100.930       91.401       66.571        0.642        0.013      111.450        4.446        0.002      333.266        2.468      867.259
01/26/2015  02:56:00     -117.263      -38.853       -0.144       21.063       16.895       11.433      443.648      285.435      130.703        0.806        0.043      123.532        8.772        0.005      333.239        2.423      867.249
01/26/2015  02:57:00     -100.369      -58.811       -6.371       31.555       21.602       17.507      995.730      466.658      306.511        0.767        0.088      116.330       11.686        0.010      333.143        2.264      867.220
01/26/2015  02:58:00     -103.364      -37.933       -9.517       15.657       17.443       12.442      245.132      304.254      154.810        0.646        0.035      110.105       10.467        0.009      333.243        2.429      867.192
01/26/2015  02:59:00      -85.456       -4.739      -15.518       27.273       18.666       16.156      743.827      348.437      261.001        0.446        0.068       85.588       10.944        0.016      333.286        2.499      867.159
01/26/2015  03:00:00      -50.670       -8.920       -9.102       15.215       20.313       15.443      231.486      412.628      238.485        0.181        0.044       51.449       11.796        0.053      333.271        2.476      867.137
01/26/2015  03:01:00      -47.962       15.892       -7.884       13.189       16.438       10.111      173.956      270.199      102.229        0.158        0.027       50.527        2.762        0.003      333.547        2.933      867.134
01/26/2015  03:02:00      -27.766      -28.646       -8.102       18.162       12.475        9.361      329.866      155.628       87.623        0.112        0.029       39.894        7.948        0.040      333.321        2.560      867.146
01/26/2015  03:03:00      -29.932      -26.810        0.995       34.278       24.948       15.525     1174.953      622.396      241.013        0.183        0.102       40.183       12.459        0.096      333.191        2.345      867.160
01/26/2015  03:04:00      -88.962      -47.096       -6.857       16.617       15.002       11.955      276.123      225.070      142.930        0.541        0.032      100.659        7.978        0.006      333.094        2.183      867.154
01/26/2015  03:05:00     -106.072      -26.899      -14.978       12.541       12.866        9.236      157.282      165.537       85.311        0.630        0.020      109.430        7.137        0.004      333.049        2.108      867.151
01/26/2015  03:06:00      -88.124      -19.217      -11.670       18.559        9.646        8.400      344.424       93.045       70.556        0.439        0.025       90.195        6.511        0.005      333.102        2.197      867.124
01/26/2015  03:07:00      -59.308      -24.376       -3.880        9.692        9.951        6.564       93.936       99.027       43.085        0.218        0.012       64.122        4.993        0.006      333.196        2.351      867.102
01/26/2015  03:08:00      -49.469      -19.129       -4.650       12.453       10.466        7.636      155.068      109.541       58.304        0.158        0.016       53.039        5.240        0.010      333.223        2.394      867.110
01/26/2015  03:09:00      -75.929      -45.268       -4.261       19.051       14.907       12.362      362.923      222.216      152.824        0.429        0.037       88.399        4.083        0.002      333.266        2.466      867.131
01/26/2015  03:10:00      -85.022      -59.710        3.432       34.886       24.595       20.893     1217.055      604.916      436.531        0.653        0.113      103.894       20.157        0.038      333.146        2.269      867.144
01/26/2015  03:11:00     -100.844      -63.596      -14.751       44.491       27.333       21.732     1979.453      747.101      472.280        0.881        0.160      119.222       22.920        0.037      333.193        2.348      867.155
01/26/2015  03:12:00     -131.118      -59.528      -10.018       27.004       21.285       19.186      729.239      453.072      368.095        1.119        0.078      143.998       10.299        0.005      333.220        2.393      867.172
01/26/2015  03:13:00     -142.441      -67.183       -4.660       32.031       22.203       16.676     1025.981      492.971      278.094        1.331        0.090      157.490       17.986        0.013      333.140        2.260      867.172
01/26/2015  03:14:00      -85.216      -48.748       -7.295       30.022       30.936       18.025      901.341      957.026      324.907        0.594        0.109       98.174       16.086        0.027      333.031        2.080      867.154
01/26/2015  03:15:00     -113.692      -32.673      -16.640       14.802       16.410       12.253      219.111      269.280      150.140        0.745        0.032      118.293        7.393        0.004      333.097        2.189      867.127
01/26/2015  03:16:00     -119.377      -37.022       -5.545       19.628       23.624       14.800      385.254      558.113      219.038        0.841        0.058      124.986       13.276        0.011      333.149        2.274      867.089
01/26/2015  03:17:00     -130.927      -35.798       -7.311       13.645       14.074       11.215      186.181      198.080      125.785        0.949        0.026      135.732        7.453        0.003      333.090        2.178      867.079
01/26/2015  03:18:00     -121.999      -36.737      -12.629       23.576       19.229       15.108      555.826      369.771      228.256        0.877        0.058      127.410       12.401        0.009      333.047        2.106      867.068
01/26/2015  03:19:00     -110.315      -40.585       -7.573       25.938       22.477       15.993      672.797      505.202      255.788        0.765        0.072      117.544       10.336        0.008      333.106        2.204      867.046
01/26/2015  03:20:00     -136.827      -58.480       -7.521       29.105       26.464       18.595      847.073      700.365      345.791        1.205        0.095      148.800       17.800        0.014      333.075        2.153      867.039
01/26/2015  03:21:00     -127.261      -69.899        4.346       41.760       27.351       21.006     1743.908      748.082      441.268        1.202        0.147      145.193       13.246        0.008      333.145        2.267      867.048
01/26/2015  03:22:00     -103.668      -54.235       -4.142       41.654       28.658       22.569     1735.022      821.288      509.356        0.839        0.153      116.998       22.557        0.037      333.182        2.329      867.058
01/26/2015  03:23:00     -109.829      -68.715       -5.611       17.741       17.372       14.567      314.744      301.780      212.191        0.882        0.041      129.554        9.016        0.005      333.177        2.320      867.063
01/26/2015  03:24:00     -100.901      -51.486        0.454       32.211       22.608       16.766     1037.530      511.116      281.115        0.733        0.091      113.278       18.084        0.025      333.179        2.324      867.049
01/26/2015  03:25:00      -95.354      -40.678       -1.155       22.661       24.142       13.643      513.534      582.855      186.136        0.602        0.064      103.669        9.792        0.009      333.212        2.378      867.029
01/26/2015  03:26:00      -81.551      -18.401       -3.101       19.730       17.427       13.349      389.289      303.702      178.193        0.393        0.044       83.602       10.773        0.017      333.248        2.437      867.007
01/26/2015  03:27:00     -101.836      -36.738      -10.910       16.356       11.335        6.912      267.518      128.485       47.774        0.614        0.022      108.260        1.583        0.000      333.324        2.564      866.998
01/26/2015  03:28:00     -113.481      -33.294      -14.946       12.546        9.404        8.237      157.411       88.436       67.842        0.726        0.016      118.265        6.151        0.003      333.317        2.552      867.006
01/26/2015  03:29:00     -108.333      -33.802      -14.042       11.897       11.182        8.988      141.543      125.043       80.784        0.671        0.017      113.484        2.746        0.001      333.263        2.462      867.018
01/26/2015  03:30:00     -109.190      -35.735      -11.096       12.826       11.475       10.396      164.510      131.677      108.072        0.686        0.020      114.889        6.479        0.003      333.275        2.484      867.027
01/26/2015  03:31:00     -101.993      -34.791      -10.051       11.775       11.237        8.965      138.647      126.268       80.374        0.603        0.017      107.764        5.886        0.003      333.212        2.379      867.033
01/26/2015  03:32:00      -80.454      -32.643      -16.801       13.075        8.342        6.026      170.954       69.593       36.307        0.405        0.014       86.824        3.929        0.002      333.200        2.358      867.051
01/26/2015  03:33:00      -54.335      -27.319       -7.417        8.811        8.321       10.491       77.636       69.231      110.056        0.201        0.013       60.817        6.741        0.012      333.269        2.470      867.049
01/26/2015  03:34:00      -58.945      -35.949       -9.093       19.419        9.056        8.145      377.111       82.019       66.342        0.269        0.026       69.042        5.053        0.005      333.261        2.458      867.054
01/26/2015  03:35:00     -106.283      -59.019      -11.824       19.772       13.868       14.416      390.936      192.322      207.814        0.785        0.040      121.570        8.551        0.005      333.147        2.271      867.041
01/26/2015  03:36:00     -114.410      -39.890       -7.154       11.597       13.824       11.444      134.490      191.092      130.954        0.759        0.023      121.164        7.639        0.004      333.093        2.182      867.019
01/26/2015  03:37:00      -91.748      -38.929       -3.959       19.366       14.481       10.683      375.049      209.713      114.122        0.532        0.035       99.666       10.659        0.011      333.137        2.256      866.994
01/26/2015  03:38:00      -82.543      -34.227       -1.583       14.054       16.425       10.866      197.505      269.771      118.077        0.429        0.029       89.358        8.876        0.010      333.096        2.187      866.981
01/26/2015  03:39:00      -61.459      -35.168        0.155       28.819       17.694       12.235      830.532      313.073      149.703        0.315        0.065       70.809       10.387        0.022      332.980        1.995      866.983
01/26/2015  03:40:00      -55.926      -35.620       -4.114       23.666       11.881       14.093      560.090      141.170      198.615        0.266        0.045       66.306       14.395        0.047      333.014        2.053      866.983
01/26/2015  03:41:00     -105.395      -32.940      -11.499       11.635       13.704        8.839      135.373      187.798       78.125        0.636        0.020      110.422        6.787        0.004      333.113        2.214      866.984
01/26/2015  03:42:00      -99.255      -18.139       -9.385       12.424       13.436        8.473      154.364      180.518       71.788        0.534        0.020      100.899        5.889        0.003      333.104        2.201      866.983
01/26/2015  03:43:00     -119.755      -34.947      -10.731       20.485       13.451       11.728      419.625      180.937      137.536        0.821        0.037      124.750        9.562        0.006      333.139        2.258      866.977
01/26/2015  03:44:00     -116.699      -40.950      -11.634       11.881       11.364        7.741      141.159      129.133       59.920        0.788        0.017      123.675        3.824        0.001      333.004        2.036      866.970
01/26/2015  03:45:00     -112.013      -53.321      -12.964       20.440       17.911       10.331      417.807      320.802      106.725        0.820        0.042      124.056        6.151        0.002      333.005        2.037      866.965
01/26/2015  03:46:00     -111.849      -30.557      -17.663       19.251       26.580       14.036      370.612      706.509      197.015        0.751        0.064      115.948       13.644        0.014      333.130        2.244      866.955
01/26/2015  03:47:00     -106.187      -18.721      -11.465       35.157       26.382       18.183     1235.987      696.007      330.605        0.701        0.113      107.824       10.388        0.009      333.124        2.232      866.943
01/26/2015  03:48:00      -92.328       -0.793       -7.822       33.769       23.160       18.691     1140.364      536.395      349.340        0.531        0.101       92.331       17.205        0.035      333.091        2.179      866.921
01/26/2015  03:49:00     -105.729        1.867      -15.079       24.430       20.497       17.886      596.825      420.114      319.920        0.637        0.067      105.745        9.230        0.008      333.186        2.336      866.896
01/26/2015  03:50:00      -94.445       -8.802      -19.233       17.765       17.085       13.051      315.604      291.895      170.326        0.507        0.039       94.855        7.980        0.007      333.225        2.401      866.869
01/26/2015  03:51:00      -40.344      -44.941       -8.793       30.825       19.417       20.872      950.168      377.004      435.630        0.274        0.088       60.393       18.651        0.095      333.130        2.243      866.861
01/26/2015  03:52:00      -46.073      -46.411       -8.913       24.041       19.613       19.252      577.948      384.658      370.636        0.284        0.067       65.397       13.678        0.044      333.203        2.364      866.859
01/26/2015  03:53:00      -72.727      -44.343      -18.353       23.653       18.781       16.470      559.476      352.719      271.277        0.439        0.059       85.179       16.071        0.036      333.165        2.300      866.864
01/26/2015  03:54:00     -101.899      -57.864      -11.364       17.167       15.677       11.432      294.723      245.767      130.695        0.727        0.034      117.182        6.094        0.003      333.088        2.175      866.883
01/26/2015  03:55:00      -74.380      -20.658       -1.058       31.711       15.736       14.628     1005.603      247.609      213.989        0.371        0.073       77.196       16.671        0.047      333.100        2.193      866.909
01/26/2015  03:56:00      -14.020       -6.105       -0.028       11.058       13.517        6.660      122.281      182.704       44.358        0.029        0.017       15.292        5.860        0.147      333.197        2.354      866.934
01/26/2015  03:57:00      -31.788      -25.246       -4.715       12.413        7.336        6.840      154.071       53.813       46.786        0.096        0.013       40.593        5.204        0.016      333.349        2.607      866.941
01/26/2015  03:58:00      -26.671      -16.054       -6.745       11.556        6.838        6.821      133.534       46.761       46.531        0.062        0.011       31.130        5.879        0.036      333.462        2.791      866.933
01/26/2015  03:59:00      -37.611      -14.849       -3.739       13.540        8.057        6.983      183.337       64.921       48.765        0.097        0.015       40.436        6.926        0.029      333.451        2.774      866.906
01/26/2015  04:00:00      -42.432      -26.426       -7.327       12.851        8.527        5.469      165.153       72.707       29.913        0.141        0.013       49.988        3.838        0.006      333.303        2.529      866.896
01/26/2015  04:01:00      -70.569      -21.509       -5.804       13.551       10.002        8.661      183.619      100.049       75.011        0.292        0.018       73.774        7.279        0.010      333.213        2.380      866.892
01/26/2015  04:02:00     -100.122      -28.183       -5.599       17.709       14.499       12.789      313.593      210.218      163.557        0.577        0.034      104.013       11.081        0.011      333.137        2.254      866.891
01/26/2015  04:03:00     -101.567      -44.413       -1.398       22.310       19.622       14.219      497.735      385.034      202.179        0.669        0.054      110.853        9.947        0.008      333.003        2.035      866.903
01/26/2015  04:04:00      -96.251      -64.002       -5.773       31.631       32.014       22.876     1000.494     1024.920      523.306        0.797        0.127      115.588       17.630        0.023      332.956        1.956      866.912
01/26/2015  04:05:00      -56.327      -50.073       10.911       37.782       29.282       20.460     1427.502      857.439      418.629        0.425        0.135       75.366       21.021        0.078      332.974        1.984      866.923
01/26/2015  04:06:00     -100.981      -51.568       -1.038       32.717       24.946       16.631     1070.390      622.308      276.585        0.741        0.098      113.386       13.962        0.015      333.022        2.065      866.926
01/26/2015  04:07:00      -83.540      -63.014       -0.450       35.961       27.516       24.532     1293.212      757.123      601.837        0.680        0.133      104.641       21.632        0.043      333.055        2.120      866.907
01/26/2015  04:08:00     -115.244      -57.760      -10.547       33.116       23.368       19.815     1096.698      546.062      392.649        0.938        0.102      128.909       15.608        0.015      333.004        2.035      866.884
01/26/2015  04:09:00     -126.629      -51.227       -9.485       15.088       17.305       10.617      227.639      299.448      112.715        0.969        0.032      136.599        5.194        0.001      332.940        1.930      866.888
01/26/2015  04:10:00     -111.617      -36.072       -5.380       20.034       19.117       13.838      401.367      365.469      191.496        0.737        0.048      117.301       11.027        0.009      332.929        1.912      866.893
01/26/2015  04:11:00     -114.269      -49.081       -8.356       20.068       17.496       13.406      402.709      306.123      179.734        0.821        0.044      124.364        9.893        0.006      332.963        1.967      866.886
01/26/2015  04:12:00     -129.668      -65.986       -9.978        9.934        9.973       12.317       98.689       99.452      151.714        1.081        0.017      145.492        3.739        0.001      332.976        1.989      866.860
01/26/2015  04:13:00     -118.672      -69.333      -14.503       22.147       16.889       10.045      490.505      285.224      100.907        0.999        0.044      137.441        4.943        0.001      332.963        1.966      866.838
01/26/2015  04:14:00     -128.855      -53.110       -8.110       15.666       14.357       10.586      245.428      206.116      112.060        1.003        0.028      139.371        8.112        0.003      332.954        1.952      866.819
01/26/2015  04:15:00     -135.545      -41.158      -19.501       13.618       11.140        9.995      185.447      124.102       99.907        1.043        0.020      141.656        6.698        0.002      332.965        1.971      866.794
01/26/2015  04:16:00     -131.703      -46.804      -15.239       11.472       13.500        9.995      131.617      182.250       99.896        1.009        0.021      139.772        6.656        0.002      332.978        1.992      866.771
01/26/2015  04:17:00     -122.504      -41.936       -9.614       11.927       15.954        9.286      142.260      254.533       86.236        0.867        0.024      129.483        4.712        0.001      332.977        1.990      866.757
01/26/2015  04:18:00     -134.767      -38.360      -16.070       12.325       17.190        9.218      151.895      295.497       84.963        1.021        0.027      140.120        4.349        0.001      332.969        1.978      866.750
01/26/2015  04:19:00      -37.001      -53.163        9.167       54.870       21.054       17.248     3010.739      443.259      297.507        0.401        0.188       64.771       24.978        0.149      333.009        2.044      866.758
01/26/2015  04:20:00        6.521      -19.644       -5.847       22.775       21.682       13.357      518.714      470.103      178.410        0.081        0.058       20.698       10.724        0.268      333.103        2.198      866.762
01/26/2015  04:21:00      -39.693        7.023       -8.443       18.976        8.187        9.702      360.105       67.020       94.134        0.111        0.026       40.309        6.666        0.027      333.771        3.305      866.751
01/26/2015  04:22:00       15.930        9.673       17.853       31.708       14.806       14.195     1005.424      219.213      201.485        0.105        0.071       18.637       14.736        0.625      333.525        2.896      866.760
01/26/2015  04:23:00       33.147       -4.463       16.041       15.697       21.160       11.201      246.410      447.745      125.465        0.110        0.041       33.446       10.446        0.098      333.245        2.432      866.773
01/26/2015  04:24:00       45.490       14.148        6.523       10.328       10.758       11.792      106.675      115.727      139.049        0.134        0.018       47.639        8.263        0.030      333.316        2.550      866.787
01/26/2015  04:25:00       52.994       24.817        6.698        9.445       11.996        6.093       89.200      143.912       37.122        0.187        0.014       58.517        3.174        0.003      333.935        3.576      866.800
01/26/2015  04:26:00       32.226       17.536       19.380       26.102       17.397       21.013      681.316      302.655      441.564        0.157        0.071       36.688       14.122        0.148      333.655        3.111      866.794
01/26/2015  04:27:00        5.084       28.938       19.003        9.317       18.075       17.355       86.813      326.708      301.185        0.097        0.036       29.382       14.435        0.241      333.233        2.413      866.782
01/26/2015  04:28:00      -47.705      -13.486       -4.264       23.796       10.962       10.611      566.228      120.155      112.596        0.164        0.040       49.575        5.241        0.011      333.036        2.088      866.776
01/26/2015  04:29:00      -48.681      -25.501       -7.001       10.046        8.212        6.654      100.931       67.445       44.276        0.164        0.011       54.956        3.389        0.004      333.029        2.077      866.764
01/26/2015  04:30:00      -50.172      -26.010       -4.936       12.272        7.074        6.243      150.595       50.044       38.975        0.173        0.012       56.513        4.928        0.008      333.101        2.195      866.751
01/26/2015  04:31:00      -43.428      -30.947       -3.112       11.340        9.627        6.092      128.602       92.684       37.109        0.156        0.013       53.327        5.203        0.010      333.251        2.440      866.737
01/26/2015  04:32:00      -48.351      -27.612        8.545       31.764       19.565       14.965     1008.978      382.804      223.956        0.239        0.081       55.680       15.217        0.075      333.200        2.359      866.723
01/26/2015  04:33:00      -63.694      -46.113       -2.649       42.200       18.320       16.600     1780.828      335.613      275.572        0.429        0.120       78.635       17.373        0.049      333.121        2.227      866.725
01/26/2015  04:34:00      -66.356      -40.689       -0.229       16.524       14.590       10.254      273.051      212.856      105.138        0.332        0.030       77.838        8.290        0.011      333.170        2.309      866.730
01/26/2015  04:35:00      -48.895      -34.025       -1.659       24.649       11.446       10.887      607.559      131.005      118.534        0.220        0.043       59.569        6.859        0.013      333.178        2.321      866.740
01/26/2015  04:36:00      -52.908      -16.164       -5.205       14.777       12.888       11.137      218.370      166.096      124.038        0.180        0.025       55.323        7.704        0.019      333.140        2.261      866.755
01/26/2015  04:37:00      -60.872      -13.819        0.016       19.042       23.396       11.361      362.588      547.369      129.072        0.247        0.052       62.421       10.688        0.029      333.129        2.243      866.761
01/26/2015  04:38:00      -48.082      -26.039       -0.763       14.023       13.447       10.678      196.637      180.809      114.016        0.174        0.025       54.680        3.897        0.005      333.085        2.171      866.769
01/26/2015  04:39:00      -33.527      -21.227        0.505       24.025       16.075       10.593      577.202      258.412      112.210        0.126        0.047       39.682       10.245        0.067      333.016        2.056      866.765
01/26/2015  04:40:00      -24.503      -10.691       -1.444       12.180       10.901        7.068      148.360      118.835       49.954        0.052        0.016       26.733        5.462        0.042      332.964        1.969      866.753
01/26/2015  04:41:00      -54.787       -6.469       -4.214       10.612        7.309        6.639      112.621       53.423       44.070        0.164        0.011       55.168        4.999        0.008      333.000        2.030      866.735
01/26/2015  04:42:00      -47.389      -25.610       -6.553       12.335       15.947        7.087      152.155      254.305       50.222        0.170        0.023       53.866        5.602        0.011      332.946        1.941      866.729
01/26/2015  04:43:00        2.931      -17.523        8.751       18.990       14.335       12.209      360.622      205.497      149.048        0.055        0.036       17.766       14.349        0.652      332.937        1.924      866.729
01/26/2015  04:44:00       21.572       10.228        7.255        8.788        7.317        8.243       77.222       53.535       67.941        0.041        0.010       23.874        5.510        0.053      332.871        1.816      866.742
01/26/2015  04:45:00       -0.223       -6.224       -2.450       10.065        8.723        3.205      101.303       76.087       10.273        0.012        0.009        6.228        2.373        0.145      332.950        1.945      866.731
01/26/2015  04:46:00      -52.782      -38.674       -6.438       22.865       18.078        9.196      522.817      326.820       84.564        0.263        0.047       65.434        6.540        0.010      332.952        1.952      866.716
01/26/2015  04:47:00      -45.219      -37.976       -3.988       25.530       19.927       11.002      651.790      397.066      121.039        0.234        0.058       59.051        8.113        0.019      332.808        1.712      866.697
01/26/2015  04:48:00      -23.167      -16.721        0.877       11.190       10.170        7.849      125.205      103.431       61.604        0.055        0.015       28.571        7.358        0.066      332.808        1.714      866.696
01/26/2015  04:49:00      -19.358       -8.931        0.638       14.193        8.419        5.290      201.435       70.876       27.979        0.038        0.015       21.318        6.831        0.103      332.881        1.834      866.706
01/26/2015  04:50:00        4.750        7.394        6.292        9.599        7.496        7.251       92.133       56.186       52.570        0.016        0.010        8.788        7.773        0.782      332.807        1.712      866.703
01/26/2015  04:51:00       20.598       29.274       -3.540        9.624       10.444       12.368       92.618      109.070      152.975        0.082        0.018       35.794        5.482        0.023      332.575        1.327      866.694
01/26/2015  04:52:00       22.283       10.399        0.683       10.185        7.613       10.774      103.731       57.958      116.071        0.044        0.014       24.590        8.525        0.120      332.585        1.343      866.689
01/26/2015  04:53:00       26.956       15.960        0.932        6.335        4.495        6.469       40.127       20.208       41.846        0.054        0.005       31.326        2.393        0.006      332.680        1.502      866.677
01/26/2015  04:54:00       27.010       16.046        3.742        9.977        9.973        8.946       99.531       99.457       80.033        0.064        0.014       31.417        7.034        0.050      332.687        1.511      866.672
01/26/2015  04:55:00       10.523       12.866       10.263       13.520       11.802       10.881      182.795      139.276      118.398        0.041        0.022       16.622        8.346        0.252      332.632        1.421      866.669
01/26/2015  04:56:00      -16.514        0.545        2.616        9.161       12.042        7.193       83.916      145.002       51.734        0.028        0.014       16.523        5.727        0.120      332.622        1.406      866.670
01/26/2015  04:57:00       -8.098        0.264        4.362       14.885        3.936        4.688      221.554       15.492       21.978        0.017        0.013        8.103        5.441        0.451      332.643        1.440      866.656
01/26/2015  04:58:00        2.653       10.683       -1.012        6.077        5.172        4.796       36.935       26.754       22.997        0.010        0.004       11.008        4.465        0.165      332.736        1.595      866.655
01/26/2015  04:59:00      -19.167        7.345       -2.928       13.160        8.178        5.671      173.195       66.873       32.162        0.035        0.014       20.526        5.454        0.071      332.739        1.598      866.644
01/26/2015  05:00:00      -16.520        4.309       -1.759        7.624        3.526        3.246       58.129       12.430       10.534        0.019        0.004       17.073        3.243        0.036      332.786        1.675      866.623
01/26/2015  05:01:00       -5.633        3.518        2.340        7.886        3.116        3.878       62.193        9.708       15.037        0.007        0.004        6.642        2.873        0.187      332.755        1.624      866.594
01/26/2015  05:02:00       14.383       35.751       -4.259        6.525       12.438        6.317       42.571      154.692       39.905        0.087        0.012       38.536        6.016        0.024      332.695        1.525      866.585
01/26/2015  05:03:00        9.189       36.844       -5.656        6.200       10.643        5.215       38.445      113.281       27.194        0.083        0.009       37.973        5.813        0.023      332.646        1.445      866.559
01/26/2015  05:04:00       -4.171        9.281       -2.566        5.867        7.412        3.069       34.421       54.933        9.420        0.010        0.005       10.175        2.081        0.042      332.661        1.470      866.534
01/26/2015  05:05:00      -20.509       -3.926       -0.619       11.130        5.379        3.774      123.886       28.936       14.244        0.030        0.008       20.882        1.780        0.007      332.669        1.481      866.502
01/26/2015  05:06:00      -38.234       -5.131       -1.571       11.709       10.596        9.869      137.102      112.275       97.400        0.092        0.017       38.577        8.439        0.048      332.504        1.211      866.492
01/26/2015  05:07:00      -27.555       -9.337        1.825       13.901        9.888        7.945      193.235       97.770       63.123        0.060        0.018       29.094        5.926        0.041      332.631        1.420      866.498
01/26/2015  05:08:00       -6.111      -21.040       -2.079        9.350        7.405        5.300       87.427       54.831       28.087        0.033        0.009       21.909        3.625        0.027      332.718        1.562      866.515
01/26/2015  05:09:00       -9.818      -12.479        7.262        6.512        5.567        5.058       42.402       30.990       25.587        0.020        0.005       15.878        2.507        0.025      332.660        1.467      866.528
01/26/2015  05:10:00      -10.576        0.137       -0.863        3.982        2.484        2.670       15.856        6.168        7.129        0.007        0.001       10.576        0.995        0.009      332.615        1.392      866.537
01/26/2015  05:11:00      -17.005       -1.142        0.542        5.645        5.103        3.130       31.867       26.041        9.794        0.018        0.003       17.043        2.625        0.024      332.614        1.393      866.536
01/26/2015  05:12:00      -39.972       14.096       -4.444       17.734       18.198        5.917      314.511      331.157       35.013        0.125        0.034       42.384        8.125        0.037      332.594        1.359      866.526
01/26/2015  05:13:00      -81.714       -5.763       -8.883       15.685       20.889       10.545      246.021      436.340      111.203        0.379        0.040       81.917        6.195        0.006      332.306        0.884      866.515
01/26/2015  05:14:00      -95.999      -15.794        1.609       41.170       22.059       20.952     1694.989      486.592      438.972        0.604        0.131       97.290       24.933        0.066      332.217        0.735      866.495
01/26/2015  05:15:00      -87.638       -9.705        2.174       36.726       39.409       26.330     1348.806     1553.089      693.257        0.569        0.180       88.174       24.393        0.077      332.202        0.712      866.471
01/26/2015  05:16:00      -75.047      -17.739       -1.506       39.615       28.315       18.260     1569.347      801.761      333.442        0.433        0.135       77.115       14.723        0.036      332.196        0.703      866.453
01/26/2015  05:17:00      -68.381      -26.779       -5.399       24.616       28.248       13.003      605.924      797.929      169.086        0.350        0.079       73.437       13.180        0.032      332.216        0.735      866.437
01/26/2015  05:18:00      -28.251       -3.151       -2.976       26.434       21.068       11.595      698.776      443.841      134.447        0.105        0.064       28.426        8.716        0.094      332.269        0.822      866.418
01/26/2015  05:19:00      -12.552        6.380       -8.499       21.524       14.912        9.753      463.289      222.360       95.125        0.053        0.039       14.081        9.527        0.458      332.362        0.975      866.413
01/26/2015  05:20:00      -24.202      -22.641       -1.940       13.647       14.277       10.858      186.253      203.825      117.896        0.080        0.025       33.141        5.812        0.031      332.416        1.063      866.413
01/26/2015  05:21:00      -39.877      -25.499       -1.677       29.223       19.572       15.220      853.990      383.059      231.662        0.186        0.073       47.332       12.029        0.065      332.451        1.121      866.417
01/26/2015  05:22:00      -39.980      -26.379       -4.061       32.462       16.268       12.887     1053.755      264.644      166.075        0.190        0.074       47.899        9.958        0.043      332.402        1.041      866.413
01/26/2015  05:23:00      -57.296      -20.412       -2.542       12.197       14.804        8.261      148.779      219.144       68.239        0.207        0.022       60.823        5.271        0.008      332.384        1.011      866.417
01/26/2015  05:24:00      -67.656       -7.764       -9.619       13.724       13.598       10.204      188.359      184.905      104.112        0.260        0.024       68.100        8.535        0.016      332.504        1.208      866.409
01/26/2015  05:25:00      -80.005      -10.806      -10.272       15.323       11.921        8.241      234.791      142.103       67.922        0.353        0.022       80.731        4.792        0.004      332.754        1.624      866.404
01/26/2015  05:26:00      -62.381      -14.370       -6.574       10.658        9.970        7.519      113.595       99.395       56.532        0.221        0.013       64.015        4.848        0.006      332.770        1.650      866.386
01/26/2015  05:27:00      -40.325       -7.070       -3.081       16.635        8.623        5.312      276.711       74.351       28.216        0.103        0.019       40.940        4.653        0.013      333.028        2.075      866.373
01/26/2015  05:28:00       24.615        0.781        1.926       21.547        8.381       11.851      464.270       70.246      140.438        0.064        0.034       24.627        8.582        0.121      332.857        1.792      866.370
01/26/2015  05:29:00       26.399      -24.921       -8.921       12.597        8.848        7.485      158.685       78.290       56.021        0.085        0.015       36.304        5.770        0.025      332.851        1.784      866.371
01/26/2015  05:30:00        1.176      -17.720        4.459       12.796        8.711       11.205      163.739       75.875      125.550        0.035        0.018       17.759        4.611        0.067      332.833        1.755      866.353
01/26/2015  05:31:00       -5.285      -13.532       -0.754        6.026       11.995        6.946       36.311      143.869       48.240        0.022        0.011       14.528        8.206        0.319      332.794        1.690      866.336
01/26/2015  05:32:00       -6.068      -21.990        1.549        6.883        6.920        5.259       47.381       47.892       27.661        0.032        0.006       22.812        3.484        0.023      332.857        1.795      866.321
01/26/2015  05:33:00      -25.269      -17.869       -3.032       10.446        7.900        6.513      109.111       62.406       42.424        0.059        0.011       30.949        3.725        0.014      332.782        1.669      866.317
01/26/2015  05:34:00      -56.543       -9.224       -5.548       11.013        8.691        8.837      121.289       75.527       78.084        0.179        0.014       57.290        5.184        0.008      332.514        1.226      866.321
01/26/2015  05:35:00      -79.795       -2.065       -5.118       16.164       15.233       11.228      261.267      232.041      126.062        0.351        0.031       79.822        5.957        0.006      332.472        1.155      866.344
01/26/2015  05:36:00      -77.120      -15.015       -3.853       18.567       15.994       11.438      344.745      255.797      130.835        0.346        0.037       78.568       10.546        0.018      332.476        1.162      866.382
01/26/2015  05:37:00      -76.018      -20.747       -1.656       26.127       15.645       13.210      682.615      244.780      174.511        0.366        0.055       78.798       14.530        0.034      332.399        1.036      866.390
01/26/2015  05:38:00     -120.025      -10.477       -3.570       33.524       19.938       18.268     1123.842      397.529      333.703        0.819        0.093      120.482       19.819        0.027      332.239        0.773      866.382
01/26/2015  05:39:00     -117.620       -6.412       -1.689       33.808       20.910       19.174     1142.950      437.210      367.636        0.791        0.097      117.795       20.016        0.029      332.144        0.616      866.386
01/26/2015  05:40:00     -124.347       -9.781      -10.792       28.264       16.576       17.724      798.871      274.774      314.154        0.853        0.069      124.731       15.676        0.016      332.168        0.656      866.393
01/26/2015  05:41:00     -118.416      -30.736       -9.468       21.177       16.601       14.538      448.475      275.577      211.348        0.800        0.047      122.339        8.504        0.005      332.301        0.874      866.395
01/26/2015  05:42:00     -109.076      -45.608       -4.595       22.765       23.224       15.759      518.227      539.360      248.350        0.765        0.065      118.228       10.228        0.007      332.318        0.902      866.384
01/26/2015  05:43:00     -127.007      -58.322       -8.834       33.580       33.963       20.400     1127.636     1153.483      416.165        1.115        0.135      139.758       11.184        0.006      332.359        0.970      866.367
01/26/2015  05:44:00     -149.649      -53.448       -9.494       24.370       27.290       15.716      593.876      744.745      246.982        1.346        0.079      158.907       11.710        0.005      332.378        1.002      866.345
01/26/2015  05:45:00     -111.011      -41.143        2.730       31.730       28.087       14.792     1006.774      788.904      218.792        0.802        0.101      118.390       14.396        0.015      332.411        1.054      866.332
01/26/2015  05:46:00      -95.163      -41.150       -3.205       28.949       34.409       20.518      838.032     1184.004      420.974        0.660        0.122      103.679       16.771        0.026      332.472        1.157      866.328
01/26/2015  05:47:00     -153.203      -21.252      -12.939       28.059       18.789       12.908      787.311      353.041      166.616        1.270        0.065      154.670       11.449        0.005      332.450        1.120      866.325
01/26/2015  05:48:00     -172.484      -13.167      -13.461       32.254       27.783       18.677     1040.312      771.916      348.815        1.613        0.108      172.986       18.588        0.012      332.425        1.078      866.317
01/26/2015  05:49:00     -127.567      -29.283       -4.154       37.990       20.987       19.071     1443.274      440.443      363.690        0.970        0.112      130.885       18.123        0.019      332.343        0.943      866.320
01/26/2015  05:50:00     -107.234      -21.498       -6.346       33.974       22.788       13.588     1154.240      519.297      184.635        0.693        0.093      109.368       12.854        0.014      332.297        0.868      866.322
01/26/2015  05:51:00      -95.478      -16.372        0.570       26.740       25.952       15.188      715.001      673.489      230.663        0.550        0.081       96.871       11.049        0.013      332.361        0.974      866.320
01/26/2015  05:52:00      -77.883      -14.999        3.174       26.865       27.594       18.002      721.752      761.418      324.062        0.405        0.090       79.315       14.311        0.033      332.408        1.052      866.314
01/26/2015  05:53:00      -38.251      -17.276        3.382       29.204       30.046       12.575      852.898      902.786      158.122        0.184        0.096       41.971       10.335        0.061      332.405        1.044      866.312
01/26/2015  05:54:00      -76.294      -25.149       -2.598       21.818       29.703       19.167      476.037      882.246      367.386        0.409        0.086       80.332       17.798        0.049      332.444        1.110      866.312
01/26/2015  05:55:00      -75.639      -42.215      -12.041       55.311       27.320       19.217     3059.346      746.385      369.277        0.591        0.209       86.622       17.158        0.039      332.444        1.111      866.315
01/26/2015  05:56:00       16.574      -25.361        1.101       20.343       17.895       19.924      413.840      320.246      396.958        0.102        0.057       30.297        7.591        0.063      332.470        1.153      866.324
01/26/2015  05:57:00       -5.880      -32.994        4.091       17.713       25.975       14.881      313.761      674.718      221.451        0.117        0.060       33.514       13.138        0.154      332.437        1.099      866.340
01/26/2015  05:58:00      -84.359      -29.434       -8.210       23.137       14.566       13.571      535.316      212.156      184.173        0.449        0.047       89.347       11.846        0.018      332.387        1.016      866.345
01/26/2015  05:59:00      -49.450      -22.137        3.380       28.934       21.458       13.995      837.198      460.450      195.859        0.222        0.075       54.179       13.402        0.061      332.461        1.138      866.342
01/26/2015  06:00:00      -27.292      -30.573        4.870       20.968       18.923       13.278      439.662      358.069      176.300        0.134        0.049       40.983       12.812        0.098      332.523        1.242      866.327
01/26/2015  06:01:00      -61.828      -31.763       -8.716       12.844       14.319        9.296      164.981      205.021       86.422        0.268        0.023       69.510        5.449        0.006      332.572        1.321      866.288
01/26/2015  06:02:00      -67.058      -51.350      -11.241       11.115       16.086        8.355      123.537      258.766       69.814        0.386        0.023       84.461        6.886        0.007      332.741        1.602      866.262
01/26/2015  06:03:00      -95.923      -55.117       -6.929       19.198       13.708       12.654      368.546      187.902      160.112        0.650        0.036      110.631        7.104        0.004      332.668        1.480      866.253
01/26/2015  06:04:00     -123.208      -60.544       -3.400       21.225       18.070       16.312      450.503      326.510      266.094        0.995        0.052      137.279        9.306        0.005      332.689        1.516      866.263
01/26/2015  06:05:00      -25.676      -23.667       18.355       46.954       25.734       20.178     2204.710      662.251      407.166        0.241        0.164       34.920       25.808        0.546      332.580        1.335      866.273
01/26/2015  06:06:00       15.759      -19.548       15.691       14.831       15.087       14.666      219.956      227.614      215.094        0.077        0.033       25.110        8.975        0.128      332.671        1.486      866.272
01/26/2015  06:07:00       11.240        1.006        0.932       14.255       14.767       17.309      203.209      218.076      299.599        0.042        0.036       11.284       14.590        1.672      332.632        1.423      866.269
01/26/2015  06:08:00       -4.309       -3.620        9.950       15.090       24.689       14.582      227.707      609.564      212.623        0.059        0.052        5.628       15.447        7.533      332.694        1.524      866.271
01/26/2015  06:09:00      -52.754      -41.658       -6.508       12.009       11.108        8.786      144.227      123.398       77.189        0.245        0.017       67.218        5.957        0.008      333.025        2.070      866.268
01/26/2015  06:10:00      -71.478      -30.284      -12.400       15.609       13.475       12.293      243.653      181.586      151.116        0.338        0.029       77.628        8.633        0.012      333.052        2.116      866.266
01/26/2015  06:11:00      -30.806      -23.567        1.631       17.532       12.026       12.318      307.372      144.633      151.726        0.106        0.030       38.787        9.538        0.060      332.789        1.680      866.265
01/26/2015  06:12:00        1.428      -19.869       -1.323        6.913       10.507        6.075       47.793      110.402       36.900        0.030        0.010       19.920        3.508        0.031      332.774        1.653      866.266
01/26/2015  06:13:00        2.366        8.029       14.612       10.351       13.423       12.356      107.153      180.170      152.669        0.036        0.022        8.370       11.267        1.812      332.640        1.435      866.273
01/26/2015  06:14:00       -2.833      -19.219       -0.413       14.791       28.168       10.528      218.763      793.461      110.829        0.075        0.056       19.427       15.354        0.625      332.721        1.566      866.276
01/26/2015  06:15:00      -69.784      -34.002       -7.454       12.864        9.088        5.275      165.484       82.597       27.823        0.318        0.014       77.627        2.855        0.001      332.524        1.242      866.270
01/26/2015  06:16:00      -93.460      -47.771       -2.511       17.231       15.263        8.862      296.895      232.969       78.540        0.582        0.030      104.961        7.270        0.005      332.523        1.240      866.253
01/26/2015  06:17:00      -83.980      -50.953        1.804       23.597       20.429       17.412      556.832      417.338      303.178        0.546        0.064       98.229       13.556        0.019      332.477        1.163      866.239
01/26/2015  06:18:00      -41.705      -32.815        8.127       30.047       16.837       16.458      902.820      283.488      270.871        0.217        0.073       53.067       15.266        0.083      332.516        1.229      866.235
01/26/2015  06:19:00      -60.699      -62.297        1.626       34.488       32.393       12.818     1189.392     1049.327      164.293        0.499        0.120       86.978        9.120        0.011      332.492        1.188      866.238
01/26/2015  06:20:00     -110.285      -52.913        0.294       34.157       45.527       22.368     1166.724     2072.675      500.325        0.935        0.187      122.322       16.278        0.018      332.535        1.260      866.228
01/26/2015  06:21:00      -90.825      -70.949        3.062       51.066       44.772       28.839     2607.744     2004.500      831.711        0.937        0.272      115.252       30.827        0.072      332.496        1.196      866.209
01/26/2015  06:22:00      -74.467      -69.596        1.281       37.339       35.053       26.338     1394.183     1228.714      693.679        0.685        0.166      101.926       21.943        0.046      332.449        1.117      866.214
01/26/2015  06:23:00      -87.676      -67.204       -0.048       38.585       26.735       18.714     1488.820      714.749      350.230        0.738        0.128      110.469       17.675        0.026      332.449        1.119      866.234
01/26/2015  06:24:00      -85.197      -47.789        2.839       40.808       31.911       18.300     1665.272     1018.315      334.903        0.628        0.151       97.685       19.998        0.042      332.525        1.244      866.257
01/26/2015  06:25:00     -158.581      -94.320      -22.240       27.385       24.223       17.204      749.927      586.752      295.962        1.809        0.082      184.511        8.219        0.002      332.601        1.368      866.259
01/26/2015  06:26:00     -151.178     -108.481       -9.883       33.970       32.424       21.765     1153.982     1051.329      473.721        1.870        0.134      186.072       19.921        0.011      332.628        1.413      866.255
01/26/2015  06:27:00     -122.398      -94.743        4.328       41.189       39.184       26.341     1696.501     1535.409      693.848        1.395        0.196      154.782       23.673        0.023      332.631        1.419      866.257
01/26/2015  06:28:00     -131.893      -82.473        3.204       59.905       43.251       37.817     3588.643     1870.684     1430.141        1.555        0.344      155.555       36.559        0.055      332.533        1.257      866.244
01/26/2015  06:29:00     -120.928      -88.864        4.179       70.982       51.171       38.261     5038.382     2618.421     1463.878        1.583        0.456      150.068       38.508        0.066      332.558        1.296      866.220
01/26/2015  06:30:00      -71.230      -55.462        4.516       45.452       52.506       27.704     2065.849     2756.866      767.533        0.688        0.280       90.276       17.336        0.037      332.552        1.290      866.193
01/26/2015  06:31:00      -84.573      -69.085        8.452       57.548       42.610       27.371     3311.804     1815.574      749.172        0.894        0.294      109.203       25.384        0.054      332.578        1.333      866.170
01/26/2015  06:32:00      -93.770      -43.054       -1.821       26.749       27.028       18.264      715.531      730.532      333.567        0.621        0.089      103.182       14.389        0.019      332.559        1.300      866.164
01/26/2015  06:33:00      -89.554      -38.572       -1.020       28.921       22.434       14.863      836.442      503.285      220.907        0.553        0.078       97.508        9.056        0.009      332.556        1.295      866.160
01/26/2015  06:34:00     -105.906      -28.323       -7.421       16.521       18.637       11.723      272.952      347.322      137.426        0.642        0.038      109.627        4.086        0.001      332.552        1.288      866.157
01/26/2015  06:35:00      -80.849      -35.837        0.372       17.147       20.956       12.388      294.035      439.154      153.461        0.435        0.044       88.435       10.412        0.014      332.516        1.229      866.155
01/26/2015  06:36:00     -106.055      -22.573      -14.505       18.308       17.949       12.764      335.174      322.161      162.931        0.639        0.041      108.431        6.817        0.004      332.517        1.230      866.152
01/26/2015  06:37:00     -129.463      -26.082       -8.921       20.265       17.629       14.631      410.664      310.768      214.057        0.923        0.047      132.065        8.843        0.004      332.403        1.042      866.152
01/26/2015  06:38:00     -108.035      -32.164       -9.709       28.967       16.661       14.246      839.094      277.599      202.959        0.706        0.066      112.721       12.901        0.013      332.343        0.942      866.149
01/26/2015  06:39:00     -110.704      -16.660      -13.428       22.217       19.104       12.469      493.612      364.966      155.468        0.686        0.051      111.951       12.033        0.012      332.287        0.853      866.165
01/26/2015  06:40:00      -97.582       -8.985       -8.423       23.387       14.502        9.949      546.958      210.321       98.984        0.526        0.043       97.994        8.988        0.008      332.300        0.873      866.165
01/26/2015  06:41:00     -103.654      -15.547      -11.688       10.136       10.618        7.673      102.739      112.732       58.873        0.570        0.014      104.813        5.331        0.003      332.326        0.916      866.161
01/26/2015  06:42:00      -75.896      -32.283       -0.118       32.089       17.778       17.451     1029.710      316.044      304.552        0.423        0.083       82.477       17.373        0.044      332.358        0.967      866.166
01/26/2015  06:43:00      -67.474      -41.506        1.140       26.340       22.964       11.386      693.772      527.357      129.641        0.381        0.068       79.219       10.531        0.018      332.355        0.964      866.174
01/26/2015  06:44:00     -112.497      -39.701      -11.695       17.303       13.416       10.509      299.408      179.981      110.447        0.748        0.029      119.297        4.053        0.001      332.315        0.896      866.161
01/26/2015  06:45:00     -125.307      -49.344       -7.887       23.438       22.902       13.300      549.330      524.487      176.896        0.972        0.063      134.673        9.290        0.005      332.332        0.925      866.140
01/26/2015  06:46:00     -108.891       -6.424       -2.901       23.895       24.041       16.437      570.966      577.955      270.185        0.666        0.071      109.081       13.921        0.016      332.251        0.792      866.143
01/26/2015  06:47:00     -111.837       -6.740       -5.407       30.221       16.194       13.553      913.327      262.259      183.681        0.697        0.068      112.040       14.483        0.017      332.248        0.788      866.155
01/26/2015  06:48:00     -106.535      -14.478       -3.453       31.181       21.118       15.375      972.231      445.974      236.377        0.661        0.083      107.514       12.514        0.014      332.234        0.764      866.154
01/26/2015  06:49:00     -116.388      -14.904       -5.405       21.606       13.413       11.702      466.840      179.907      136.932        0.729        0.039      117.338       11.523        0.010      332.275        0.834      866.162
01/26/2015  06:50:00      -70.878      -24.284        1.279       22.898       19.112       14.558      524.318      365.287      211.947        0.336        0.055       74.923       11.607        0.024      332.266        0.817      866.178
01/26/2015  06:51:00      -12.695      -15.196        8.394       16.072       11.654       10.112      258.307      135.823      102.256        0.048        0.025       19.801        5.645        0.081      332.197        0.702      866.194
01/26/2015  06:52:00       -2.446      -11.954       12.143        5.452        7.327        5.595       29.722       53.688       31.300        0.021        0.006       12.202        3.294        0.073      332.271        0.825      866.210
01/26/2015  06:53:00       -4.205       -1.475        9.871        4.410        5.289        3.517       19.446       27.969       12.367        0.009        0.003        4.456        1.774        0.159      332.296        0.867      866.217
01/26/2015  06:54:00       -8.534        4.692        2.288        6.132        4.955        4.801       37.602       24.556       23.052        0.009        0.004        9.739        3.924        0.162      332.355        0.963      866.207
01/26/2015  06:55:00      -24.022       18.468       -2.028       12.197       10.168        7.148      148.758      103.383       51.099        0.061        0.015       30.301        7.083        0.055      332.355        0.961      866.204
01/26/2015  06:56:00      -37.384        7.409       -1.422       20.678        8.253        5.681      427.579       68.113       32.271        0.099        0.026       38.111        6.953        0.033      332.253        0.796      866.196
01/26/2015  06:57:00      -52.161       -9.390      -11.443        7.298        9.365        5.719       53.263       87.708       32.706        0.156        0.009       52.999        3.268        0.004      332.177        0.670      866.176
01/26/2015  06:58:00      -38.670      -13.915       -1.532       12.148        7.665        9.599      147.571       58.755       92.150        0.099        0.015       41.097        5.005        0.015      332.200        0.710      866.165
01/26/2015  06:59:00      -50.793      -18.007       -4.400       11.931        8.488        8.986      142.343       72.050       80.747        0.161        0.015       53.891        5.048        0.009      332.206        0.721      866.155
01/26/2015  07:00:00      -34.725      -16.866       -1.328        9.706       10.753        7.763       94.205      115.635       60.257        0.088        0.014       38.604        5.389        0.019      332.162        0.644      866.148
01/26/2015  07:01:00      -23.381      -11.291       -7.533       21.877       10.327       11.931      478.621      106.651      142.351        0.073        0.036       25.964        9.565        0.136      332.127        0.590      866.141
01/26/2015  07:02:00      -31.426      -22.268       -5.974       24.001       10.724        7.672      576.031      115.004       58.856        0.113        0.037       38.516        3.554        0.009      332.075        0.504      866.130
01/26/2015  07:03:00      -10.062      -12.099        6.849       16.333        9.300       11.716      266.772       86.493      137.273        0.039        0.025       15.736       11.037        0.492      332.060        0.478      866.126
01/26/2015  07:04:00        8.209      -10.604        0.924       11.989        9.182       10.013      143.729       84.302      100.260        0.025        0.016       13.410        7.744        0.333      332.116        0.569      866.123
01/26/2015  07:05:00       29.008       17.058        2.690       19.688       15.651       10.059      387.627      244.949      101.189        0.094        0.037       33.652       11.047        0.108      332.235        0.764      866.129
01/26/2015  07:06:00       39.186       24.850       -7.258       24.267       19.811       18.118      588.866      392.473      328.262        0.176        0.065       46.401       11.046        0.057      332.120        0.577      866.135
01/26/2015  07:07:00       14.713       36.644       -0.031       10.010       15.811       13.302      100.198      249.982      176.942        0.104        0.026       39.488       13.086        0.110      331.923        0.251      866.139
01/26/2015  07:08:00        9.503       16.876        2.358        8.598       16.686        9.570       73.932      278.424       91.580        0.041        0.022       19.367       10.411        0.289      331.912        0.234      866.134
01/26/2015  07:09:00       -2.129       14.983        4.623        7.708        6.406        6.797       59.411       41.032       46.198        0.020        0.007       15.134        3.441        0.052      332.151        0.628      866.124
01/26/2015  07:10:00       -3.580        2.581        7.396        5.942        4.995        3.544       35.310       24.951       12.557        0.007        0.004        4.414        2.507        0.323      332.129        0.591      866.118
01/26/2015  07:11:00      -16.243       -0.155       -3.995        6.000        3.671        4.533       36.000       13.473       20.549        0.017        0.004       16.244        2.780        0.029      332.088        0.523      866.123
01/26/2015  07:12:00      -22.861       -0.658       -4.691        4.212        5.743        3.827       17.741       32.982       14.645        0.031        0.003       22.870        2.414        0.011      332.184        0.682      866.118
01/26/2015  07:13:00      -32.264       -6.818       -4.210        4.732        5.571        3.524       22.394       31.035       12.421        0.059        0.003       32.977        1.760        0.003      332.286        0.850      866.109
01/26/2015  07:14:00      -40.791       -1.241       -5.042        6.692        5.739        4.310       44.781       32.930       18.575        0.089        0.005       40.810        2.451        0.004      332.167        0.655      866.103
01/26/2015  07:15:00      -26.367      -16.316       -4.704       10.663        9.258        4.772      113.707       85.705       22.771        0.060        0.011       31.007        2.577        0.007      332.182        0.679      866.111
01/26/2015  07:16:00      -17.035      -32.564       -2.801        9.322        8.719        8.421       86.902       76.023       70.914        0.080        0.012       36.750        4.904        0.018      332.224        0.746      866.103
01/26/2015  07:17:00      -24.573      -25.979        0.916       14.025       12.860       10.048      196.710      165.379      100.963        0.087        0.023       35.760        8.629        0.058      332.287        0.851      866.093
01/26/2015  07:18:00      -39.621      -10.514       -1.907        8.965        6.148        6.922       80.376       37.799       47.918        0.093        0.008       40.993        2.363        0.003      332.112        0.560      866.087
01/26/2015  07:19:00      -25.198       -6.205       -2.872       11.223        8.058        3.941      125.955       64.932       15.535        0.044        0.010       25.950        2.716        0.011      332.090        0.526      866.088
01/26/2015  07:20:00       -5.254       -4.914       -1.206        6.110        3.416        3.634       37.332       11.667       13.204        0.006        0.003        7.194        3.215        0.200      332.184        0.680      866.101
01/26/2015  07:21:00        8.894        9.708        0.402        3.705        7.000        2.697       13.728       48.999        7.275        0.012        0.004       13.166        2.544        0.037      332.247        0.787      866.106
01/26/2015  07:22:00        7.684       12.321        0.215        3.395        4.057        2.974       11.528       16.461        8.846        0.012        0.002       14.520        1.811        0.016      332.476        1.167      866.110
01/26/2015  07:23:00       -3.937       -3.348        6.554        6.675        8.316        5.472       44.561       69.149       29.946        0.011        0.007        5.168        6.299        1.486      332.402        1.039      866.106
01/26/2015  07:24:00      -21.192      -16.287       -2.098        8.577        7.347        5.800       73.558       53.973       33.638        0.044        0.008       26.728        2.945        0.012      332.397        1.033      866.103
01/26/2015  07:25:00      -25.324      -14.761       -2.237        6.995        6.397        4.403       48.937       40.921       19.383        0.049        0.005       29.312        2.896        0.010      332.310        0.887      866.099
01/26/2015  07:26:00      -21.949      -10.014       -4.253        8.110        4.132        4.247       65.769       17.073       18.035        0.035        0.005       24.126        3.975        0.027      332.289        0.854      866.090
01/26/2015  07:27:00       -5.358       -8.415       -4.496        4.025        4.462        2.537       16.198       19.906        6.434        0.008        0.002        9.976        2.001        0.040      332.335        0.928      866.087
01/26/2015  07:28:00       -0.703       -1.901       -3.444        2.813        2.592        2.879        7.911        6.717        8.289        0.002        0.001        2.027        1.429        0.497      332.407        1.047      866.086
01/26/2015  07:29:00      -16.498       -7.785       -1.752       11.327        5.599        2.725      128.292       31.351        7.427        0.025        0.008       18.242        3.738        0.042      332.422        1.075      866.080
01/26/2015  07:30:00      -31.805      -19.650       -6.743       10.436        5.622        6.100      108.905       31.609       37.215        0.081        0.009       37.385        4.153        0.012      332.315        0.895      866.081
01/26/2015  07:31:00      -23.122      -22.053       -4.005       10.440        9.833        9.045      108.997       96.685       81.806        0.066        0.014       31.952        7.459        0.054      332.308        0.884      866.076
01/26/2015  07:32:00      -37.291      -20.314       -3.724       15.968        9.274        5.912      254.979       86.014       34.955        0.110        0.019       42.465        7.006        0.027      332.228        0.756      866.053
01/26/2015  07:33:00      -53.518      -24.293       -4.327       10.092       13.509       10.097      101.843      182.483      101.958        0.193        0.019       58.774        5.723        0.009      332.097        0.537      866.034
01/26/2015  07:34:00      -29.395      -17.233       -2.900       19.190       15.351       11.658      368.269      235.638      135.914        0.095        0.037       34.074        9.756        0.082      332.082        0.515      866.038
01/26/2015  07:35:00      -21.638       -3.634       -1.153       13.562       10.399        7.624      183.933      108.148       58.131        0.042        0.018       21.941        7.355        0.112      332.178        0.672      866.043
01/26/2015  07:36:00      -56.829       -0.826       -5.402       12.366        7.682        8.661      152.909       59.017       75.016        0.177        0.014       56.835        4.507        0.006      332.315        0.897      866.039
01/26/2015  07:37:00      -62.624       -3.144       -4.600       12.760       11.837        9.829      162.809      140.126       96.613        0.218        0.020       62.703        3.430        0.003      332.345        0.948      866.008
01/26/2015  07:38:00      -56.039       -4.575       -2.908       16.641       10.811        9.911      276.917      116.880       98.235        0.183        0.025       56.225        7.655        0.019      332.294        0.864      865.988
01/26/2015  07:39:00      -48.190      -14.666       -5.947       11.965       14.295        9.323      143.152      204.338       86.923        0.150        0.022       50.373        8.699        0.030      332.294        0.862      865.995
01/26/2015  07:40:00      -33.314      -19.291        3.942       14.453       19.303       11.934      208.885      372.596      142.419        0.111        0.036       38.496        7.436        0.037      332.319        0.905      866.003
01/26/2015  07:41:00      -31.785       -9.778        7.404       18.339       21.239       14.342      336.332      451.110      205.688        0.108        0.050       33.255       10.431        0.098      332.336        0.930      866.017
01/26/2015  07:42:00      -29.560      -12.187        4.089       23.757       15.833        9.577      564.387      250.681       91.726        0.097        0.045       31.974        7.278        0.052      332.403        1.043      866.045
01/26/2015  07:43:00       22.769        2.757       21.658       12.072        6.492        7.296      145.739       42.146       53.236        0.062        0.012       22.935        1.792        0.006      332.550        1.285      866.056
01/26/2015  07:44:00        6.744       11.879       11.310        7.922        6.152        6.216       62.762       37.841       38.637        0.023        0.007       13.660        3.088        0.051      332.572        1.322      866.069
01/26/2015  07:45:00      -10.896        3.821        1.039        7.793        3.651        8.500       60.736       13.328       72.249        0.014        0.007       11.546        6.370        0.304      332.592        1.354      866.058
01/26/2015  07:46:00      -32.930        1.161       -5.159        8.684       10.574        4.720       75.407      111.802       22.277        0.066        0.010       32.951        2.647        0.006      332.491        1.187      866.047
01/26/2015  07:47:00      -33.826       -3.714       -4.491        3.596        4.480        3.613       12.929       20.070       13.050        0.061        0.002       34.029        2.062        0.004      332.524        1.240      866.043
01/26/2015  07:48:00      -50.748       -4.202       -9.153       13.975        5.460        5.415      195.291       29.811       29.322        0.147        0.013       50.922        0.987        0.000      332.547        1.278      866.032
01/26/2015  07:49:00      -47.792       -6.340       -9.724        9.194        7.319        7.202       84.528       53.564       51.862        0.130        0.009       48.211        5.944        0.015      332.513        1.224      866.031
01/26/2015  07:50:00      -66.586        3.782       -4.970       16.939       14.040        7.977      286.939      197.132       63.636        0.251        0.027       66.694        5.194        0.006      332.480        1.170      866.011
01/26/2015  07:51:00      -18.930       -1.146        2.098       11.509        8.011        9.339      132.461       64.172       87.213        0.032        0.014       18.965        7.965        0.176      332.677        1.496      866.008
01/26/2015  07:52:00      -36.911       -0.303       -5.571       18.816        9.519        6.825      354.058       90.615       46.575        0.094        0.025       36.912        4.922        0.018      332.597        1.364      866.005
01/26/2015  07:53:00      -65.784      -11.365       -4.050       10.493       11.046        8.222      110.099      122.005       67.608        0.239        0.015       66.758        4.718        0.005      332.609        1.383      866.002
01/26/2015  07:54:00      -42.177        1.871       -0.772       10.851       15.630        8.561      117.748      244.289       73.296        0.111        0.022       42.218        5.410        0.016      332.640        1.434      865.990
01/26/2015  07:55:00      -23.751       -6.919       -3.605        7.279        7.702        5.172       52.991       59.328       26.753        0.038        0.007       24.738        3.427        0.019      332.729        1.581      865.986
01/26/2015  07:56:00      -32.857       -7.988       -7.010        6.604        6.425        5.782       43.616       41.285       33.427        0.066        0.006       33.814        1.867        0.003      332.728        1.579      865.989
01/26/2015  07:57:00      -23.951      -12.319       -3.565        5.109        6.553        4.735       26.107       42.936       22.422        0.041        0.005       26.934        2.173        0.007      332.739        1.599      866.000
01/26/2015  07:58:00      -26.950       -0.471       -1.905        7.353        5.494        4.931       54.060       30.179       24.312        0.042        0.005       26.954        2.708        0.010      332.720        1.567      866.009
01/26/2015  07:59:00      -33.905        7.700       -2.199       10.452        8.020        6.584      109.239       64.315       43.344        0.072        0.011       34.769        5.249        0.023      332.766        1.642      865.987
01/26/2015  08:00:00      -39.979       14.909       -5.172        8.633        8.327        6.351       74.523       69.343       40.336        0.102        0.009       42.668        4.509        0.011      332.764        1.640      865.953
01/26/2015  08:01:00      -53.762       -2.698      -10.935        8.781       12.212        8.624       77.101      149.135       74.373        0.166        0.015       53.830        4.145        0.006      332.833        1.755      865.936
01/26/2015  08:02:00      -35.220      -14.222       -3.129       14.820        9.459        5.504      219.646       89.464       30.298        0.090        0.017       37.983        5.515        0.021      332.847        1.778      865.928
01/26/2015  08:03:00      -13.627       -6.093       -0.544        8.801        8.030        4.755       77.461       64.486       22.610        0.019        0.008       14.927        3.355        0.051      332.979        1.995      865.934
01/26/2015  08:04:00      -10.508       -1.476        7.123        7.621        9.405        8.487       58.084       88.455       72.035        0.019        0.011       10.611        7.205        0.461      333.285        2.498      865.940
01/26/2015  08:05:00      -20.708       -7.053        1.118        7.338        6.316        5.363       53.847       39.889       28.757        0.030        0.006       21.877        2.925        0.018      333.028        2.075      865.957
01/26/2015  08:06:00      -13.673      -21.507       -2.122        8.405        6.829        6.562       70.640       46.629       43.065        0.041        0.008       25.485        4.805        0.036      332.987        2.007      865.966
01/26/2015  08:07:00      -11.322      -23.726        3.637        9.354        8.129        9.905       87.497       66.085       98.113        0.048        0.013       26.289        5.665        0.046      333.072        2.148      865.974
01/26/2015  08:08:00      -26.757      -35.634       -1.573       10.609        9.998       11.725      112.557       99.969      137.468        0.117        0.017       44.562        6.544        0.022      333.044        2.102      865.979
01/26/2015  08:09:00      -22.678      -17.455       -3.010        6.504        8.474        5.592       42.308       71.815       31.268        0.049        0.007       28.618        3.785        0.017      333.070        2.144      865.974
01/26/2015  08:10:00      -34.848       -4.252       -4.589        7.841        7.789        5.805       61.475       60.663       33.702        0.070        0.008       35.107        3.857        0.012      333.078        2.158      865.961
01/26/2015  08:11:00      -36.643      -21.269        0.847       12.957       15.110        8.424      167.872      228.301       70.971        0.113        0.023       42.368        8.061        0.036      333.063        2.133      865.953
01/26/2015  08:12:00      -35.836      -16.194        1.972        8.501        9.915        8.838       72.263       98.316       78.106        0.090        0.012       39.325        5.616        0.020      333.133        2.249      865.964
01/26/2015  08:13:00      -30.297      -11.198        1.037       13.944       13.774       10.897      194.444      189.735      118.737        0.077        0.025       32.301        9.924        0.094      333.269        2.473      865.958
01/26/2015  08:14:00      -28.282      -21.679       -5.814        8.069        7.542        6.130       65.111       56.880       37.576        0.073        0.008       35.635        4.296        0.015      333.176        2.319      865.944
01/26/2015  08:15:00      -42.672      -26.089       -5.840       10.891        8.155        6.096      118.615       66.509       37.157        0.138        0.011       50.015        2.574        0.003      333.206        2.368      865.898
01/26/2015  08:16:00      -54.653      -32.660       -9.739       18.247       18.335       11.008      332.941      336.165      121.173        0.247        0.040       63.668        8.047        0.016      333.189        2.340      865.852
01/26/2015  08:17:00      -48.190      -12.547       -0.140       13.119       13.332        7.819      172.096      177.739       61.133        0.145        0.021       49.797        3.071        0.004      333.158        2.288      865.819
01/26/2015  08:18:00      -42.017       -9.926       -2.002       20.032       13.388        8.618      401.273      179.239       74.268        0.126        0.033       43.174        9.955        0.053      333.250        2.438      865.815
01/26/2015  08:19:00      -42.053      -14.910       -0.612       14.320       10.773        6.621      205.063      116.062       43.836        0.118        0.018       44.618        4.958        0.012      333.316        2.550      865.828
01/26/2015  08:20:00      -39.914       -3.699        1.101       11.552       10.122        7.997      133.453      102.463       63.950        0.095        0.015       40.085        6.134        0.023      333.331        2.575      865.854
01/26/2015  08:21:00      -44.843       -5.087       -6.759        8.273       12.954        7.179       68.446      167.811       51.538        0.119        0.014       45.130        6.818        0.023      333.345        2.599      865.851
01/26/2015  08:22:00      -41.902        8.653       -6.290        8.335        7.982        6.727       69.464       63.712       45.258        0.102        0.009       42.786        6.137        0.021      333.301        2.527      865.844
01/26/2015  08:23:00      -36.685       18.118       -4.479       10.465       11.300       13.627      109.506      127.685      185.686        0.106        0.021       40.915        9.166        0.050      333.484        2.830      865.832
01/26/2015  08:24:00      -18.503        3.252       21.959       10.716       11.663       10.727      114.836      136.037      115.059        0.060        0.018       18.786        8.987        0.229      333.932        3.571      865.830
01/26/2015  08:25:00      -39.101       -4.672       -5.167       18.189       13.449       10.476      330.824      180.881      109.746        0.110        0.031       39.379        8.379        0.045      333.477        2.817      865.829
01/26/2015  08:26:00      -75.092      -48.222      -11.267       14.780       18.457       10.082      218.440      340.657      101.647        0.438        0.033       89.242        7.626        0.007      333.455        2.780      865.828
01/26/2015  08:27:00      -51.468      -31.945       -6.858       23.755       10.143        7.672      564.288      102.890       58.864        0.222        0.036       60.576        5.491        0.008      333.534        2.910      865.830
01/26/2015  08:28:00      -29.086      -20.742       -3.547        7.931        9.701        8.261       62.902       94.103       68.251        0.076        0.011       35.724        2.137        0.004      333.598        3.017      865.839
01/26/2015  08:29:00      -32.550      -11.526       -3.853       12.100       10.125       10.403      146.415      102.521      108.213        0.078        0.018       34.530        6.224        0.032      333.591        3.005      865.843
01/26/2015  08:30:00      -34.630        9.742       -4.580       13.205       10.081       11.361      174.373      101.622      129.072        0.086        0.020       35.974        6.075        0.029      333.556        2.948      865.817
01/26/2015  08:31:00      -45.193        9.373       -8.577        8.995       16.710        6.431       80.905      279.213       41.363        0.130        0.020       46.154        4.911        0.011      333.624        3.061      865.796
01/26/2015  08:32:00      -26.819      -22.988       -2.927       16.500        7.447        5.842      272.254       55.456       34.130        0.081        0.018       35.323        3.280        0.009      333.680        3.153      865.769
01/26/2015  08:33:00      -22.206       -2.189       -3.591       17.569        8.180       11.499      308.677       66.906      132.234        0.051        0.025       22.313        8.443        0.143      333.901        3.520      865.773
01/26/2015  08:34:00      -51.536       -8.032       -5.512       11.193        6.909        9.685      125.279       47.737       93.803        0.151        0.013       52.158        5.382        0.011      333.699        3.186      865.790
01/26/2015  08:35:00      -31.472      -21.325       -4.341       20.984       11.433        9.366      440.329      130.703       87.714        0.106        0.033       38.017        6.570        0.030      333.772        3.307      865.793
01/26/2015  08:36:00       -8.247      -21.603        1.362       10.312       13.232        8.902      106.330      175.096       79.239        0.045        0.018       23.124        4.374        0.036      333.815        3.376      865.784
01/26/2015  08:37:00      -13.552      -17.904       -3.321        4.685       10.189        7.323       21.948      103.825       53.627        0.035        0.009       22.454        5.514        0.060      333.826        3.397      865.779
01/26/2015  08:38:00      -37.472      -24.245       -2.228       10.990        8.825        5.723      120.783       77.879       32.748        0.111        0.012       44.632        3.030        0.005      333.865        3.460      865.763
01/26/2015  08:39:00      -33.710      -20.678       -7.728       12.610        8.028        8.879      159.000       64.450       78.841        0.096        0.015       39.546        4.017        0.010      333.868        3.466      865.759
01/26/2015  08:40:00      -60.615      -20.733       -5.093       13.534       10.342       12.692      183.182      106.964      161.093        0.229        0.023       64.063        6.172        0.009      333.886        3.496      865.771
01/26/2015  08:41:00      -31.301      -17.860       -4.757       14.898       10.362        9.646      221.956      107.366       93.049        0.087        0.021       36.038        9.245        0.066      334.001        3.687      865.793
01/26/2015  08:42:00       -4.439       -8.776       -3.570        9.468       11.923        9.405       89.636      142.148       88.463        0.021        0.016        9.835        5.271        0.287      334.243        4.088      865.811
01/26/2015  08:43:00      -18.943        3.060       -6.344       14.054        8.505        8.143      197.521       72.341       66.304        0.037        0.017       19.189        5.830        0.092      334.268        4.129      865.830
01/26/2015  08:44:00        5.584       20.550       15.690       27.144       18.820       19.960      736.789      354.190      398.382        0.109        0.074       21.295        9.479        0.198      334.569        4.628      865.836
01/26/2015  08:45:00       58.395       52.635       19.922       27.225       13.287       24.387      741.217      176.550      594.724        0.404        0.076       78.616        6.830        0.008      334.331        4.233      865.830
01/26/2015  08:46:00       57.941       37.207       -9.152       20.453       19.957       22.051      418.308      398.278      486.236        0.306        0.065       68.859        8.836        0.016      334.299        4.181      865.814
01/26/2015  08:47:00       55.601       46.851       13.516       22.287       16.806       24.084      496.691      282.434      580.062        0.341        0.068       72.708        8.644        0.014      334.263        4.120      865.796
01/26/2015  08:48:00       65.653       44.869       28.255       17.741       16.061       26.417      314.736      257.967      697.849        0.420        0.064       79.520       14.332        0.032      334.116        3.877      865.786
01/26/2015  08:49:00       48.104       44.170       36.873       26.866       17.139       21.165      721.789      293.730      447.972        0.354        0.073       65.307       12.915        0.039      334.275        4.140      865.770
01/26/2015  08:50:00       62.887       45.153        3.113       24.289       22.353       18.323      589.976      499.658      335.745        0.371        0.071       77.418        9.138        0.014      334.191        4.001      865.773
01/26/2015  08:51:00       72.612       42.470        6.593       13.483       12.852       16.269      181.789      165.172      264.690        0.387        0.031       84.120        8.192        0.009      334.130        3.898      865.776
01/26/2015  08:52:00       48.358       30.340      -13.398       15.187       16.092       11.763      230.643      258.938      138.363        0.203        0.031       57.088        5.918        0.011      334.151        3.932      865.783
01/26/2015  08:53:00       13.734        4.932        2.305       16.753       21.819       18.466      280.652      476.071      340.985        0.066        0.055       14.592       13.930        0.911      334.530        4.564      865.793
01/26/2015  08:54:00        4.691       -6.917       34.794       15.145       27.049       18.206      229.382      731.655      331.440        0.129        0.065        8.357       18.014        4.646      334.814        5.035      865.799
01/26/2015  08:55:00       -3.267        5.986       34.177       14.311       16.089       16.526      204.805      258.871      273.104        0.098        0.037        6.819       10.207        2.240      335.002        5.348      865.804
01/26/2015  08:56:00      -10.433       23.500       37.455       12.800       33.385       21.122      163.850     1114.538      446.125        0.189        0.086       25.711       23.332        0.823      334.939        5.242      865.799
01/26/2015  08:57:00        5.493       39.064       29.953       28.186       21.853       38.327      794.454      477.571     1468.928        0.260        0.137       39.448       27.395        0.482      334.837        5.073      865.783
01/26/2015  08:58:00        6.155       44.000       27.066       18.929       23.735       24.930      358.323      563.356      621.509        0.212        0.077       44.429       15.329        0.119      334.918        5.208      865.781
01/26/2015  08:59:00       32.919       42.608       23.403       36.731       22.801       28.350     1349.189      519.896      803.717        0.306        0.134       53.844       18.412        0.117      334.884        5.153      865.795
01/26/2015  09:00:00       19.013       23.058       17.761       22.758       31.773       19.244      517.913     1009.553      370.330        0.155        0.095       29.885       13.176        0.194      334.999        5.342      865.804
01/26/2015  09:01:00       16.289       17.781       30.079       20.429       19.046       17.232      417.353      362.737      296.931        0.128        0.054       24.114        9.888        0.168      335.164        5.615      865.807
01/26/2015  09:02:00       23.481       24.766       43.897       23.814       23.634       16.973      567.100      558.561      288.077        0.225        0.071       34.128       12.418        0.132      334.962        5.280      865.808
01/26/2015  09:03:00       79.792       59.055       19.673       38.055       20.060       28.055     1448.185      402.423      787.097        0.644        0.132       99.269       18.112        0.033      334.669        4.794      865.813
01/26/2015  09:04:00       48.227       19.533        7.262       24.886       22.963       22.741      619.323      527.294      517.170        0.221        0.083       52.033       14.310        0.076      334.961        5.280      865.808
01/26/2015  09:05:00       18.958       18.651       10.422       28.613       23.262       20.753      818.705      541.134      430.708        0.130        0.090       26.595        8.096        0.093      335.201        5.679      865.781
01/26/2015  09:06:00        0.020       51.144        5.034       27.243       36.784       29.436      742.170     1353.073      866.484        0.280        0.148       51.144       24.820        0.236      335.119        5.541      865.760
01/26/2015  09:07:00       -2.997       53.841        9.466       18.154       28.212       27.861      329.550      795.892      776.250        0.245        0.095       53.924       21.068        0.153      335.117        5.538      865.746
01/26/2015  09:08:00       10.043       29.190       15.315       26.048       28.560       21.107      678.491      815.673      445.519        0.156        0.097       30.869       15.714        0.259      335.305        5.851      865.755
01/26/2015  09:09:00        1.836       46.196        3.114       19.760       31.862       25.093      390.466     1015.189      629.644        0.209        0.102       46.232       20.405        0.195      335.173        5.631      865.758
01/26/2015  09:10:00       -8.827       42.042      -14.712       18.654       26.164       19.225      347.971      684.540      369.618        0.173        0.070       42.958       13.376        0.097      335.010        5.362      865.753
01/26/2015  09:11:00      -37.937       16.823       17.919       23.683       27.316       16.620      560.879      746.174      276.237        0.181        0.079       41.500       15.318        0.136      335.327        5.888      865.748
01/26/2015  09:12:00       -5.653       -6.014       42.730       17.656       24.954       13.719      311.728      622.694      188.206        0.151        0.056        8.254        8.706        1.112      335.712        6.529      865.739
01/26/2015  09:13:00       -4.812      -21.308       28.958       23.413       33.467       22.262      548.170     1120.033      495.602        0.174        0.108       21.845       16.369        0.562      335.480        6.142      865.734
01/26/2015  09:14:00       22.398       48.521       62.276       28.217       27.368       17.020      796.197      749.017      289.679        0.428        0.092       53.441       12.020        0.051      335.314        5.866      865.733
01/26/2015  09:15:00       64.053       55.701       22.510       12.077       12.447       17.282      145.860      154.928      298.672        0.416        0.030       84.884       10.439        0.015      334.801        5.013      865.724
01/26/2015  09:16:00       46.289       34.507       -2.262       18.854       12.072       15.721      355.480      145.735      247.163        0.204        0.037       57.736        9.816        0.029      334.877        5.140      865.714
01/26/2015  09:17:00       31.788        9.322        2.021       26.408       33.198       18.528      697.378     1102.140      343.272        0.162        0.107       33.127       17.025        0.264      335.166        5.619      865.702
01/26/2015  09:18:00       70.801       57.554       18.631       34.974       34.194       22.120     1223.203     1169.223      489.300        0.578        0.144       91.243        9.781        0.011      335.235        5.735      865.680
01/26/2015  09:19:00       40.407       68.708      -11.070       35.099       25.041       23.089     1231.915      627.039      533.113        0.443        0.120       79.709       16.266        0.042      335.600        6.341      865.672
01/26/2015  09:20:00       18.481       65.796       -1.573       22.718       35.787       26.638      516.089     1280.687      709.606        0.359        0.125       68.343       23.125        0.114      335.582        6.313      865.686
01/26/2015  09:21:00       19.805       23.054       17.115       22.968       22.562       25.143      527.523      509.056      632.190        0.144        0.083       30.393       18.910        0.387      335.762        6.611      865.711
01/26/2015  09:22:00       -8.798       25.948       -4.203       15.780       19.411       19.766      249.007      376.777      390.714        0.089        0.051       27.399        8.350        0.093      335.496        6.168      865.718
01/26/2015  09:23:00      -15.203       44.990       10.526       27.558       23.168       29.840      759.470      536.759      890.410        0.228        0.109       47.489       22.206        0.219      335.532        6.230      865.712
01/26/2015  09:24:00       29.003       42.652      -18.385       14.194       18.696       19.571      201.475      349.546      383.016        0.197        0.047       51.579       12.428        0.058      335.258        5.773      865.694
01/26/2015  09:25:00       20.715       37.517       -7.498       20.094       39.163       25.725      403.783     1533.719      661.778        0.225        0.130       42.856       25.979        0.367      335.498        6.172      865.670
01/26/2015  09:26:00       28.853       14.200       21.534       30.766       30.625       28.977      946.554      937.877      839.684        0.211        0.136       32.158       27.122        0.711      335.578        6.306      865.643
01/26/2015  09:27:00       56.229       24.146        7.238       36.837       56.936       20.221     1356.960     3241.735      408.903        0.440        0.250       61.195       15.703        0.066      335.468        6.123      865.624
01/26/2015  09:28:00       35.387       70.024       -4.131       37.274       29.240       24.874     1389.341      854.960      618.735        0.452        0.143       78.457       17.609        0.050      335.590        6.325      865.632
01/26/2015  09:29:00       41.697       48.426       16.833       35.912       27.191       28.658     1289.702      739.337      821.287        0.361        0.143       63.904       23.611        0.137      335.876        6.802      865.646
01/26/2015  09:30:00       68.922       50.112        4.421       36.274       27.301       28.818     1315.788      745.371      830.480        0.509        0.145       85.214       12.930        0.023      335.790        6.658      865.637
01/26/2015  09:31:00       31.747       65.017       13.582       33.679       42.937       33.792     1134.254     1843.616     1141.911        0.477        0.206       72.354       31.832        0.194      335.904        6.848      865.611
01/26/2015  09:32:00        5.822       39.416       13.765       20.503       18.517       19.979      420.375      342.887      399.173        0.147        0.058       39.844       12.117        0.092      335.801        6.676      865.582
01/26/2015  09:33:00       32.503       40.491        1.167       42.378       19.726       24.642     1795.925      389.135      607.252        0.274        0.140       51.923       12.304        0.056      335.748        6.588      865.551
01/26/2015  09:34:00       56.169       44.635       -3.641       29.157       28.432       25.865      850.113      808.367      669.022        0.374        0.116       71.744       19.499        0.074      335.603        6.346      865.527
01/26/2015  09:35:00       36.324       67.907      -15.138       18.795       26.340       18.573      353.238      693.819      344.938        0.378        0.070       77.012        7.699        0.010      335.650        6.425      865.526
01/26/2015  09:36:00       53.874       22.220        2.616       12.225       17.982       19.264      149.453      323.348      371.084        0.212        0.042       58.276        9.765        0.028      335.586        6.318      865.530
01/26/2015  09:37:00       19.522        9.390       11.085       21.198       38.254       23.162      449.355     1463.377      536.498        0.152        0.122       21.663       20.475        0.893      335.924        6.881      865.543
01/26/2015  09:38:00        3.461       63.898       78.352       28.120       34.681       18.146      790.709     1202.789      329.271        0.628        0.116       63.992       14.096        0.049      335.998        7.005      865.546
01/26/2015  09:39:00       12.123       67.628       76.403       27.558       36.721       26.870      759.449     1348.444      721.991        0.669        0.141       68.706       24.237        0.124      336.007        7.020      865.536
01/26/2015  09:40:00       86.805       73.867       53.433       69.998       33.086       45.417     4899.672     1094.690     2062.677        1.195        0.403      113.980       41.270        0.131      335.819        6.706      865.524
01/26/2015  09:41:00       91.284       58.172       43.075       63.507       37.287       44.223     4033.088     1390.288     1955.664        1.047        0.369      108.244       44.249        0.167      335.871        6.793      865.511
01/26/2015  09:42:00       42.806       61.061       61.395       47.907       42.420       36.876     2295.114     1799.489     1359.862        0.739        0.273       74.571       30.767        0.170      336.106        7.186      865.506
01/26/2015  09:43:00       68.840       74.046       55.374       52.369       31.936       49.795     2742.512     1019.920     2479.527        0.976        0.312      101.103       41.839        0.171      335.908        6.855      865.504
01/26/2015  09:44:00       17.715       51.484       56.684       44.666       50.244       46.976     1995.043     2524.446     2206.741        0.645        0.336       54.446       40.624        0.557      336.264        7.449      865.527
01/26/2015  09:45:00       55.006       64.072       72.674       71.823       39.677       43.380     5158.553     1574.262     1881.835        1.051        0.431       84.445       45.150        0.286      336.008        7.022      865.542
01/26/2015  09:46:00       61.086       52.879       38.425       48.821       34.517       31.955     2383.521     1191.443     1021.148        0.630        0.230       80.794       24.526        0.092      335.979        6.974      865.557
01/26/2015  09:47:00      100.505      114.470       79.927       48.811       41.188       34.893     2382.535     1696.466     1217.525        1.744        0.265      152.331       28.927        0.036      335.746        6.585      865.548
01/26/2015  09:48:00      123.775       92.363       64.101       48.619       41.670       47.527     2363.821     1736.424     2258.841        1.716        0.318      154.439       38.004        0.061      335.684        6.482      865.541
01/26/2015  09:49:00       49.827       94.182       72.288       35.499       37.843       37.727     1260.158     1432.060     1423.326        1.035        0.206      106.551       27.730        0.068      336.020        7.041      865.549
01/26/2015  09:50:00       25.525       65.203       81.045       39.613       35.931       23.271     1569.193     1291.012      541.525        0.744        0.170       70.022       22.897        0.107      336.149        7.256      865.552
01/26/2015  09:51:00       52.654      109.230       90.865       48.657       51.775       44.915     2367.506     2680.615     2017.376        1.501        0.353      121.259       32.990        0.074      335.993        6.997      865.541
01/26/2015  09:52:00       90.274       97.396       72.454       60.071       42.130       51.504     3608.477     1774.899     2652.660        1.546        0.402      132.798       37.042        0.078      335.798        6.670      865.535
01/26/2015  09:53:00       73.830       99.493       77.184       62.290       48.272       41.205     3879.988     2330.218     1697.872        1.461        0.395      123.894       39.365        0.101      335.923        6.880      865.541
01/26/2015  09:54:00       31.063       57.817       77.047       40.925       51.400       34.917     1674.819     2641.971     1219.222        0.789        0.277       65.633       31.299        0.227      336.090        7.158      865.552
01/26/2015  09:55:00       32.119       64.914      101.679       41.945       50.093       28.021     1759.380     2509.306      785.166        1.032        0.253       72.426       29.748        0.169      336.013        7.029      865.561
01/26/2015  09:56:00       60.476       95.048       63.491       64.790       45.655       55.610     4197.684     2084.419     3092.498        1.305        0.469      112.656       52.008        0.213      336.130        7.225      865.552
01/26/2015  09:57:00      100.637       69.414       19.148       31.455       35.533       31.129      989.433     1262.577      969.013        0.927        0.161      122.255       19.463        0.025      336.145        7.250      865.557
01/26/2015  09:58:00       45.469       87.285       88.983       48.023       49.848       41.593     2306.229     2484.836     1730.000        1.206        0.326       98.418       33.363        0.115      336.219        7.374      865.558
01/26/2015  09:59:00       42.044       34.821       77.617       48.288       77.363       50.407     2331.686     5984.963     2540.828        0.993        0.543       54.591       57.925        1.126      336.011        7.026      865.558
01/26/2015  10:00:00       55.917       47.444       47.539       54.418       49.051       37.970     2961.358     2406.047     1441.685        0.722        0.340       73.333       31.214        0.181      336.319        7.541      865.554
01/26/2015  10:01:00       89.221       72.590       31.948       45.759       41.896       33.771     2093.846     1755.284     1140.472        0.962        0.249      115.021       20.667        0.032      336.209        7.357      865.542
01/26/2015  10:02:00       77.250      107.725       85.349       65.361       54.082       49.570     4272.021     2924.916     2457.162        1.725        0.483      132.560       44.254        0.111      336.179        7.306      865.522
01/26/2015  10:03:00       75.986      100.324       71.534       71.866       45.267       44.569     5164.718     2049.116     1986.414        1.508        0.460      125.852       34.595        0.076      336.056        7.101      865.516
01/26/2015  10:04:00       72.881      118.044      103.304       61.496       44.700       38.801     3781.742     1998.075     1505.549        1.860        0.364      138.730       33.553        0.058      336.061        7.110      865.502
01/26/2015  10:05:00       11.907       23.936       65.218       37.218       73.829       60.495     1385.207     5450.749     3659.595        0.773        0.525       26.734       63.234        5.595      336.240        7.408      865.511
01/26/2015  10:06:00       51.485      -18.322        6.538       32.592       50.338       27.048     1062.220     2533.907      731.592        0.368        0.216       54.648       23.987        0.193      336.385        7.651      865.504
01/26/2015  10:07:00       47.209       39.946       19.739       43.380       44.600       51.353     1881.817     1989.170     2637.143        0.536        0.325       61.842       28.538        0.213      336.640        8.078      865.511
01/26/2015  10:08:00       13.568       45.975       79.125       35.254       46.245       27.680     1242.841     2138.588      766.161        0.635        0.207       47.935       20.037        0.175      336.691        8.163      865.508
01/26/2015  10:09:00       87.494      -97.598       -3.134       55.842       66.993       34.532     3118.339     4488.098     1192.487        1.299        0.440      131.074       39.501        0.091      336.215        7.368      865.514
01/26/2015  10:10:00       60.629       15.122       49.920       50.031       71.292       29.359     2503.074     5082.513      861.964        0.742        0.422       62.486       37.503        0.360      336.228        7.389      865.513
01/26/2015  10:11:00       11.014       23.565       46.447       39.411       48.345       37.736     1553.196     2337.207     1423.979        0.407        0.266       26.012       31.969        1.510      336.769        8.293      865.500
01/26/2015  10:12:00       60.702       92.692       84.776       47.839       30.000       38.057     2288.525      900.015     1448.355        1.205        0.232      110.799       28.509        0.066      336.429        7.725      865.479
01/26/2015  10:13:00       26.102       35.977       30.877       43.743       28.302       31.822     1913.466      800.982     1012.635        0.333        0.186       44.448       24.712        0.309      336.504        7.850      865.476
01/26/2015  10:14:00       34.214       48.123       55.760       25.983       29.008       24.078      675.134      841.475      579.752        0.435        0.105       59.046       15.034        0.065      336.517        7.872      865.479
01/26/2015  10:15:00       40.788       53.349       18.649       33.177       22.864       33.560     1100.704      522.744     1126.263        0.380        0.137       67.155       26.350        0.154      336.435        7.735      865.472
01/26/2015  10:16:00       -4.203       50.231       75.849       17.277       33.923       34.142      298.500     1150.791     1165.661        0.545        0.131       50.407       26.100        0.268      336.855        8.438      865.468
01/26/2015  10:17:00       53.425       67.292       70.720       34.303       53.097       29.657     1176.703     2819.340      879.540        0.863        0.244       85.921       28.492        0.110      336.518        7.874      865.456
01/26/2015  10:18:00        6.789      -20.911       33.270       21.522       26.921       19.332      463.188      724.738      373.734        0.158        0.078       21.986       14.563        0.439      337.118        8.877      865.441
01/26/2015  10:19:00        4.574      -50.764        0.679       37.394       37.152       23.641     1398.279     1380.307      558.885        0.297        0.167       50.970       17.928        0.124      336.514        7.866      865.420
01/26/2015  10:20:00       15.547       22.818       43.311       35.533       18.301       14.465     1262.628      334.918      209.237        0.222        0.090       27.611       16.996        0.379      337.001        8.682      865.397
01/26/2015  10:21:00        4.922       29.042       20.591       40.574       18.769       27.587     1646.245      352.294      761.024        0.203        0.138       29.456       24.979        0.719      336.842        8.417      865.379
01/26/2015  10:22:00       11.862       66.671       11.473       56.829       40.976       33.967     3229.519     1679.062     1153.768        0.539        0.303       67.718       28.294        0.175      336.915        8.536      865.356
01/26/2015  10:23:00       55.272       76.139        2.672       66.230       51.066       35.473     4386.474     2607.693     1258.326        0.855        0.413       94.085       19.968        0.045      336.873        8.469      865.339
01/26/2015  10:24:00       74.236       81.343       -9.560       33.456       28.385       29.023     1119.316      805.705      842.357        0.749        0.138      110.125       13.107        0.014      336.768        8.290      865.327
01/26/2015  10:25:00       34.833       45.604       55.382       32.659       27.171       27.114     1066.602      738.247      735.169        0.445        0.127       57.385       10.505        0.034      337.064        8.786      865.333
01/26/2015  10:26:00       10.574       23.795       41.904       30.692       20.677       36.362      941.998      427.553     1322.182        0.256        0.135       26.038       30.404        1.363      337.348        9.261      865.334
01/26/2015  10:27:00       -0.604       56.873       76.292       24.015       35.330       29.558      576.699     1248.208      873.646        0.588        0.135       56.876       24.866        0.191      337.457        9.444      865.334
01/26/2015  10:28:00       25.393      -22.949       34.117       30.350       42.368       26.075      921.127     1795.010      679.904        0.287        0.170       34.227       25.774        0.567      337.294        9.172      865.338
01/26/2015  10:29:00      -13.526       35.890       48.897       14.479       29.746       19.074      209.637      884.851      363.835        0.266        0.073       38.355       12.983        0.115      337.687        9.829      865.335
01/26/2015  10:30:00      -11.566       21.255       38.714       21.444       47.925       27.317      459.854     2296.853      746.202        0.279        0.175       24.198       14.342        0.351      337.643        9.756      865.335
01/26/2015  10:31:00       23.775       58.580       48.632       30.556       29.877       30.440      933.664      892.607      926.615        0.456        0.138       63.221       14.698        0.054      337.183        8.985      865.337
01/26/2015  10:32:00       51.228       64.198        4.310       35.298       27.141       30.069     1245.943      736.661      904.124        0.483        0.144       82.132       16.452        0.040      337.266        9.124      865.335
01/26/2015  10:33:00       61.563       72.623       26.980       42.184       31.172       39.038     1779.454      971.707     1523.972        0.703        0.214       95.206       22.365        0.055      337.151        8.933      865.318
01/26/2015  10:34:00       46.479       77.050        1.381       41.229       35.284       31.285     1699.870     1244.943      978.726        0.601        0.196       89.983       20.590        0.052      337.293        9.170      865.293
01/26/2015  10:35:00       33.111      103.899      -19.094       22.384       39.241       19.722      501.026     1539.819      388.948        0.734        0.121      109.048       15.535        0.020      337.274        9.138      865.261
01/26/2015  10:36:00       45.334       59.202       26.976       44.340       31.214       38.124     1966.065      974.306     1453.452        0.534        0.220       74.566       27.720        0.138      337.447        9.428      865.233
01/26/2015  10:37:00       16.929       57.632       68.442       49.791       39.200       32.702     2479.180     1536.674     1069.407        0.669        0.254       60.066       26.331        0.192      337.768        9.965      865.208
01/26/2015  10:38:00       58.258       69.885        7.778       47.200       28.436       40.263     2227.821      808.599     1621.131        0.650        0.233       90.983       31.376        0.119      337.062        8.783      865.199
01/26/2015  10:39:00       30.706       84.763       -2.465       32.981       52.882       32.378     1087.778     2796.482     1048.316        0.653        0.247       90.154       28.591        0.101      337.416        9.376      865.187
01/26/2015  10:40:00       97.674       77.186        2.216       45.088       35.145       37.928     2032.939     1235.180     1438.522        1.010        0.235      124.491        8.819        0.005      337.089        8.828      865.176
01/26/2015  10:41:00       50.066       32.199        8.241       32.645       19.246       22.162     1065.703      370.406      491.158        0.277        0.096       59.526       10.349        0.030      337.231        9.064      865.159
01/26/2015  10:42:00       20.383       17.052       -3.437       19.035       30.910       21.288      362.335      955.448      453.190        0.124        0.089       26.575        5.798        0.048      337.439        9.414      865.133
01/26/2015  10:43:00        2.325        5.089       22.422       16.264       14.025       16.742      264.525      196.687      280.302        0.064        0.037        5.595       10.299        3.389      338.056       10.448      865.108
01/26/2015  10:44:00       -2.001       30.512       13.019       26.917       15.997       20.260      724.503      255.901      410.477        0.125        0.070       30.578       18.561        0.368      337.662        9.788      865.090
01/26/2015  10:45:00       53.974       58.153        2.287       26.966       32.339       19.033      727.155     1045.842      362.272        0.422        0.107       79.341       15.303        0.037      337.322        9.218      865.061
01/26/2015  10:46:00       84.245       64.180       -7.297       36.255       29.813       27.226     1314.413      888.822      741.282        0.711        0.147      105.907       11.297        0.011      337.448        9.430      865.049
01/26/2015  10:47:00       64.598       63.660        7.773       40.536       30.213       38.783     1643.168      912.834     1504.094        0.617        0.203       90.695       23.611        0.068      337.559        9.614      865.033
01/26/2015  10:48:00       73.806       79.197        1.196       37.017       25.563       21.241     1370.268      653.478      451.172        0.710        0.124      108.257       12.275        0.013      337.458        9.446      865.036
01/26/2015  10:49:00        2.647       26.964        4.406       28.664       42.989       21.879      821.598     1848.051      478.678        0.195        0.157       27.093       21.053        0.604      338.078       10.485      865.037
01/26/2015  10:50:00       88.315       64.192       22.043       42.924       31.679       31.233     1842.461     1003.548      975.527        0.811        0.191      109.179       17.066        0.024      337.986       10.331      865.023
01/26/2015  10:51:00       43.222       75.796        7.704       37.401       28.263       30.330     1398.799      798.776      919.936        0.539        0.156       87.253       18.133        0.043      337.913       10.209      865.010
01/26/2015  10:52:00       88.293       64.260        5.999       29.427       30.070       30.823      865.949      904.190      950.088        0.734        0.136      109.201       14.415        0.017      337.543        9.589      864.992
01/26/2015  10:53:00       60.742       75.169        2.015       38.221       33.713       29.150     1460.823     1136.567      849.730        0.640        0.172       96.644       26.733        0.077      337.742        9.922      864.982
01/26/2015  10:54:00       19.196       63.324        8.283       25.006       31.363       31.755      625.288      983.630     1008.385        0.353        0.131       66.170       20.158        0.093      337.880       10.153      864.976
01/26/2015  10:55:00       62.140       81.184        8.109       45.266       34.140       42.765     2048.997     1165.536     1828.870        0.778        0.252      102.236       24.401        0.057      337.711        9.868      864.972
01/26/2015  10:56:00       52.451       53.094       60.981       37.912       40.280       37.063     1437.310     1622.497     1373.675        0.686        0.222       74.633       13.725        0.034      338.064       10.460      864.972
01/26/2015  10:57:00        8.765       67.402       88.875       28.385       39.577       22.446      805.691     1566.341      503.828        0.770        0.144       67.970       19.182        0.080      338.089       10.505      864.976
01/26/2015  10:58:00       49.703       65.216       49.337       40.185       37.660       37.491     1614.827     1418.281     1405.609        0.680        0.222       81.997       19.232        0.055      337.856       10.112      864.964
01/26/2015  10:59:00       54.885       49.335       16.831       55.613       35.870       44.143     3092.844     1286.645     1948.621        0.603        0.316       73.799       18.877        0.065      337.864       10.126      864.953
01/26/2015  11:00:00      104.510       73.200        9.749       31.461       37.733       31.499      989.773     1423.751      992.206        0.989        0.170      127.596       13.543        0.011      337.596        9.677      864.931
01/26/2015  11:01:00      127.847       79.288       18.996       41.830       34.079       35.628     1749.753     1161.402     1269.341        1.359        0.209      150.438       13.834        0.008      337.486        9.492      864.912
01/26/2015  11:02:00       48.872       44.291       44.168       42.499       31.118       33.645     1806.186      968.311     1132.010        0.510        0.195       65.956       18.826        0.081      337.932       10.240      864.881
01/26/2015  11:03:00       78.678       60.921       22.984       46.261       48.066       38.567     2140.118     2310.388     1487.399        0.818        0.297       99.507       29.989        0.091      337.762        9.955      864.854
01/26/2015  11:04:00       83.772       50.188       20.816       56.397       31.861       30.363     3180.634     1015.113      921.942        0.754        0.256       97.656       16.879        0.030      337.652        9.771      864.824
01/26/2015  11:05:00       37.974       83.415       76.137       36.627       36.781       25.445     1341.548     1352.842      647.451        0.877        0.167       91.652       22.767        0.062      337.682        9.820      864.804
01/26/2015  11:06:00       47.822       54.795       47.886       38.212       27.311       23.372     1460.163      745.876      546.253        0.517        0.138       72.728       17.643        0.059      337.600        9.684      864.788
01/26/2015  11:07:00       79.760       82.276       51.151       34.799       28.433       29.617     1210.997      808.460      877.153        0.932        0.145      114.590       14.755        0.017      337.707        9.864      864.780
01/26/2015  11:08:00       73.619       78.112       39.850       29.811       23.903       35.760      888.686      571.375     1278.750        0.792        0.137      107.337        8.084        0.006      337.615        9.708      864.770
01/26/2015  11:09:00       15.602       55.043       71.318       29.139       28.509       23.902      849.062      812.754      571.296        0.530        0.112       57.211        7.528        0.017      337.801       10.021      864.764
01/26/2015  11:10:00       28.154       61.470       62.837       29.676       29.530       18.965      880.672      872.025      359.689        0.532        0.106       67.610       20.903        0.096      337.762        9.956      864.741
01/26/2015  11:11:00       67.776       35.155       27.405       50.004       31.934       33.125     2500.449     1019.756     1097.236        0.560        0.231       76.350       29.559        0.150      337.747        9.931      864.693
01/26/2015  11:12:00       34.291       47.544       50.994       40.935       40.803       35.113     1675.634     1664.901     1232.918        0.530        0.229       58.619       30.329        0.268      337.728        9.898      864.675
01/26/2015  11:13:00       45.197       55.417       49.122       28.404       20.492       22.367      806.804      419.939      500.281        0.463        0.086       71.511       18.730        0.069      337.640        9.751      864.675
01/26/2015  11:14:00       48.819       51.112       32.697       20.969       17.785       22.622      439.700      316.320      511.773        0.367        0.063       70.680       10.307        0.021      337.640        9.751      864.684
01/26/2015  11:15:00       32.600       49.263       23.470       31.435       24.331       18.981      988.146      592.015      360.288        0.299        0.097       59.073       12.507        0.045      337.716        9.878      864.685
01/26/2015  11:16:00       31.636       28.506        9.058       28.117       25.354       23.305      790.550      642.834      543.113        0.194        0.099       42.584       20.138        0.224      337.781        9.987      864.688
01/26/2015  11:17:00       62.739       38.685       12.722       22.603       18.009       16.674      510.910      324.332      278.036        0.335        0.056       73.707        9.078        0.015      337.686        9.828      864.678
01/26/2015  11:18:00       27.892       34.262        2.656       26.371       33.706       24.463      695.423     1136.070      598.419        0.219        0.121       44.180       21.296        0.232      337.840       10.086      864.665
01/26/2015  11:19:00       -9.838       31.247        7.684       17.437       36.114       15.186      304.065     1304.230      230.618        0.149        0.092       32.759       18.691        0.326      338.084       10.495      864.645
01/26/2015  11:20:00       -1.078       -5.796       44.421       23.383       48.681       25.673      546.743     2369.829      659.128        0.279        0.179        5.896       28.418       23.236      338.184       10.664      864.621
01/26/2015  11:21:00       59.897       54.669       25.889       41.066       26.139       32.915     1686.391      683.257     1083.373        0.535        0.173       81.095       25.179        0.096      337.852       10.105      864.600
01/26/2015  11:22:00      -12.184       43.760       74.823       17.575       33.839       19.506      308.897     1145.053      380.483        0.475        0.092       45.425       19.124        0.177      338.154       10.612      864.579
01/26/2015  11:23:00       31.134       50.149       49.427       24.443       16.102       14.038      597.450      259.281      197.073        0.349        0.053       59.027        6.677        0.013      337.897       10.181      864.583
01/26/2015  11:24:00       30.033       29.229       16.920       17.706       23.212       16.276      313.515      538.797      264.911        0.158        0.056       41.908       13.002        0.096      337.732        9.905      864.580
01/26/2015  11:25:00        3.820       25.766       31.312       22.462       37.775       18.041      504.552     1426.961      325.481        0.196        0.113       26.048       21.155        0.660      337.925       10.229      864.568
01/26/2015  11:26:00      -20.169       35.113       34.498       21.972       21.827       16.613      482.775      476.409      275.975        0.203        0.062       40.494        6.264        0.024      338.025       10.398      864.556
01/26/2015  11:27:00      -44.249       -5.223        6.037       20.719       23.428       15.133      429.287      548.861      229.022        0.161        0.060       44.557       12.992        0.085      337.952       10.274      864.538
01/26/2015  11:28:00      -40.848       11.084       -7.489       13.945       12.420       11.405      194.450      154.255      130.082        0.116        0.024       42.325        6.978        0.027      337.850       10.102      864.510
01/26/2015  11:29:00      -27.614       -3.333        1.719       18.085       11.976       14.331      327.051      143.433      205.391        0.073        0.034       27.814       15.172        0.298      338.074       10.479      864.469
01/26/2015  11:30:00       15.342       20.070       20.529       30.374       17.353       21.985      922.572      301.119      483.354        0.138        0.085       25.262       21.076        0.696      338.296       10.850      864.415
01/26/2015  11:31:00       42.390       38.416        8.539       26.712       22.244       22.527      713.555      494.816      507.464        0.253        0.086       57.207       14.081        0.061      338.021       10.389      864.358
01/26/2015  11:32:00       27.129       45.076       -1.933       37.558       20.953       25.029     1410.598      439.036      626.476        0.262        0.124       52.610       15.350        0.085      338.019       10.386      864.305
01/26/2015  11:33:00       29.458       42.143        0.226       24.848       29.078       23.044      617.441      845.514      531.034        0.232        0.100       51.418       18.092        0.124      338.046       10.432      864.277
01/26/2015  11:34:00        9.868       65.576       -8.256       17.766       25.336       17.980      315.618      641.932      323.298        0.287        0.064       66.315       11.508        0.030      338.146       10.600      864.262
01/26/2015  11:35:00       38.318       41.809        0.586       30.419       21.274       21.237      925.290      452.562      450.996        0.252        0.091       56.712       13.090        0.053      338.302       10.861      864.256
01/26/2015  11:36:00       58.620       42.685       11.115       38.098       26.121       28.129     1451.449      682.299      791.256        0.415        0.146       72.514       14.477        0.040      338.241       10.758      864.253
01/26/2015  11:37:00       45.037       30.968       -5.783       46.486       28.146       24.285     2160.928      792.190      589.743        0.328        0.177       54.657       23.339        0.182      338.257       10.786      864.230
01/26/2015  11:38:00       58.682       59.201        9.068       23.624       19.451       22.788      558.071      378.341      519.290        0.424        0.073       83.356        8.345        0.010      338.243       10.761      864.197
01/26/2015  11:39:00       20.997       25.607       38.133       32.615       29.275       22.453     1063.760      857.008      504.115        0.249        0.121       33.115       18.581        0.315      338.660       11.462      864.162
01/26/2015  11:40:00      103.754       64.472       32.594       72.501       41.887       40.622     5256.452     1754.545     1650.177        1.232        0.433      122.154       40.535        0.110      338.470       11.142      864.127
01/26/2015  11:41:00      106.951       83.813       28.963       33.174       28.918       34.708     1100.532      836.253     1204.670        1.122        0.157      135.879       20.785        0.023      338.146       10.600      864.111
01/26/2015  11:42:00       54.482       46.086       76.325       42.343       56.163       34.803     1792.910     3154.297     1211.218        0.854        0.308       71.360       29.719        0.173      338.492       11.181      864.113
01/26/2015  11:43:00       24.437       19.158       -4.645       46.874       48.768       26.833     2197.145     2378.278      720.027        0.314        0.265       31.052       25.078        0.652      338.113       10.543      864.113
01/26/2015  11:44:00       51.615       50.331       46.262       55.495       50.153       50.743     3079.652     2515.363     2574.901        0.775        0.408       72.092       50.100        0.483      338.190       10.674      864.094
01/26/2015  11:45:00       35.361       19.363       20.218       16.781       21.730       23.466      281.594      472.207      550.654        0.167        0.065       40.315       11.204        0.077      338.230       10.741      864.079
01/26/2015  11:46:00       28.880       71.435        9.646       27.477       36.635       20.430      755.005     1342.154      417.377        0.427        0.126       77.052       12.715        0.027      338.427       11.071      864.053
01/26/2015  11:47:00       21.941       79.563       -1.549       32.344       34.881       26.944     1046.103     1216.694      726.002        0.490        0.149       82.532       19.868        0.058      338.375       10.984      864.028
01/26/2015  11:48:00       11.893       63.556        4.709       34.846       32.906       29.175     1214.220     1082.800      851.157        0.368        0.157       64.659       22.146        0.117      338.448       11.106      863.983
01/26/2015  11:49:00       42.164       56.533       -8.644       22.866       28.460       24.196      522.855      809.962      585.450        0.348        0.096       70.525       18.175        0.066      338.487       11.171      863.936
01/26/2015  11:50:00       85.856       57.831       -6.810       36.494       26.115       22.592     1331.815      681.994      510.382        0.664        0.126      103.517       10.610        0.011      338.669       11.478      863.908
01/26/2015  11:51:00       95.750       73.488        2.340       30.694       24.413       34.800      942.134      596.011     1211.052        0.866        0.137      120.700       12.410        0.011      338.479       11.158      863.886
01/26/2015  11:52:00       63.526       40.962       35.182       55.045       49.918       38.468     3029.936     2491.763     1479.814        0.698        0.350       75.587       36.476        0.233      338.665       11.471      863.873
01/26/2015  11:53:00       12.238       -5.100       28.671       27.129       50.256       36.144      736.007     2525.711     1306.405        0.278        0.228       13.258       40.385        9.278      338.778       11.661      863.847
01/26/2015  11:54:00       81.104       37.617       16.128       55.639       39.250       39.843     3095.695     1540.593     1587.477        0.724        0.311       89.403       28.349        0.101      338.670       11.479      863.816
01/26/2015  11:55:00       54.485       63.764        1.481       29.733       29.060       27.961      884.026      844.495      781.825        0.477        0.126       83.872       15.630        0.035      338.720       11.563      863.781
01/26/2015  11:56:00       27.565       28.147       16.949       25.587       28.668       30.956      654.709      821.829      958.278        0.214        0.122       39.396       26.641        0.457      338.771       11.651      863.735
01/26/2015  11:57:00       27.410       47.853        1.465       27.828       34.365       24.298      774.420     1180.942      590.389        0.279        0.127       55.147       17.531        0.101      338.689       11.512      863.699
01/26/2015  11:58:00        2.834       75.061       -0.105       30.619       42.296       27.031      937.517     1788.979      730.692        0.455        0.173       75.115       19.838        0.070      338.808       11.711      863.683
01/26/2015  11:59:00       70.233       63.861       -6.027       28.156       30.134       20.252      792.780      908.049      410.162        0.558        0.106       94.926       14.549        0.023      338.696       11.522      863.677
01/26/2015  12:00:00       65.806       61.686      -13.558       32.733       21.085       34.394     1071.430      444.586     1182.974        0.551        0.135       90.197       22.948        0.065      338.498       11.190      863.669
01/26/2015  12:01:00       79.272       33.687        2.890       23.338       45.605       30.303      544.651     2079.832      918.291        0.548        0.177       86.133       31.115        0.130      338.600       11.363      863.665
01/26/2015  12:02:00       44.989       56.483       37.159       31.874       27.037       32.617     1015.928      730.975     1063.898        0.470        0.141       72.210       23.304        0.104      339.103       12.208      863.645
01/26/2015  12:03:00      -21.377       65.149        5.902       29.128       42.081       26.585      848.425     1770.785      706.740        0.403        0.166       68.567       26.595        0.150      339.136       12.263      863.637
01/26/2015  12:04:00       -8.691       35.085       11.075       16.616       32.177       26.114      276.092     1035.348      681.942        0.171        0.100       36.146       18.446        0.260      339.266       12.482      863.627
01/26/2015  12:05:00      -68.499       23.967       -7.932       36.361       24.135       26.603     1322.140      582.502      707.704        0.397        0.131       72.571       15.768        0.047      338.858       11.796      863.597
01/26/2015  12:06:00      -31.244       53.687        0.211       22.554       42.995       19.247      508.698     1848.558      370.453        0.329        0.136       62.117       14.407        0.054      339.192       12.357      863.575
01/26/2015  12:07:00      -64.928       35.274      -10.682       21.246       20.238       18.640      451.385      409.578      347.441        0.339        0.060       73.891       14.432        0.038      338.788       11.678      863.542
01/26/2015  12:08:00      -41.635       46.352       -4.309       28.504       29.275       23.605      812.458      857.031      557.196        0.306        0.111       62.306       20.818        0.112      339.184       12.344      863.520
01/26/2015  12:09:00      -45.125       14.149      -11.286       24.708       22.563       14.045      610.483      509.094      197.258        0.184        0.066       47.291        4.299        0.008      339.046       12.113      863.506
01/26/2015  12:10:00      -15.372      -61.034        8.769       20.689       27.331       15.621      428.018      746.962      244.006        0.273        0.071       62.940       10.361        0.027      338.890       11.849      863.498
01/26/2015  12:11:00      -19.154      -12.092        0.422       23.957       26.459       15.237      573.919      700.081      232.162        0.101        0.075       22.652       13.161        0.338      339.004       12.040      863.491
01/26/2015  12:12:00       12.916       22.979       27.423       31.469       24.285       28.567      990.287      589.760      816.101        0.192        0.120       26.360       24.210        0.844      339.694       13.203      863.466
01/26/2015  12:13:00       20.784       42.519       36.987       24.725       29.354       26.029      611.336      861.650      677.523        0.288        0.108       47.327       19.181        0.164      339.387       12.685      863.444
01/26/2015  12:14:00       37.353       23.093       31.336       39.224       63.934       24.681     1538.514     4087.504      609.154        0.457        0.312       43.915       17.762        0.164      339.500       12.877      863.427
01/26/2015  12:15:00       10.194       31.654       52.472       44.313       35.975       39.078     1963.662     1294.211     1527.090        0.432        0.239       33.255       30.150        0.822      339.465       12.818      863.415
01/26/2015  12:16:00       51.730       20.744       26.950       41.858       27.200       31.153     1752.104      739.852      970.508        0.365        0.173       55.735       17.720        0.101      339.180       12.338      863.398
01/26/2015  12:17:00       28.841       30.791      -10.118       32.949       28.537       21.983     1085.610      814.372      483.238        0.213        0.119       42.189       17.242        0.167      339.246       12.450      863.389
01/26/2015  12:18:00       -5.758        0.687       10.077       48.657       35.518       19.486     2367.499     1261.556      379.712        0.207        0.200        5.799       20.654       12.687      339.410       12.724      863.382
01/26/2015  12:19:00      -13.721       -5.924        6.601       29.528       17.096       19.824      871.890      292.281      392.996        0.091        0.078       14.946        8.024        0.288      339.576       13.004      863.362
01/26/2015  12:20:00       46.793      -33.844        9.676       55.878       41.747       23.924     3122.350     1742.807      572.375        0.443        0.272       57.750       29.354        0.258      339.533       12.932      863.329
01/26/2015  12:21:00       35.382      -23.133       21.378       47.008       54.597       37.118     2209.706     2980.868     1377.782        0.441        0.328       42.273       35.610        0.710      339.565       12.986      863.297
01/26/2015  12:22:00       13.314      -76.230       12.324       47.758       50.319       34.722     2280.816     2531.955     1205.638        0.608        0.301       77.384       33.284        0.185      339.351       12.625      863.282
01/26/2015  12:23:00       62.147      -16.636       26.664       36.334       91.614       46.975     1320.153     8393.036     2206.654        0.838        0.596       64.335       58.553        0.828      339.411       12.727      863.276
01/26/2015  12:24:00       10.102        5.696       45.334       29.009       53.987       30.375      841.533     2914.559      922.646        0.343        0.234       11.597       30.814        7.060      339.632       13.097      863.281
01/26/2015  12:25:00       26.902      -15.029       30.459       35.289       43.726       30.937     1245.282     1911.951      957.075        0.300        0.206       30.815       28.523        0.857      339.442       12.778      863.281
01/26/2015  12:26:00        8.234       40.397       54.495       34.606       38.576       28.454     1197.586     1488.110      809.614        0.408        0.175       41.228       20.757        0.253      339.642       13.116      863.261
01/26/2015  12:27:00       26.182       78.996       83.395       50.457       30.495       28.441     2545.863      929.922      808.885        0.908        0.214       83.222       25.432        0.093      339.410       12.726      863.231
01/26/2015  12:28:00       52.561       27.383       18.710       62.231       45.297       34.536     3872.747     2051.784     1192.755        0.549        0.356       59.267       25.103        0.179      339.344       12.613      863.196
01/26/2015  12:29:00       28.300      -56.246        4.856       38.176       42.554       31.533     1457.405     1810.876      994.359        0.412        0.213       62.965       29.506        0.220      339.380       12.675      863.175
01/26/2015  12:30:00       41.114      -59.226       -7.596       31.239       41.977       27.730      975.905     1762.034      768.954        0.438        0.175       72.098       27.742        0.148      339.279       12.503      863.154
01/26/2015  12:31:00      -30.061      -45.629       -3.349       50.372       69.743       31.952     2537.293     4864.059     1020.933        0.571        0.421       54.641       34.079        0.389      339.244       12.443      863.139
01/26/2015  12:32:00      -24.054      -13.086       -6.279       37.426       35.230       19.968     1400.740     1241.168      398.709        0.191        0.152       27.383       19.249        0.494      339.268       12.486      863.129
01/26/2015  12:33:00      -45.232      -39.839       16.944       24.643       27.092       16.776      607.286      733.984      281.430        0.277        0.081       60.276        7.100        0.014      339.205       12.380      863.136
01/26/2015  12:34:00      -50.440      -26.840       -2.478       32.154       28.213       18.216     1033.873      795.964      331.836        0.272        0.108       57.136       12.272        0.046      339.264       12.478      863.129
01/26/2015  12:35:00      -56.827      -63.701       -3.253       32.446       30.813       18.551     1052.758      949.463      344.138        0.482        0.117       85.364       19.915        0.054      339.171       12.321      863.119
01/26/2015  12:36:00      -24.706      -37.023        8.037       40.055       27.416       20.998     1604.412      751.617      440.924        0.242        0.140       44.509       18.980        0.182      339.298       12.535      863.121
01/26/2015  12:37:00      -12.395      -13.788        2.208       24.406       20.764       17.177      595.670      431.132      295.036        0.084        0.066       18.540       10.000        0.291      339.410       12.724      863.107
01/26/2015  12:38:00       -9.889       21.114        2.973       32.585       19.242       20.476     1061.810      370.271      419.254        0.120        0.093       23.315       18.897        0.657      339.459       12.807      863.089
01/26/2015  12:39:00      -16.219       -2.862       -1.581       23.467       37.330       13.678      550.723     1393.515      187.093        0.120        0.107       16.469       12.099        0.540      339.491       12.862      863.061
01/26/2015  12:40:00       48.412      -69.300       -1.186       44.749       30.414       29.057     2002.442      925.029      844.329        0.546        0.189       84.535       11.171        0.017      339.580       13.010      863.034
01/26/2015  12:41:00        0.980        3.650       40.513       25.815       52.577       32.970      666.415     2764.303     1086.997        0.309        0.226        3.779       33.931       80.616      339.881       13.518      863.010
01/26/2015  12:42:00        2.787       52.613       68.013       24.161       37.051       26.775      583.746     1372.746      716.904        0.504        0.134       52.687       22.245        0.178      339.621       13.080      862.989
01/26/2015  12:43:00       26.442      -44.890       29.108       38.565       56.800       42.621     1487.224     3226.292     1816.547        0.504        0.327       52.099       42.971        0.680      339.648       13.125      862.960
01/26/2015  12:44:00       26.561      -38.406       28.436       23.699       49.123       31.559      561.635     2413.093      995.977        0.348        0.199       46.697       32.995        0.499      339.636       13.104      862.933
01/26/2015  12:45:00       -5.517       13.819       18.043       28.955       22.934       31.866      838.366      525.976     1015.446        0.146        0.119       14.880       22.083        2.203      339.588       13.024      862.903
01/26/2015  12:46:00       -3.778       32.025       49.897       15.870       32.577       30.108      251.867     1061.266      906.478        0.287        0.111       32.247       14.705        0.208      339.638       13.108      862.874
01/26/2015  12:47:00       -1.053       -5.964       10.342       27.521       33.705       20.002      757.395     1136.057      400.073        0.122        0.115        6.056       14.555        5.776      339.575       13.002      862.874
01/26/2015  12:48:00      -73.209     -125.266      -13.577       22.607       19.814       19.054      511.085      392.613      363.062        1.125        0.063      145.089       13.528        0.009      339.105       12.209      862.867
01/26/2015  12:49:00      -36.612      -53.620       -4.557        9.378       21.056        6.419       87.940      443.373       41.203        0.240        0.029       64.928        5.781        0.008      339.085       12.175      862.847
01/26/2015  12:50:00      -33.439      -45.857        4.005       30.388       33.260       21.504      923.443     1106.252      462.428        0.286        0.125       56.754       21.098        0.138      339.270       12.487      862.821
01/26/2015  12:51:00      -23.783      -26.691       14.985       51.802       26.936       20.515     2683.413      725.547      420.867        0.267        0.191       35.750       24.968        0.488      339.514       12.900      862.800
01/26/2015  12:52:00      -81.435      -57.806       -9.422       28.758       21.673       17.137      827.010      469.717      293.681        0.583        0.080       99.866       15.484        0.024      339.232       12.423      862.778
01/26/2015  12:53:00      -49.566      -45.699        7.943       32.490       30.018       21.307     1055.577      901.065      453.989        0.351        0.121       67.418       12.430        0.034      339.378       12.670      862.757
01/26/2015  12:54:00      -50.273      -52.958       -0.817       29.356       23.467       14.184      861.789      550.717      201.200        0.347        0.081       73.020       14.227        0.038      339.366       12.650      862.748
01/26/2015  12:55:00      -47.830      -48.391       -1.575       24.321       42.506       20.359      591.517     1806.726      414.493        0.372        0.141       68.039       24.027        0.125      339.348       12.618      862.744
01/26/2015  12:56:00      -85.587      -64.496       -7.397       25.485       26.964       18.332      649.469      727.068      336.080        0.663        0.086      107.167       14.196        0.018      339.265       12.479      862.737
01/26/2015  12:57:00      -48.284      -94.471        4.349       38.060       53.201       26.087     1448.562     2830.337      680.542        0.812        0.248      106.094       22.562        0.045      339.309       12.555      862.731
01/26/2015  12:58:00      -59.103     -119.294       -8.910       30.071       29.026       13.762      904.260      842.513      189.393        0.987        0.097      133.132       11.064        0.007      339.215       12.396      862.720
01/26/2015  12:59:00      -92.053      -54.376       -1.978       44.940       31.912       28.257     2019.593     1018.376      798.481        0.763        0.192      106.914       22.047        0.043      339.274       12.494      862.705
01/26/2015  13:00:00     -108.820      -52.434       -3.569       33.660       30.873       19.743     1132.963      953.112      389.773        0.854        0.124      120.793       18.672        0.024      339.263       12.476      862.691
01/26/2015  13:01:00      -62.610      -61.386       -3.361       51.595       25.512       22.206     2662.073      650.869      493.128        0.575        0.190       87.683       21.437        0.060      339.321       12.574      862.669
01/26/2015  13:02:00      -78.041      -28.303       -8.099       38.741       29.380       16.732     1500.861      863.165      279.949        0.480        0.132       83.015       12.127        0.021      339.336       12.599      862.645
01/26/2015  13:03:00      -58.973      -22.431      -15.480       28.062       20.913       16.032      787.480      437.337      257.014        0.285        0.074       63.095       13.848        0.048      339.349       12.621      862.624
01/26/2015  13:04:00     -113.063      -38.238      -15.712       30.422       27.623       16.241      925.519      763.023      263.756        0.822        0.098      119.354       16.181        0.018      339.289       12.520      862.594
01/26/2015  13:05:00      -91.576      -30.189       -2.734       48.523       32.355       18.650     2354.470     1046.821      347.818        0.653        0.187       96.424       24.342        0.064      339.424       12.748      862.568
01/26/2015  13:06:00      -17.427      -11.567        1.709       37.329       18.524       16.485     1393.469      343.146      271.761        0.122        0.100       20.916       17.486        0.699      339.550       12.961      862.575
01/26/2015  13:07:00      -27.360      -15.551        4.071       31.480       28.167       22.519      990.960      793.386      507.088        0.165        0.115       31.471       20.604        0.429      339.653       13.133      862.594
01/26/2015  13:08:00      -57.540      -30.857       -2.984       47.570       24.376       25.218     2262.933      594.178      635.963        0.388        0.175       65.292       25.882        0.157      339.441       12.775      862.613
01/26/2015  13:09:00      -88.487      -46.017       -6.066       30.314       25.384       18.150      918.923      644.365      329.426        0.594        0.095       99.737       18.538        0.035      339.361       12.642      862.621
01/26/2015  13:10:00      -32.587      -10.936        5.692       30.217       21.174       19.501      913.062      448.338      380.282        0.148        0.087       34.373       22.372        0.424      339.706       13.223      862.625
01/26/2015  13:11:00      -61.294      -31.741        2.802       29.394       35.188       22.197      864.025     1238.164      492.687        0.368        0.130       69.025       18.491        0.072      339.508       12.890      862.593
01/26/2015  13:12:00       -7.417      -24.298       10.456       35.542       27.025       17.354     1263.260      730.347      301.154        0.152        0.115       25.404       15.769        0.385      339.714       13.237      862.556
01/26/2015  13:13:00      -19.919       -4.302       11.966       31.413       21.013       18.116      986.773      441.545      328.182        0.116        0.088       20.379       15.822        0.603      339.913       13.572      862.519
01/26/2015  13:14:00      -36.184      -41.400       11.927       44.117       29.055       18.682     1946.321      844.200      349.029        0.315        0.157       54.984       16.290        0.088      339.822       13.419      862.506
01/26/2015  13:15:00      -66.621      -88.135       -5.509       40.054       31.441       20.426     1604.357      988.512      417.211        0.762        0.151      110.482       21.191        0.037      339.572       12.996      862.496
01/26/2015  13:16:00      -68.122      -46.575        1.174       41.703       33.541       24.147     1739.133     1125.018      583.091        0.513        0.172       82.521       26.120        0.100      339.682       13.183      862.488
01/26/2015  13:17:00      -17.131       11.535       -5.696       20.565       11.918       15.313      422.913      142.036      234.493        0.063        0.040       20.652        9.952        0.232      339.720       13.248      862.475
01/26/2015  13:18:00       -0.521        5.288       15.910       33.147       29.979       20.575     1098.698      898.712      423.338        0.135        0.121        5.314       11.040        4.316      340.018       13.750      862.460
01/26/2015  13:19:00      -52.689        5.564        8.288       44.057       28.819       21.783     1941.007      830.528      474.498        0.306        0.162       52.982       27.143        0.262      339.803       13.388      862.441
01/26/2015  13:20:00      -28.786        1.967        8.309       18.604       18.886       14.091      346.127      356.684      198.554        0.090        0.045       28.854       11.087        0.148      339.872       13.504      862.415
01/26/2015  13:21:00      -39.357      -12.075       -2.944       22.497       24.535       16.015      506.118      601.948      256.473        0.153        0.068       41.167        8.906        0.047      339.727       13.259      862.401
01/26/2015  13:22:00      -51.667      -67.901        6.738       51.118       30.163       24.925     2613.023      909.821      621.268        0.573        0.207       85.323       26.584        0.097      339.564       12.984      862.377
01/26/2015  13:23:00     -127.430      -61.667        1.557       45.629       24.173       19.699     2082.012      584.346      388.032        1.155        0.153      141.568       19.263        0.019      339.595       13.035      862.352
01/26/2015  13:24:00      -79.360      -11.377       -5.479       37.435       25.032       18.143     1401.400      626.614      329.163        0.441        0.118       80.171       20.896        0.068      339.723       13.253      862.334
01/26/2015  13:25:00     -107.445        2.419      -11.540       37.163       28.364       19.926     1381.064      804.493      397.043        0.713        0.129      107.472       16.923        0.025      339.582       13.015      862.305
01/26/2015  13:26:00      -20.697       41.073       10.690       24.162       27.169       22.752      583.807      738.155      517.672        0.203        0.092       45.993       17.071        0.138      340.202       14.061      862.256
01/26/2015  13:27:00      -76.471       -4.921      -14.175       17.689       27.352       16.633      312.910      748.112      276.668        0.371        0.067       76.629       12.324        0.026      339.726       13.260      862.212
01/26/2015  13:28:00      -35.107        2.530       -4.570       14.809       18.908       18.503      219.307      357.524      342.354        0.109        0.046       35.198        9.100        0.067      339.894       13.540      862.183
01/26/2015  13:29:00       -1.017       15.260        7.422       28.499       17.209       17.922      812.205      296.165      321.188        0.086        0.071       15.294       13.997        0.838      339.983       13.692      862.146
01/26/2015  13:30:00       24.055       12.586       -9.097       23.273       22.803       16.024      541.636      519.995      256.761        0.107        0.066       27.149       14.649        0.291      339.917       13.580      862.129
01/26/2015  13:31:00        0.282        8.684       -3.451       18.733       15.436       13.355      350.907      238.280      178.360        0.043        0.038        8.689       10.478        1.454      340.147       13.967      862.110
01/26/2015  13:32:00       -1.698       22.073       -1.776       15.523       33.806       21.388      240.957     1142.816      457.466        0.117        0.092       22.138        9.822        0.197      340.500       14.563      862.093
01/26/2015  13:33:00       49.729      -79.995       -7.637       52.592       36.065       30.078     2765.944     1300.653      904.697        0.695        0.249       94.192       19.334        0.042      340.178       14.019      862.083
01/26/2015  13:34:00       84.393     -109.993      -27.787       38.810       55.418       23.801     1506.227     3071.160      566.468        1.257        0.257      138.639       15.125        0.012      339.987       13.697      862.071
01/26/2015  13:35:00       25.742        1.121       35.636       34.472       49.651       33.476     1188.319     2465.197     1120.669        0.335        0.239       25.766       30.118        1.366      340.274       14.181      862.079
01/26/2015  13:36:00       11.569       20.390       27.013       19.460       16.737       13.711      378.693      280.126      187.993        0.106        0.042       23.444       14.713        0.394      340.398       14.392      862.071
01/26/2015  13:37:00      -12.314        2.148       24.364       25.178       31.728       22.045      633.912     1006.653      485.998        0.144        0.106       12.500        4.549        0.132      340.945       15.316      862.079
01/26/2015  13:38:00      -85.936      -22.625      -16.900       35.469       35.507       24.846     1258.066     1260.722      617.316        0.566        0.157       88.864       23.153        0.068      339.876       13.512      862.077
01/26/2015  13:39:00      -70.967       -1.383       -7.241       20.531       23.329       11.247      421.529      544.258      126.490        0.309        0.055       70.981        5.411        0.006      339.766       13.324      862.067
01/26/2015  13:40:00      -51.541        3.092       -4.693       19.640       23.676       23.001      385.710      560.572      529.051        0.208        0.074       51.634       15.803        0.094      339.956       13.646      862.054
01/26/2015  13:41:00       -1.229       18.570       15.225       23.381       12.883       26.728      546.689      165.977      714.391        0.100        0.071       18.610       19.961        1.150      340.389       14.376      862.028
01/26/2015  13:42:00       28.914       22.382       -1.246       16.204       15.440       17.865      262.565      238.390      319.165        0.108        0.041       36.564       11.723        0.103      340.088       13.867      862.009
01/26/2015  13:43:00       12.854       20.153        4.294       15.542       14.060       16.058      241.546      197.679      257.864        0.064        0.035       23.903        8.122        0.115      340.326       14.270      861.992
01/26/2015  13:44:00       13.889        4.209       -2.747       26.009       15.869       12.052      676.450      251.825      145.252        0.065        0.054       14.513       10.875        0.561      340.327       14.270      861.986
01/26/2015  13:45:00      -28.230       13.689       -7.273       21.420       36.496       14.432      458.831     1331.953      208.293        0.152        0.100       31.374       10.640        0.115      340.343       14.299      861.962
01/26/2015  13:46:00       81.224      -69.076       -4.022       49.178       34.819       36.149     2418.483     1212.382     1306.766        0.816        0.247      106.625       29.885        0.079      340.258       14.153      861.955
01/26/2015  13:47:00       40.759      -19.445       11.125       40.341       55.919       29.055     1627.384     3126.900      844.180        0.388        0.280       45.160       19.799        0.192      340.235       14.116      861.948
01/26/2015  13:48:00       34.685        1.555       52.884       39.228       32.577       33.003     1538.843     1061.285     1089.182        0.385        0.184       34.720       24.988        0.518      340.458       14.493      861.945
01/26/2015  13:49:00       47.961      -19.647       12.956       43.514       43.443       31.766     1893.501     1887.252     1009.094        0.382        0.239       51.829       26.315        0.258      340.203       14.062      861.938
01/26/2015  13:50:00        2.906      -16.295      -14.779       29.719       26.460       18.816      883.207      700.133      354.039        0.121        0.097       16.552       14.699        0.789      340.323       14.263      861.926
01/26/2015  13:51:00       13.915      -43.384       -6.728       19.831       38.062       26.687      393.260     1448.698      712.181        0.234        0.128       45.561       22.047        0.234      340.308       14.240      861.916
01/26/2015  13:52:00        7.556       -8.571        1.809       33.133       29.159       21.959     1097.806      850.224      482.219        0.128        0.122       11.426       11.084        0.941      340.405       14.403      861.888
01/26/2015  13:53:00       22.108       27.128       11.381       34.150       26.876       28.548     1166.200      722.307      814.997        0.203        0.135       34.995       20.858        0.355      340.670       14.851      861.883
01/26/2015  13:54:00      -27.328      -28.571       11.233       46.698       36.169       24.686     2180.677     1308.221      609.378        0.289        0.205       39.536       23.606        0.356      340.740       14.969      861.871
01/26/2015  13:55:00       49.300       48.614       55.422       44.428       43.782       41.382     1973.809     1916.869     1712.505        0.673        0.280       69.238       34.896        0.254      340.406       14.404      861.879
01/26/2015  13:56:00       29.593       39.201       14.895       28.171       27.069       23.816      793.613      732.727      567.207        0.236        0.105       49.117       18.630        0.144      340.383       14.365      861.871
01/26/2015  13:57:00       -4.267       -7.509       18.488       13.499       15.809       20.077      182.224      249.939      403.082        0.063        0.042        8.636        9.540        1.220      341.135       15.637      861.882
01/26/2015  13:58:00      -63.123      -22.263       -8.559       33.990       43.075       18.858     1155.334     1855.455      355.641        0.396        0.168       66.934       13.141        0.039      340.423       14.434      861.880
01/26/2015  13:59:00      -44.978      -19.241        9.419       53.868       50.415       34.303     2901.724     2541.680     1176.680        0.455        0.331       48.920       42.046        0.739      340.651       14.819      861.886
01/26/2015  14:00:00      -23.392      -45.752      -12.157       36.752       29.388       24.824     1350.743      863.647      616.232        0.281        0.142       51.385       26.479        0.266      340.220       14.090      861.891
01/26/2015  14:01:00      -67.169       -4.077      -13.136       42.495       29.621       20.649     1805.815      877.421      426.378        0.390        0.155       67.292       16.741        0.062      340.299       14.224      861.898
01/26/2015  14:02:00      -87.362       -1.475       -0.659       44.290       30.701       23.907     1961.640      942.581      571.522        0.555        0.174       87.374       14.287        0.027      340.441       14.463      861.896
01/26/2015  14:03:00      -55.509       -1.490        0.276       34.334       36.691       15.868     1178.847     1346.207      251.802        0.293        0.139       55.529       12.748        0.053      340.528       14.609      861.895
01/26/2015  14:04:00      -35.740      -80.201       -6.300       34.846       43.621       22.396     1214.215     1902.765      501.578        0.568        0.181       87.804        5.707        0.004      340.259       14.157      861.882
01/26/2015  14:05:00      -39.400      -59.370       -7.090       34.210       22.949       14.397     1170.330      526.650      207.281        0.352        0.095       71.254        6.985        0.010      340.364       14.334      861.873
01/26/2015  14:06:00      -49.719      -57.515        3.951       49.692       34.051       27.908     2469.330     1159.501      778.878        0.510        0.220       76.026       27.328        0.129      340.599       14.730      861.865
01/26/2015  14:07:00      -49.264      -38.740       15.464       53.114       39.638       29.007     2821.073     1571.154      841.397        0.470        0.262       62.671       27.252        0.189      340.571       14.683      861.855
01/26/2015  14:08:00      -40.567      -67.225      -13.821       18.529       23.180       15.124      343.316      537.298      228.739        0.373        0.055       78.517       10.330        0.017      340.120       13.920      861.863
01/26/2015  14:09:00       17.177       -9.990       17.477       25.261       27.602       21.391      638.095      761.886      457.567        0.128        0.093       19.871       19.943        1.007      340.538       14.628      861.844
01/26/2015  14:10:00      -24.017      -64.203       -8.616       21.873       21.473       21.553      478.450      461.088      464.517        0.309        0.070       68.548        8.691        0.016      340.564       14.671      861.834
01/26/2015  14:11:00      -40.650      -32.979       -3.908       57.981       21.394       18.777     3361.779      457.708      352.560        0.346        0.209       52.345        8.070        0.024      340.564       14.671      861.810
01/26/2015  14:12:00      -55.967      -29.665       12.833       53.274       51.339       27.594     2838.102     2635.644      761.420        0.521        0.312       63.343       29.811        0.222      340.747       14.980      861.773
01/26/2015  14:13:00      -30.652      -48.590       11.335       66.292       45.265       34.611     4394.595     2048.958     1197.946        0.553        0.382       57.451       36.470        0.403      340.717       14.930      861.744
01/26/2015  14:14:00      -20.730      -47.889        8.203       37.233       48.136       20.786     1386.266     2317.027      432.039        0.346        0.207       52.183       19.610        0.141      340.826       15.114      861.713
01/26/2015  14:15:00      -59.168     -110.966       -4.988       23.565       32.825       20.650      555.301     1077.498      426.417        0.895        0.103      125.755       10.901        0.008      340.347       14.304      861.702
01/26/2015  14:16:00      -41.805      -21.913       -7.038       35.696       34.544       21.763     1274.178     1193.266      473.647        0.261        0.147       47.200       19.349        0.168      340.653       14.823      861.687
01/26/2015  14:17:00      -48.012      -10.470       -2.692       26.420       28.981       15.217      698.014      839.885      231.566        0.210        0.088       49.141       16.130        0.108      340.744       14.977      861.694
01/26/2015  14:18:00        5.520        4.132       -4.618       28.366       26.726       29.459      804.635      714.258      867.844        0.123        0.119        6.895       22.067       10.243      340.848       15.152      861.694
01/26/2015  14:19:00      -31.388        5.558        6.784       14.508       13.864       19.388      210.493      192.202      375.904        0.092        0.039       31.876        9.812        0.095      340.749       14.985      861.666
01/26/2015  14:20:00      -12.274       13.829       22.479       10.849       14.902       17.190      117.711      222.068      295.493        0.074        0.032       18.490       11.204        0.367      341.252       15.836      861.653
01/26/2015  14:21:00        6.646      -28.798       -2.636       45.175       35.160       30.278     2040.752     1236.238      916.781        0.254        0.210       29.555       22.312        0.570      340.784       15.045      861.643
01/26/2015  14:22:00        7.565      -22.546       -3.476       50.761       31.752       26.302     2576.674     1008.216      691.808        0.243        0.214       23.781       16.618        0.488      340.723       14.941      861.624
01/26/2015  14:23:00       -5.736      -37.922        4.912       19.341       27.846       20.888      374.061      775.378      436.298        0.154        0.079       38.354       17.992        0.220      340.939       15.306      861.617
01/26/2015  14:24:00       -2.530       -4.998       21.372       35.632       24.316       22.135     1269.630      591.261      489.943        0.142        0.118        5.602       19.729       12.403      341.017       15.439      861.627
01/26/2015  14:25:00       -6.977       -4.058       10.203       19.209       18.924       17.663      368.971      358.131      311.975        0.060        0.052        8.071        8.556        1.124      341.094       15.570      861.623
01/26/2015  14:26:00      -45.968      -48.862       -4.117       44.361       31.937       20.990     1967.885     1019.969      440.595        0.397        0.171       67.087       17.977        0.072      340.784       15.045      861.633
01/26/2015  14:27:00      -71.089      -41.241        9.786       53.238       35.510       27.902     2834.243     1260.964      778.523        0.586        0.244       82.186       26.563        0.104      340.713       14.923      861.641
01/26/2015  14:28:00      -20.081       -8.198        9.944       45.137       23.429       23.751     2037.378      548.910      564.116        0.186        0.158       21.690       26.580        1.502      340.961       15.343      861.641
01/26/2015  14:29:00       14.047      -32.945       -9.759       38.801       30.006       13.297     1505.484      900.387      176.822        0.198        0.129       35.815       10.251        0.082      340.789       15.053      861.643
01/26/2015  14:30:00      -19.410        6.807       24.041       25.629       33.238       26.922      656.823     1104.737      724.820        0.174        0.124       20.569       24.658        1.437      340.893       15.227      861.637
01/26/2015  14:31:00      -13.752      -21.300       11.555       24.978       29.380       23.869      623.917      863.199      569.720        0.142        0.103       25.353       18.368        0.525      341.035       15.468      861.623
01/26/2015  14:32:00      -12.321      -14.695       -5.022       20.469       17.790       12.181      418.980      316.488      148.370        0.064        0.044       19.177       10.278        0.287      341.055       15.501      861.606
01/26/2015  14:33:00      -14.698      -35.134       -1.015       22.589       13.801       14.868      510.245      190.472      221.060        0.119        0.046       38.085        6.750        0.031      340.939       15.306      861.597
01/26/2015  14:34:00        2.465        2.129       13.905       18.068       13.302       12.331      326.437      176.941      152.041        0.043        0.033        3.258        9.733        8.926      341.298       15.913      861.596
01/26/2015  14:35:00       10.020      -65.981       15.090       37.770       48.464       37.630     1426.550     2348.766     1415.998        0.494        0.260       66.737       34.759        0.271      340.920       15.274      861.589
01/26/2015  14:36:00       21.729       -3.009       50.070       36.579       55.202       36.262     1337.992     3047.222     1314.967        0.434        0.285       21.936       25.515        1.353      340.973       15.361      861.570
01/26/2015  14:37:00        4.037      -44.821       28.438       32.967       44.738       36.330     1086.793     2001.526     1319.869        0.362        0.220       45.003       28.653        0.405      340.988       15.389      861.566
01/26/2015  14:38:00       20.089      -62.212        6.261       42.071       73.749       42.061     1770.002     5438.878     1769.145        0.664        0.449       65.374       37.913        0.336      340.799       15.070      861.567
01/26/2015  14:39:00       87.098      -84.819       -8.812       23.604       42.504       31.489      557.167     1806.569      991.583        0.911        0.168      121.574       25.150        0.043      340.514       14.587      861.566
01/26/2015  14:40:00       17.785      -11.071       13.249       30.764       26.725       30.276      946.437      714.252      916.662        0.160        0.129       20.949       28.139        1.804      340.649       14.816      861.567
01/26/2015  14:41:00       11.235        5.939       24.849       23.578       23.772       17.838      555.945      565.105      318.195        0.111        0.072       12.708       14.407        1.285      340.956       15.335      861.567
01/26/2015  14:42:00       59.157       59.109       32.414       45.293       35.012       39.673     2051.471     1225.810     1573.981        0.645        0.243       83.627       30.611        0.134      340.655       14.826      861.561
01/26/2015  14:43:00       47.343       35.664        5.553       19.708       17.033       16.598      388.387      290.138      275.494        0.225        0.048       59.273       10.511        0.031      340.616       14.760      861.547
01/26/2015  14:44:00       57.401       34.841        2.099       29.007       30.721       21.338      841.401      943.759      455.303        0.338        0.112       67.147       18.432        0.075      340.705       14.911      861.529
01/26/2015  14:45:00       24.184       20.859        3.163       20.283       19.434       17.676      411.409      377.661      312.439        0.107        0.055       31.937        6.767        0.045      340.773       15.026      861.520
01/26/2015  14:46:00       28.115      -11.393        7.587       46.255       51.404       35.684     2139.568     2642.326     1273.352        0.352        0.303       30.336       34.538        1.296      340.964       15.347      861.512
01/26/2015  14:47:00       81.814      -85.809      -21.268       35.528       47.030       25.020     1262.224     2211.865      626.024        0.930        0.205      118.561       13.124        0.012      340.606       14.742      861.513
01/26/2015  14:48:00       85.848     -124.816      -18.117       26.477       37.482       21.352      701.008     1404.922      455.919        1.292        0.128      151.489        4.707        0.001      340.667       14.846      861.514
01/26/2015  14:49:00       36.846      -46.984       10.363       45.017       73.105       27.378     2026.547     5344.332      749.563        0.590        0.406       59.709       35.752        0.359      340.900       15.239      861.513
01/26/2015  14:50:00       20.878      -34.659        3.036       42.883       38.608       20.649     1838.939     1490.552      426.387        0.270        0.188       40.461       22.581        0.311      340.871       15.190      861.528
01/26/2015  14:51:00       42.644      -25.447       12.329       39.014       50.050       23.724     1522.107     2504.978      562.815        0.360        0.229       49.659       18.326        0.136      340.868       15.186      861.522
01/26/2015  14:52:00       94.362       58.877       20.931       30.039       26.310       19.165      902.320      692.214      367.308        0.738        0.098      111.223       14.865        0.018      340.569       14.682      861.510
01/26/2015  14:53:00       28.865      -18.219       20.068       38.179       63.073       31.681     1457.657     3978.199     1003.658        0.400        0.322       34.134       34.008        0.993      340.770       15.022      861.495
01/26/2015  14:54:00       45.028      -86.191       -7.509       41.550       38.114       27.930     1726.403     1452.708      780.088        0.674        0.198       97.244       21.550        0.049      340.916       15.266      861.478
01/26/2015  14:55:00       84.176     -129.661      -18.098       32.430       32.985       20.283     1051.681     1087.982      411.413        1.339        0.128      154.588       15.957        0.011      340.751       14.987      861.475
01/26/2015  14:56:00       47.331       10.735       43.472       42.694       76.745       52.692     1822.820     5889.806     2776.432        0.737        0.524       48.534       58.810        1.468      340.857       15.167      861.480
01/26/2015  14:57:00        1.075        9.691       25.876       27.515       30.702       21.973      757.062      942.618      482.805        0.147        0.109        9.750       26.554        7.418      340.801       15.072      861.490
01/26/2015  14:58:00       36.061      -38.931        0.609       32.420       30.819       26.491     1051.045      949.818      701.768        0.276        0.135       53.066       18.037        0.116      340.775       15.028      861.479
01/26/2015  14:59:00       14.549      -74.732      -22.821       43.631       33.280       18.082     1903.693     1107.552      326.972        0.483        0.167       76.135       19.196        0.064      340.863       15.175      861.460
01/26/2015  15:00:00       14.381      -33.119        5.878       23.303       36.495       21.461      543.044     1331.894      460.581        0.184        0.117       36.107       19.239        0.284      340.971       15.360      861.445
01/26/2015  15:01:00        0.006       21.121       22.849       12.548       21.389       21.234      157.459      457.498      450.871        0.102        0.053       21.121       17.164        0.660      341.043       15.482      861.439
01/26/2015  15:02:00       47.138       22.483       35.626       43.806       53.979       41.384     1918.960     2913.727     1712.654        0.527        0.327       52.225       37.718        0.522      340.888       15.221      861.445
01/26/2015  15:03:00       40.011       31.615       12.373       38.375       26.725       23.876     1472.615      714.207      570.043        0.275        0.138       50.994       24.228        0.226      340.831       15.122      861.456
01/26/2015  15:04:00       13.235       30.456       -3.912       14.542       14.979        9.518      211.478      224.379       90.599        0.082        0.026       33.208        8.530        0.066      340.764       15.010      861.443
01/26/2015  15:05:00       -2.840       30.635      -10.403       11.263       20.416        8.592      126.859      416.811       73.824        0.084        0.031       30.766        9.519        0.096      340.769       15.020      861.434
01/26/2015  15:06:00       -1.515       59.955      -11.625       24.372       14.819        9.832      594.004      219.605       96.659        0.232        0.046       59.974        8.162        0.019      340.696       14.896      861.413
01/26/2015  15:07:00      -12.099       53.097      -22.102       21.976       31.163       17.926      482.944      971.122      321.344        0.261        0.089       54.458       15.931        0.086      340.728       14.949      861.389
01/26/2015  15:08:00       30.011       47.521        2.413       29.451       26.857       20.270      867.335      721.290      410.889        0.258        0.100       56.204       16.066        0.082      340.709       14.918      861.368
01/26/2015  15:09:00       -0.634       37.743       -7.544       11.199       16.190        9.103      125.415      262.108       82.865        0.098        0.024       37.749        5.151        0.019      340.714       14.924      861.354
01/26/2015  15:10:00       -3.097       29.911      -10.517       12.514       13.343        7.383      156.605      178.049       54.507        0.070        0.019       30.071        5.044        0.028      340.713       14.922      861.341
01/26/2015  15:11:00      -16.597       25.712      -13.613       11.848       28.435        8.179      140.384      808.532       66.895        0.107        0.051       30.604        9.210        0.091      340.721       14.938      861.328
01/26/2015  15:12:00       14.459      -40.160       -9.318       12.912       13.512       11.721      166.722      182.563      137.386        0.120        0.024       42.684        9.449        0.049      340.783       15.043      861.321
01/26/2015  15:13:00       23.216      -28.257       -1.296       12.789       18.386       15.018      163.564      338.052      225.549        0.103        0.036       36.571        8.724        0.057      340.984       15.383      861.323
01/26/2015  15:14:00       29.954       30.280       20.691       12.333        9.797       11.154      152.106       95.973      124.412        0.131        0.019       42.592        7.740        0.033      340.886       15.216      861.321
01/26/2015  15:15:00       41.517       25.225       12.174       26.185       18.866       25.216      685.638      355.910      635.861        0.209        0.084       48.579       14.238        0.086      340.962       15.344      861.315
01/26/2015  15:16:00      129.418       41.448       11.549       35.256       25.418       28.015     1242.988      646.054      784.856        1.064        0.134      135.893       15.504        0.013      340.860       15.173      861.304
01/26/2015  15:17:00       56.744       52.513       15.857       49.540       21.223       29.567     2454.257      450.411      874.202        0.500        0.189       77.314       18.459        0.057      340.976       15.367      861.286
01/26/2015  15:18:00       68.201       64.681       14.106       42.247       26.106       30.221     1784.847      681.526      913.338        0.621        0.169       93.995       27.892        0.088      340.982       15.380      861.265
01/26/2015  15:19:00       44.139       26.747       13.785       46.863       25.870       33.671     2196.121      669.238     1133.744        0.343        0.200       51.610       11.517        0.050      340.980       15.375      861.248
01/26/2015  15:20:00       68.712       23.570        0.682       34.198       25.569       32.048     1169.514      653.750     1027.058        0.406        0.143       72.642       16.292        0.050      340.934       15.295      861.241
01/26/2015  15:21:00       -0.713       37.695      -12.172       15.437       15.215       11.585      238.302      231.497      134.223        0.109        0.030       37.702        8.300        0.048      340.916       15.266      861.225
01/26/2015  15:22:00       32.587       37.177       -2.956       24.745       37.863       22.483      612.316     1433.579      505.498        0.250        0.128       49.438       22.360        0.205      340.937       15.301      861.204
01/26/2015  15:23:00       52.979       37.929       19.853       47.950       19.961       21.513     2299.158      398.424      462.809        0.390        0.158       65.156       22.776        0.122      341.048       15.490      861.189
01/26/2015  15:24:00       63.768       60.235        2.035       49.740       29.539       23.253     2474.041      872.524      540.715        0.579        0.194       87.719       14.557        0.028      340.958       15.337      861.184
01/26/2015  15:25:00       24.842       35.207       -2.179       28.004       21.065       20.247      784.244      443.735      409.943        0.175        0.082       43.089        8.962        0.043      341.020       15.443      861.178
01/26/2015  15:26:00        4.805       38.381       48.420       25.424       31.157       27.842      646.362      970.777      775.197        0.312        0.120       38.680       21.109        0.298      341.228       15.796      861.179
01/26/2015  15:27:00       25.808       48.762       62.721       37.427       34.154       37.604     1400.769     1166.484     1414.085        0.548        0.199       55.171       35.487        0.414      341.102       15.581      861.167
01/26/2015  15:28:00       46.827       86.212       83.114       44.215       29.581       30.949     1954.950      875.020      957.842        1.016        0.189       98.108       28.758        0.086      341.086       15.557      861.148
01/26/2015  15:29:00       14.859       17.166       21.909       39.053       27.643       24.950     1525.155      764.145      622.498        0.195        0.146       22.704       27.289        1.445      341.105       15.588      861.131
01/26/2015  15:30:00       -5.314        8.180        2.312        7.260       10.657       10.390       52.711      113.561      107.942        0.019        0.014        9.755        5.023        0.265      341.344       15.991      861.110
01/26/2015  15:31:00      -19.201        9.373      -10.393        9.802        9.623        8.663       96.086       92.600       75.052        0.041        0.013       21.367        4.732        0.049      341.118       15.609      861.086
01/26/2015  15:32:00       -9.654       15.041       -2.902       21.297       14.777       10.790      453.549      218.346      116.424        0.056        0.039       17.872        4.793        0.072      341.130       15.628      861.085
01/26/2015  15:33:00       22.712        7.635        7.807       10.965        9.771       10.349      120.229       95.472      107.104        0.048        0.016       23.961        7.519        0.098      341.212       15.769      861.091
01/26/2015  15:34:00       24.841       22.185       15.815       18.219       15.034       13.425      331.946      226.023      180.232        0.105        0.037       33.305        9.540        0.082      341.116       15.606      861.098
01/26/2015  15:35:00       32.745       -8.731        8.380       20.976       35.298       23.850      439.976     1245.981      568.831        0.174        0.113       33.889       12.716        0.141      341.218       15.779      861.101
01/26/2015  15:36:00      -25.288      -38.580       -5.079       32.011       18.937       16.616     1024.681      358.599      276.084        0.191        0.083       46.129       14.065        0.093      341.407       16.098      861.098
01/26/2015  15:37:00       -9.836      -17.443        3.127       22.321       35.388       19.452      498.229     1252.337      378.361        0.127        0.106       20.025       11.355        0.322      341.588       16.403      861.093
01/26/2015  15:38:00       55.897     -106.228      -13.796       23.938       27.297       17.790      573.010      745.153      316.500        0.812        0.082      120.037       13.957        0.014      341.081       15.545      861.069
01/26/2015  15:39:00       19.219      -29.831        5.171       26.209       47.522       26.013      686.925     2258.372      676.699        0.245        0.181       35.486       29.109        0.673      341.132       15.632      861.042
01/26/2015  15:40:00       18.414       12.957       42.348       34.732       60.619       40.750     1206.310     3674.633     1660.603        0.442        0.327       22.516       47.928        4.531      341.214       15.771      861.020
01/26/2015  15:41:00       28.738       49.484       46.049       22.019       19.461       16.355      484.836      378.720      267.472        0.326        0.057       57.224        8.681        0.023      341.092       15.564      861.003
01/26/2015  15:42:00       35.278        3.917       25.154       40.747       56.280       29.119     1660.315     3167.492      847.937        0.378        0.284       35.495       34.779        0.960      341.276       15.878      860.994
01/26/2015  15:43:00       -6.230       -7.272       46.085       17.798       55.741       25.416      316.764     3107.100      645.978        0.314        0.203        9.575       31.403       10.755      341.477       16.217      860.993
01/26/2015  15:44:00        9.547       35.887       61.039       25.822       47.315       29.049      666.751     2238.742      843.827        0.443        0.187       37.135       27.974        0.567      341.395       16.077      860.989
01/26/2015  15:45:00       12.453       -8.651       43.525       24.250       32.027       24.369      588.046     1025.758      593.840        0.217        0.110       15.163       22.586        2.219      341.597       16.420      860.984
01/26/2015  15:46:00       64.982      -76.876       -5.353       32.163       26.926       24.494     1034.430      725.011      599.973        0.626        0.118      100.661       18.228        0.033      341.285       15.893      860.988
01/26/2015  15:47:00       10.700      -16.126        4.020       19.503       33.159       11.566      380.369     1099.528      133.762        0.100        0.081       19.353        7.827        0.164      341.404       16.092      860.987
01/26/2015  15:48:00       20.198       18.930       14.340       22.148       18.314       12.480      490.551      335.419      155.756        0.098        0.049       27.682        7.015        0.064      341.439       16.153      860.992
01/26/2015  15:49:00       36.415      -47.749       -1.997       36.683       35.924       17.969     1345.616     1290.502      322.869        0.328        0.148       60.050       21.120        0.124      341.322       15.954      860.991
01/26/2015  15:50:00       42.148        5.778       41.042       50.195       58.227       35.804     2519.530     3390.374     1281.952        0.534        0.360       42.542       41.073        0.932      341.307       15.929      860.981
01/26/2015  15:51:00       17.348       -1.123       34.369       36.184       38.996       27.263     1309.292     1520.672      743.245        0.253        0.179       17.384       17.654        1.031      341.444       16.162      860.979
01/26/2015  15:52:00       56.086      -74.755       -2.873       28.691       38.515       26.350      823.170     1483.384      694.301        0.587        0.150       93.455       24.106        0.067      341.247       15.827      860.979
01/26/2015  15:53:00       13.664      -16.961       24.575       20.386       48.059       20.761      415.602     2309.650      430.999        0.212        0.158       21.780       25.453        1.366      341.308       15.932      860.972
01/26/2015  15:54:00       20.504       29.881       22.903       16.720       21.489       17.701      279.548      461.782      313.321        0.145        0.053       36.240       12.213        0.114      341.170       15.697      860.969
01/26/2015  15:55:00       18.744       31.230       28.238       22.333       20.548       22.333      498.769      422.215      498.767        0.177        0.071       36.423       11.008        0.091      341.201       15.749      860.962
01/26/2015  15:56:00       16.892       18.866       25.660       18.242       13.469       14.634      332.753      181.409      214.140        0.101        0.036       25.323        4.893        0.037      341.189       15.731      860.955
01/26/2015  15:57:00       20.626       33.657       20.612       25.489       22.029       10.643      649.670      485.279      113.279        0.162        0.062       39.474       10.182        0.067      341.141       15.648      860.953
01/26/2015  15:58:00        5.881       -4.776       14.549        9.886       11.704        8.660       97.731      136.993       74.988        0.029        0.015        7.576        7.183        0.899      341.411       16.105      860.941
01/26/2015  15:59:00       31.507      -20.072        1.242       23.107       21.223       13.708      533.945      450.432      187.904        0.128        0.059       37.357       16.025        0.184      341.220       15.781      860.938
01/26/2015  16:00:00        6.555      -18.494      -15.385       16.360       12.037        5.799      267.650      144.893       33.632        0.053        0.022       19.621        5.208        0.070      341.267       15.860      860.940
01/26/2015  16:01:00        8.779      -28.605       -0.250       21.368       24.628       10.636      456.610      606.535      113.129        0.104        0.059       29.922        8.577        0.082      341.188       15.727      860.942
01/26/2015  16:02:00       10.926       -7.262        2.168       12.240       13.662        9.077      149.821      186.637       82.391        0.030        0.021       13.119        9.812        0.559      341.272       15.871      860.943
01/26/2015  16:03:00       -8.294      -13.924        9.382       14.361       20.959       13.265      206.234      439.268      175.951        0.059        0.041       16.207       11.876        0.537      341.388       16.068      860.949
01/26/2015  16:04:00       -0.078      -72.818        4.096       27.462       21.233       25.619      754.177      450.857      656.325        0.359        0.093       72.818       16.393        0.051      341.325       15.959      860.951
01/26/2015  16:05:00        2.636      -58.405       -0.541       25.710       29.207       17.783      660.987      853.064      316.221        0.262        0.092       58.465        9.427        0.026      341.357       16.014      860.951
01/26/2015  16:06:00       72.305      -88.401      -16.366       27.962       15.928       12.843      781.846      253.706      164.945        0.726        0.060      114.205       10.229        0.008      341.121       15.616      860.953
01/26/2015  16:07:00       30.358      -25.180        8.219       23.854       31.706       19.904      569.027     1005.244      396.156        0.180        0.099       39.442       19.828        0.253      341.168       15.694      860.950
01/26/2015  16:08:00        5.475       17.102       44.537       19.444       22.846       16.038      378.075      521.957      257.225        0.173        0.058       17.957       12.736        0.503      341.184       15.721      860.945
01/26/2015  16:09:00       15.798       -6.435       20.152       19.096       26.247       22.988      364.639      688.884      528.434        0.114        0.079       17.058       21.156        1.538      341.113       15.601      860.936
01/26/2015  16:10:00        9.469       -3.557       15.266       19.149       26.108       15.847      366.700      681.624      251.117        0.082        0.065       10.115        9.459        0.875      341.112       15.598      860.928
01/26/2015  16:11:00        3.618      -22.639       15.134       12.862       30.588       15.053      165.425      935.653      226.585        0.104        0.066       22.926       15.299        0.445      341.201       15.750      860.914
01/26/2015  16:12:00       46.310      -69.261       -3.853       20.810       22.642       14.561      433.048      512.670      212.013        0.406        0.058       83.317        8.144        0.010      341.187       15.726      860.899
01/26/2015  16:13:00       12.703      -27.117       -4.963       19.759       22.572        8.432      390.431      509.490       71.099        0.095        0.049       29.945       11.060        0.136      341.127       15.624      860.895
01/26/2015  16:14:00      -25.189      -33.118      -10.426       32.936       19.036        9.291     1084.792      362.366       86.314        0.169        0.077       41.609        7.974        0.037      341.121       15.614      860.882
01/26/2015  16:15:00      -24.598      -48.960       -5.310       33.834       28.067       16.550     1144.767      787.774      273.905        0.262        0.110       54.791       13.675        0.062      341.153       15.668      860.889
01/26/2015  16:16:00      -32.652        1.244        4.293       21.165       23.006       15.241      447.951      529.293      232.301        0.115        0.060       32.676       14.533        0.198      341.126       15.623      860.886
01/26/2015  16:17:00      -20.369      -20.396       -0.299       16.132       16.028       12.467      260.232      256.892      155.432        0.075        0.034       28.825       11.758        0.166      341.279       15.882      860.887
01/26/2015  16:18:00      -17.263      -26.351       -2.198       23.506       18.659       11.899      552.525      348.176      141.583        0.102        0.052       31.503       11.462        0.132      341.243       15.820      860.884
01/26/2015  16:19:00      -44.155      -30.835       -0.546       27.728       18.950       13.784      768.824      359.091      190.003        0.211        0.066       53.856       16.004        0.088      341.159       15.678      860.883
01/26/2015  16:20:00      -65.263      -31.647       -3.529       35.968       23.364       18.739     1293.705      545.871      351.160        0.373        0.110       72.532       19.805        0.075      341.136       15.639      860.885
01/26/2015  16:21:00      -62.242      -45.032       -0.651       29.911       22.326       21.922      894.691      498.444      480.557        0.389        0.094       76.824       20.687        0.073      341.168       15.695      860.889
01/26/2015  16:22:00      -77.730      -34.357      -14.173       20.014       12.977       10.117      400.575      168.392      102.358        0.405        0.034       84.984        9.796        0.013      341.154       15.671      860.898
01/26/2015  16:23:00      -23.126      -15.522        6.062       24.318       18.516       13.042      591.345      342.857      170.094        0.096        0.055       27.852       13.043        0.219      341.276       15.876      860.907
01/26/2015  16:24:00      -78.463      -48.853        6.180       41.976       20.900       14.328     1762.016      436.801      205.290        0.549        0.120       92.429       12.528        0.018      341.253       15.837      860.912
01/26/2015  16:25:00      -34.027      -27.301        5.766       36.845       32.550       17.879     1357.559     1059.524      319.655        0.234        0.137       43.626       18.126        0.173      341.233       15.804      860.927
01/26/2015  16:26:00       -8.451      -13.470       -3.062       24.940       17.868       15.935      622.006      319.279      253.923        0.073        0.060       15.901        7.802        0.241      341.222       15.785      860.933
01/26/2015  16:27:00        5.345      -20.149       -4.258       17.047       11.677       10.592      290.586      136.344      112.187        0.050        0.027       20.846        5.884        0.080      341.223       15.788      860.934
01/26/2015  16:28:00       -8.746      -14.212       -5.078       16.728       20.667       21.144      279.829      427.105      447.069        0.073        0.058       16.687       15.874        0.905      341.151       15.664      860.935
01/26/2015  16:29:00       -9.004      -28.478       -1.277       28.883       17.061       14.853      834.212      291.086      220.605        0.112        0.067       29.867       14.899        0.249      341.121       15.616      860.935
01/26/2015  16:30:00      -32.938       -1.921        8.994       10.995       12.531        9.785      120.884      157.022       95.744        0.077        0.019       32.994        8.005        0.059      341.150       15.662      860.932
01/26/2015  16:31:00      -20.404      -25.001        2.762       12.624       10.699       10.335      159.367      114.467      106.808        0.071        0.019       32.271        6.891        0.046      341.232       15.801      860.928
01/26/2015  16:32:00      -51.635      -18.753       -4.362       20.372       20.399       15.031      415.015      416.119      225.938        0.205        0.053       54.935       13.634        0.062      341.177       15.708      860.912
01/26/2015  16:33:00      -25.664      -11.688        0.081       27.142       27.929       12.109      736.682      780.047      146.617        0.123        0.083       28.200       12.952        0.211      341.193       15.736      860.900
01/26/2015  16:34:00       -0.980      -13.251        6.638       23.214       10.570       10.194      538.868      111.728      103.920        0.049        0.038       13.288        8.364        0.396      341.278       15.880      860.906
01/26/2015  16:35:00      -56.552      -14.883       -0.530       21.734       13.809       12.491      472.355      190.699      156.034        0.212        0.041       58.477       12.918        0.049      341.191       15.732      860.908
01/26/2015  16:36:00      -50.279      -17.430        0.876       30.952       19.083       16.360      958.056      364.143      267.651        0.221        0.079       53.215       19.256        0.131      341.185       15.722      860.892
01/26/2015  16:37:00      -77.924      -39.019      -11.438       13.425       10.370        9.236      180.230      107.529       85.302        0.405        0.019       87.147        4.320        0.002      341.171       15.700      860.871
01/26/2015  16:38:00      -55.166      -34.837       -8.346        8.914        8.462        9.212       79.464       71.606       84.858        0.228        0.012       65.245        6.074        0.009      341.166       15.691      860.842
01/26/2015  16:39:00      -57.182      -38.150      -10.299        8.420       16.278       10.808       70.888      264.981      116.806        0.264        0.023       68.740        5.082        0.005      341.201       15.749      860.840
01/26/2015  16:40:00      -27.459      -30.988       -0.566       17.689       15.763       14.004      312.887      248.486      196.104        0.124        0.038       41.404       12.265        0.088      341.219       15.781      860.833
01/26/2015  16:41:00      -10.868      -38.433       -4.473       16.642       17.046        9.723      276.966      290.571       94.543        0.114        0.033       39.940        7.926        0.039      341.268       15.863      860.836
01/26/2015  16:42:00       -3.660      -31.057        4.276       17.640       17.478       14.367      311.158      305.478      206.407        0.091        0.041       31.272       13.938        0.199      341.322       15.955      860.845
01/26/2015  16:43:00      -26.280      -42.581        0.622       20.958       14.777       14.199      439.242      218.353      201.607        0.168        0.043       50.038       12.322        0.061      341.199       15.746      860.855
01/26/2015  16:44:00      -51.722      -49.067      -10.183       19.129       13.776        8.182      365.935      189.788       66.945        0.290        0.031       71.293        8.137        0.013      341.137       15.643      860.866
01/26/2015  16:45:00      -22.985      -23.644        5.667       24.406       20.385       14.082      595.636      415.547      198.304        0.116        0.060       32.975       12.616        0.146      341.245       15.824      860.871
01/26/2015  16:46:00      -26.541      -35.007        5.411       21.734       21.511       14.591      472.372      462.727      212.894        0.155        0.057       43.931       13.349        0.092      341.194       15.737      860.869
01/26/2015  16:47:00      -47.325      -27.042       -0.565       14.293       13.255       11.636      204.289      175.701      135.406        0.174        0.026       54.506        5.341        0.010      341.223       15.787      860.870
01/26/2015  16:48:00      -15.516      -26.601        4.617       29.380       18.467       12.304      863.195      341.032      151.382        0.116        0.068       30.796        8.372        0.074      341.179       15.713      860.878
01/26/2015  16:49:00      -23.137      -36.922        0.607       27.739       18.036       10.245      769.435      325.282      104.966        0.155        0.060       43.572        8.891        0.042      341.187       15.724      860.898
01/26/2015  16:50:00       -4.809      -22.134       -1.239       21.794       22.280       16.382      474.957      496.401      268.381        0.088        0.062       22.650       13.177        0.338      341.226       15.792      860.931
01/26/2015  16:51:00      -11.079      -13.186       10.641       20.957       16.144       10.967      439.175      260.624      120.284        0.061        0.041       17.223        9.226        0.287      341.219       15.780      860.957
01/26/2015  16:52:00      -32.764      -23.621        4.205       24.699       28.663       19.172      610.046      821.572      367.573        0.172        0.090       40.391       16.848        0.174      341.132       15.633      860.975
01/26/2015  16:53:00      -22.878      -35.716        5.058       30.276       21.835       11.616      916.619      476.779      134.939        0.168        0.076       42.415        8.425        0.039      341.175       15.705      860.984
01/26/2015  16:54:00      -17.509      -20.821        5.376       30.791       18.217       14.019      948.113      331.862      196.525        0.112        0.074       27.204       14.679        0.291      341.188       15.728      860.985
01/26/2015  16:55:00       -2.995      -18.436        2.982       27.437       25.048       13.632      752.789      627.384      185.832        0.096        0.078       18.677       10.960        0.344      341.096       15.573      860.990
01/26/2015  16:56:00       -5.134      -17.239      -14.290       35.829       14.783       13.948     1283.733      218.529      194.545        0.111        0.085       17.987       18.658        1.076      341.085       15.554      860.996
01/26/2015  16:57:00      -21.002       -3.366       15.407       15.927       12.508       14.366      253.680      156.439      206.380        0.065        0.031       21.270       10.929        0.264      341.116       15.606      860.992
01/26/2015  16:58:00       -4.888        4.459       28.682       10.001       24.458       15.118      100.020      598.212      228.541        0.090        0.046        6.616       16.030        5.870      341.010       15.426      860.984
01/26/2015  16:59:00        5.617      -19.038      -11.422       13.073       18.796       12.097      170.898      353.292      146.336        0.060        0.034       19.849        9.415        0.225      341.099       15.576      860.964
01/26/2015  17:00:00      -33.336      -23.319       -7.008       20.981       15.955       11.975      440.201      254.575      143.402        0.127        0.042       40.682        4.625        0.013      341.295       15.909      860.935
01/26/2015  17:01:00       -5.375       -1.154       -2.996       20.725       16.521       15.502      429.523      272.946      240.304        0.049        0.047        5.497       12.187        4.915      341.144       15.653      860.904
01/26/2015  17:02:00       -1.782       -0.660       13.224        7.551       16.918       10.110       57.025      286.222      102.204        0.031        0.022        1.901        6.864       13.041      341.009       15.426      860.885
01/26/2015  17:03:00       -2.305      -16.936       -6.967        9.297       14.194       10.203       86.440      201.473      104.094        0.037        0.020       17.092        6.487        0.144      341.130       15.629      860.865
01/26/2015  17:04:00       17.833      -22.148       -1.718       16.998       19.870       11.434      288.946      394.798      130.729        0.081        0.041       28.435       11.779        0.172      341.125       15.622      860.855
01/26/2015  17:05:00       26.952        8.147        1.550       10.176        6.964        4.915      103.554       48.502       24.155        0.049        0.009       28.157        3.650        0.017      340.962       15.346      860.850
01/26/2015  17:06:00       22.450       17.077       -2.616       10.577        9.259        8.032      111.875       85.728       64.517        0.053        0.013       28.207        5.657        0.040      340.950       15.326      860.841
01/26/2015  17:07:00       10.627       14.999       -8.617       13.761       11.454        6.999      189.370      131.195       48.981        0.039        0.018       18.382        3.925        0.046      340.905       15.249      860.830
01/26/2015  17:08:00        8.648        6.969       -9.087       11.137       11.418        8.947      124.036      130.362       80.055        0.027        0.017       11.107        5.523        0.247      340.833       15.126      860.819
01/26/2015  17:09:00        9.338       36.445       -8.976        9.659       13.328        7.845       93.294      177.646       61.536        0.091        0.017       37.622        5.660        0.023      340.846       15.147      860.809
01/26/2015  17:10:00        7.931       46.605      -11.501        8.906        6.777        5.065       79.323       45.925       25.655        0.126        0.008       47.275        4.293        0.008      340.937       15.306      860.804
01/26/2015  17:11:00        8.503       52.009      -14.898        6.963        7.475        4.385       48.486       55.874       19.225        0.156        0.006       52.700        2.713        0.003      340.965       15.352      860.802
01/26/2015  17:12:00        5.399       46.985      -11.276        6.132        6.389        3.252       37.598       40.826       10.574        0.123        0.004       47.294        1.860        0.002      340.945       15.319      860.795
01/26/2015  17:13:00       10.683       39.959      -12.536        8.712        8.156        3.694       75.893       66.528       13.646        0.101        0.008       41.362        4.490        0.012      340.917       15.270      860.796
01/26/2015  17:14:00        5.580       35.388      -10.728        6.077        5.391        2.960       36.933       29.066        8.761        0.074        0.004       35.825        2.562        0.005      340.925       15.282      860.805
01/26/2015  17:15:00        8.143       30.129      -10.451       13.845       10.034        6.775      191.689      100.680       45.900        0.071        0.017       31.210        6.002        0.037      340.902       15.242      860.826
01/26/2015  17:16:00        7.280       37.071      -11.401       10.656       13.428        7.501      113.553      180.304       56.270        0.095        0.018       37.779        7.506        0.039      340.860       15.171      860.849
01/26/2015  17:17:00       10.822       44.591      -10.929       12.322       11.376        6.771      151.840      129.412       45.852        0.128        0.016       45.886        7.092        0.024      340.876       15.200      860.871
01/26/2015  17:18:00        0.173       31.754       -5.645        7.933       15.941        8.526       62.930      254.130       72.697        0.071        0.019       31.754        9.792        0.095      340.834       15.130      860.906
01/26/2015  17:19:00       -4.680        9.122       -3.525       15.622       14.556        6.144      244.046      211.869       37.745        0.031        0.025       10.253        7.089        0.478      340.823       15.107      860.970
01/26/2015  17:20:00      -14.704      -14.974        0.913       15.824       10.447        6.691      250.385      109.133       44.776        0.042        0.020       20.986        8.154        0.151      340.689       14.881      861.053
01/26/2015  17:21:00       21.912      -22.808       -1.531        6.692       14.492        7.963       44.781      210.019       63.409        0.066        0.016       31.628        4.513        0.020      340.727       14.949      861.122
01/26/2015  17:22:00       -3.763      -13.934        6.891       11.707        8.772       10.988      137.054       76.954      120.734        0.030        0.017       14.433        7.528        0.272      340.677       14.862      861.178
01/26/2015  17:23:00       30.815      -37.184       -5.743       21.048       18.661       12.359      443.039      348.221      152.736        0.165        0.047       48.293       12.049        0.062      340.719       14.934      861.215
01/26/2015  17:24:00       31.364      -28.421        4.757       21.616       16.507       12.911      467.271      272.483      166.690        0.136        0.045       42.326        9.982        0.056      340.736       14.963      861.262
01/26/2015  17:25:00       19.191      -50.692        1.514       21.359       35.122       22.582      456.225     1233.568      509.958        0.257        0.110       54.203       16.677        0.095      340.685       14.876      861.293
01/26/2015  17:26:00        0.480       -7.372       22.185       15.211       32.098       15.773      231.368     1030.301      248.783        0.103        0.076        7.387       10.306        1.946      340.604       14.740      861.297
01/26/2015  17:27:00        4.615       -8.027       14.283       20.399       13.634       11.462      416.138      185.890      131.367        0.051        0.037        9.259        5.950        0.413      340.577       14.694      861.299
01/26/2015  17:28:00      -52.618      -14.726       -5.849       23.897       17.536        9.994      571.056      307.502       99.888        0.200        0.049       54.640       11.938        0.048      340.524       14.603      861.271
01/26/2015  17:29:00      -83.950     -113.038      -13.206       33.214       48.420       20.850     1103.160     2344.479      434.704        1.194        0.194      140.801       14.252        0.010      340.468       14.510      861.251
01/26/2015  17:30:00      -58.212     -122.377       -2.157       33.342       62.753       21.741     1111.705     3937.958      472.660        1.194        0.276      135.517       20.808        0.024      340.545       14.638      861.263
01/26/2015  17:31:00     -130.017      -63.214       -1.921       42.976       46.695       20.922     1846.910     2180.420      437.713        1.268        0.223      144.569       22.166        0.024      340.377       14.355      861.267
01/26/2015  17:32:00     -145.615     -104.465       -4.606       60.006       39.467       32.395     3600.729     1557.648     1049.417        1.917        0.310      179.212       31.502        0.031      340.348       14.305      861.276
01/26/2015  17:33:00     -154.347      -87.595      -11.745       29.973       40.660       22.328      898.370     1653.258      498.528        1.734        0.153      177.471        9.518        0.003      340.308       14.238      861.295
01/26/2015  17:34:00     -127.651      -64.250        0.158       42.103       40.519       26.664     1772.646     1641.826      710.987        1.227        0.206      142.909       28.626        0.040      340.270       14.175      861.296
01/26/2015  17:35:00      -99.747      -66.039       -5.424       62.792       35.525       24.345     3942.880     1262.016      592.688        1.007        0.290      119.627       20.970        0.031      340.231       14.109      861.309
01/26/2015  17:36:00      -91.168      -20.537       -4.449       38.165       27.154       19.223     1456.542      737.366      369.525        0.566        0.128       93.453       12.710        0.018      340.146       13.964      861.320
01/26/2015  17:37:00     -127.555      -40.747       -1.343       47.932       36.871       23.660     2297.434     1359.445      559.816        1.107        0.211      133.905       21.122        0.025      340.170       14.005      861.337
01/26/2015  17:38:00     -108.890      -54.659        1.828       48.705       38.395       24.670     2372.146     1474.139      608.606        0.965        0.223      121.838       22.808        0.035      340.146       13.966      861.360
01/26/2015  17:39:00      -57.707      -59.063        8.561       45.666       39.225       26.659     2085.404     1538.574      710.703        0.561        0.217       82.574       27.363        0.110      340.115       13.912      861.377
01/26/2015  17:40:00     -111.856      -84.462       -5.942       62.736       38.836       32.762     3935.805     1508.257     1073.369        1.310        0.326      140.162       34.942        0.062      340.148       13.967      861.415
01/26/2015  17:41:00     -113.064      -80.664        3.747       59.004       42.161       27.430     3481.435     1777.536      752.403        1.266        0.301      138.889       27.225        0.038      340.148       13.968      861.423
01/26/2015  17:42:00     -121.749      -84.284       -4.296       37.718       47.443       24.204     1422.636     2250.824      585.823        1.310        0.213      148.076       22.148        0.022      340.161       13.991      861.432
01/26/2015  17:43:00     -129.078      -85.484       -8.636       38.745       38.340       26.063     1501.176     1469.976      679.265        1.385        0.183      154.818       24.462        0.025      340.112       13.909      861.417
01/26/2015  17:44:00     -170.653      -51.566       -5.855       37.191       32.191       23.550     1383.148     1036.252      554.580        1.739        0.149      178.274       19.930        0.012      339.916       13.578      861.391
01/26/2015  17:45:00     -153.270      -49.308        0.075       52.892       38.626       25.928     2797.608     1491.985      672.242        1.544        0.248      161.006       26.655        0.027      339.876       13.510      861.374
01/26/2015  17:46:00     -144.827      -73.100        3.909       52.684       35.934       29.603     2775.631     1291.270      876.361        1.564        0.247      162.230       29.146        0.032      339.796       13.376      861.342
01/26/2015  17:47:00     -149.533      -56.544       -9.934       32.591       34.649       22.921     1062.162     1200.565      525.392        1.422        0.139      159.867       18.211        0.013      339.669       13.161      861.307
01/26/2015  17:48:00     -141.980      -21.741      -18.506       25.048       25.637       16.897      627.410      657.259      285.518        1.127        0.079      143.635       11.814        0.007      339.638       13.108      861.279
01/26/2015  17:49:00     -106.913        1.205      -10.447       40.807       28.214       21.333     1665.230      796.014      455.103        0.723        0.146      106.920       20.499        0.037      339.520       12.910      861.274
01/26/2015  17:50:00     -137.695       -3.910      -13.854       23.224       17.100       12.825      539.342      292.414      164.489        1.008        0.050      137.750       10.647        0.006      339.462       12.811      861.246
01/26/2015  17:51:00     -133.085       12.663      -14.954       22.188       19.546       13.755      492.294      382.041      189.210        0.958        0.053      133.686        9.526        0.005      339.394       12.696      861.223
01/26/2015  17:52:00     -117.223       25.452       -9.433       29.104       27.471       19.652      847.032      754.633      386.188        0.823        0.099      119.955       12.104        0.010      339.298       12.534      861.185
01/26/2015  17:53:00      -90.346      -10.091        2.598       40.569       35.357       20.518     1645.816     1250.131      420.984        0.579        0.166       90.908       20.584        0.051      339.200       12.371      861.160
01/26/2015  17:54:00      -75.021        2.967        3.270       38.315       36.380       26.460     1468.049     1323.487      700.138        0.457        0.175       75.079       24.751        0.109      339.046       12.111      861.150
01/26/2015  17:55:00     -108.601       -6.955      -14.655       36.472       25.934       17.458     1330.180      672.552      304.765        0.718        0.115      108.823       14.428        0.018      339.025       12.076      861.151
01/26/2015  17:56:00     -110.333       -3.961      -18.879       42.827       30.296       28.382     1834.109      917.863      805.541        0.805        0.178      110.404       27.514        0.062      338.943       11.938      861.158
01/26/2015  17:57:00     -143.150      -25.871      -16.003       35.884       33.672       21.362     1287.659     1133.812      456.333        1.215        0.144      145.469       15.960        0.012      338.936       11.927      861.157
01/26/2015  17:58:00     -142.750      -16.481      -16.933       43.803       36.810       21.516     1918.673     1354.959      462.941        1.234        0.187      143.698       18.328        0.016      338.916       11.892      861.161
01/26/2015  17:59:00     -137.585       10.674      -13.668       31.598       29.411       14.508      998.446      865.010      210.474        1.065        0.104      137.998       11.909        0.007      339.104       12.208      861.144
01/26/2015  18:00:00     -112.860       42.207      -18.921       45.558       29.474       20.592     2075.504      868.727      424.020        0.912        0.168      120.494       17.855        0.022      339.118       12.232      861.119
01/26/2015  18:01:00     -129.349       11.896      -21.169       30.033       25.921       17.418      902.005      671.907      303.394        0.960        0.094      129.895       12.188        0.009      339.052       12.122      861.114
01/26/2015  18:02:00     -126.650       -4.082      -20.725       49.465       36.036       17.385     2446.828     1298.604      302.254        1.027        0.202      126.716       18.993        0.022      339.147       12.280      861.121
01/26/2015  18:03:00     -102.427      -22.410      -15.390       38.060       34.330       20.333     1448.540     1178.524      413.422        0.713        0.152      104.850       17.515        0.028      339.008       12.049      861.146
01/26/2015  18:04:00      -99.036       -8.752       -8.153       50.635       27.306       21.961     2563.935      745.624      482.290        0.687        0.190       99.422       23.979        0.058      338.908       11.880      861.173
01/26/2015  18:05:00     -132.667       -6.022      -15.179       38.816       29.756       22.627     1506.710      885.390      511.972        1.039        0.145      132.804       17.373        0.017      338.926       11.909      861.180
01/26/2015  18:06:00     -153.927       -0.619      -22.298       37.228       27.512       19.945     1385.957      756.899      397.809        1.337        0.127      153.928       12.437        0.007      338.892       11.852      861.181
01/26/2015  18:07:00     -144.357       12.745      -18.711       34.475       28.885       24.007     1188.560      834.326      576.335        1.197        0.130      144.919       21.540        0.022      338.878       11.829      861.174
01/26/2015  18:08:00     -146.824       11.551      -14.896       33.203       27.904       16.463     1102.419      778.613      271.043        1.203        0.108      147.278       15.908        0.012      338.908       11.879      861.163
01/26/2015  18:09:00     -132.799       10.406      -16.019       39.007       26.557       22.704     1521.545      705.285      515.494        1.037        0.137      133.206       21.110        0.025      338.912       11.885      861.164
01/26/2015  18:10:00     -168.089       20.782      -19.124       33.738       24.479       16.726     1138.253      599.219      279.759        1.553        0.101      169.369       14.004        0.007      338.845       11.773      861.162
01/26/2015  18:11:00     -124.841       16.056      -19.090       42.620       30.518       22.043     1816.439      931.376      485.915        0.972        0.162      125.870       15.604        0.015      338.787       11.677      861.150
01/26/2015  18:12:00     -117.105       17.241      -11.351       43.742       35.197       24.791     1913.361     1238.844      614.611        0.895        0.188      118.367       19.228        0.026      338.777       11.659      861.146
01/26/2015  18:13:00     -139.329       34.002      -12.842       41.122       33.037       22.101     1691.003     1091.471      488.451        1.200        0.164      143.418        9.434        0.004      338.742       11.599      861.142
01/26/2015  18:14:00     -151.423       24.765      -14.121       44.590       36.828       25.916     1988.282     1356.309      671.619        1.388        0.201      153.435       19.882        0.017      338.736       11.589      861.128
01/26/2015  18:15:00     -182.025       12.438      -21.604       42.469       32.894       21.580     1803.582     1082.004      465.713        1.855        0.168      182.450       16.681        0.008      338.714       11.553      861.122
01/26/2015  18:16:00     -236.078       46.925      -17.059       31.727       36.494       20.858     1006.580     1331.786      435.054        3.050        0.139      240.697       13.159        0.003      338.751       11.611      861.118
01/26/2015  18:17:00     -212.180       28.246      -24.952       47.028       45.056       24.261     2211.656     2030.068      588.608        2.563        0.242      214.052       20.044        0.009      338.719       11.558      861.116
01/26/2015  18:18:00     -189.294       21.396      -15.767       71.147       58.555       26.062     5061.896     3428.655      679.239        2.285        0.458      190.499       26.682        0.020      338.714       11.552      861.087
01/26/2015  18:19:00     -202.686       36.075      -19.767       44.433       38.664       18.626     1974.256     1494.914      346.911        2.329        0.191      205.872       15.624        0.006      338.721       11.563      861.068
01/26/2015  18:20:00     -188.746       26.223      -23.581       39.961       40.576       23.267     1596.910     1646.395      541.355        2.033        0.189      190.559       20.354        0.011      338.730       11.579      861.041
01/26/2015  18:21:00      -80.532       -0.428       -7.632       45.414       37.177       24.206     2062.423     1382.136      585.948        0.529        0.202       80.533       22.179        0.076      338.636       11.422      861.035
01/26/2015  18:22:00     -119.919        2.297       -7.305       57.268       33.820       28.595     3279.667     1143.796      817.683        0.984        0.262      119.941       28.597        0.057      338.617       11.390      861.043
01/26/2015  18:23:00     -138.193       20.078      -15.051       31.986       32.759       19.950     1023.099     1073.147      397.996        1.111        0.125      139.644       13.631        0.010      338.504       11.201      861.057
01/26/2015  18:24:00     -102.441       29.228      -10.803       44.123       36.960       20.405     1946.818     1366.030      416.360        0.760        0.186      106.529       17.690        0.028      338.405       11.033      861.081
01/26/2015  18:25:00      -79.994       11.928       -4.541       40.406       28.419       18.370     1632.636      807.634      337.460        0.467        0.139       80.879       18.073        0.050      338.420       11.060      861.094
01/26/2015  18:26:00      -72.746        5.597        1.899       38.537       23.309       22.133     1485.070      543.302      489.889        0.392        0.126       72.961       22.424        0.094      338.442       11.096      861.093
01/26/2015  18:27:00      -57.725      -12.861       -1.376       35.465       20.872       13.671     1257.770      435.633      186.909        0.269        0.094       59.140       13.097        0.049      338.448       11.107      861.110
01/26/2015  18:28:00      -77.943      -33.142       -2.682       18.965       20.607       10.958      359.667      424.656      120.079        0.404        0.045       84.696        9.027        0.011      338.475       11.151      861.122
01/26/2015  18:29:00      -91.531      -40.293      -10.805       15.808       13.214        9.530      249.891      174.602       90.827        0.532        0.026      100.007        2.703        0.001      338.586       11.337      861.132
01/26/2015  18:30:00      -70.118      -26.493       -4.097       18.361       17.566       11.008      337.135      308.573      121.180        0.320        0.038       74.956       10.245        0.019      338.623       11.398      861.159
01/26/2015  18:31:00      -87.529      -41.225       -4.347       23.610       16.192       12.790      557.440      262.178      163.581        0.518        0.049       96.751        4.463        0.002      338.774       11.654      861.178
01/26/2015  18:32:00     -102.667      -49.773      -12.794       12.320       12.149       14.602      151.782      147.597      213.224        0.685        0.026      114.096        8.379        0.005      338.817       11.726      861.195
01/26/2015  18:33:00      -79.445      -32.290      -14.701       12.142       11.417        8.338      147.420      130.345       69.522        0.396        0.017       85.756        5.228        0.004      338.884       11.837      861.208
01/26/2015  18:34:00      -67.388      -44.064      -11.654       11.568       15.795        9.136      133.820      249.493       83.463        0.354        0.023       80.515        7.818        0.009      338.909       11.880      861.217
01/26/2015  18:35:00      -63.239      -64.639       -5.826       10.961       11.260        8.818      120.144      126.777       77.753        0.427        0.016       90.429        6.136        0.005      339.017       12.063      861.236
01/26/2015  18:36:00      -61.158      -55.391       -1.670       24.747       21.406       11.524      612.432      458.211      132.804        0.401        0.060       82.513       11.317        0.019      338.934       11.924      861.249
01/26/2015  18:37:00      -68.219      -47.589       -8.170       14.265       12.631       11.268      203.504      159.542      126.961        0.374        0.025       83.178        6.869        0.007      338.999       12.031      861.268
01/26/2015  18:38:00      -38.290      -38.431       -1.743       13.641       13.601       10.931      186.064      184.979      119.486        0.172        0.025       54.250        5.680        0.011      338.979       11.998      861.294
01/26/2015  18:39:00      -46.020      -39.777       -7.295       19.581       18.719       10.383      383.432      350.409      107.799        0.230        0.042       60.828        2.674        0.002      339.148       12.283      861.306
01/26/2015  18:40:00      -24.327      -13.329        5.410       28.586       17.032       16.008      817.184      290.077      256.270        0.108        0.068       27.739        9.907        0.128      339.014       12.059      861.308
01/26/2015  18:41:00      -40.769      -32.105        4.498       32.766       22.394       16.615     1073.624      501.508      276.043        0.228        0.093       51.893       16.269        0.098      338.864       11.805      861.305
01/26/2015  18:42:00     -111.583      -62.271       -5.565       32.190       27.318       17.624     1036.217      746.261      310.607        0.923        0.105      127.783       18.615        0.021      338.979       11.999      861.297
01/26/2015  18:43:00     -104.394      -35.022        1.357       42.153       24.008       17.865     1776.875      576.370      319.158        0.740        0.134      110.112       20.487        0.035      338.944       11.939      861.285
01/26/2015  18:44:00      -88.455       -7.953       -2.256       29.333       29.482       12.678      860.402      869.179      160.733        0.489        0.095       88.812        9.245        0.011      338.832       11.749      861.290
01/26/2015  18:45:00     -118.940       17.062      -15.590       18.541       12.742       12.032      343.776      162.351      144.769        0.767        0.033      120.157        8.909        0.005      338.834       11.756      861.279
01/26/2015  18:46:00      -57.357        4.228       -2.744       40.183       21.299       16.577     1614.650      453.639      274.800        0.283        0.117       57.513       18.619        0.105      338.732       11.584      861.274
01/26/2015  18:47:00      -50.283      -13.014        3.134       23.164       22.208       16.081      536.554      493.210      258.614        0.200        0.064       51.940       15.337        0.087      338.535       11.253      861.273
01/26/2015  18:48:00      -37.524        7.816       -3.094       24.565       16.897       14.513      603.420      285.514      210.622        0.129        0.055       38.330       15.584        0.165      338.524       11.235      861.273
01/26/2015  18:49:00      -87.187      -23.105      -17.931       19.939       16.697       12.072      397.580      278.781      145.742        0.464        0.041       90.197       12.743        0.020      338.508       11.207      861.266
01/26/2015  18:50:00     -108.589      -27.826      -10.471       23.834       18.564       12.670      568.074      344.638      160.527        0.687        0.054      112.097        8.964        0.006      338.309       10.872      861.250
01/26/2015  18:51:00     -118.406      -29.073       -9.454       32.188       22.241       18.856     1036.054      494.654      355.556        0.842        0.094      121.923       13.081        0.012      338.170       10.640      861.230
01/26/2015  18:52:00     -100.923      -18.098       -4.065       38.318       30.508       25.674     1468.300      930.723      659.169        0.679        0.153      102.533       17.770        0.030      338.135       10.582      861.216
01/26/2015  18:53:00     -148.308       17.324      -15.304       60.803       47.069       21.081     3696.954     2215.480      444.417        1.444        0.318      149.316       19.626        0.017      338.188       10.670      861.196
01/26/2015  18:54:00     -164.354       11.070      -18.241       58.625       36.662       19.388     3436.847     1344.134      375.899        1.631        0.258      164.726       23.844        0.021      338.238       10.753      861.189
01/26/2015  18:55:00     -126.755       11.286      -15.650       32.320       32.637       22.700     1044.615     1065.188      515.291        0.953        0.131      127.257       19.195        0.023      338.083       10.493      861.199
01/26/2015  18:56:00     -123.539       14.429       -9.779       47.333       32.064       20.927     2240.415     1028.116      437.947        0.964        0.185      124.379       24.231        0.038      338.103       10.527      861.196
01/26/2015  18:57:00      -83.913       11.699       -7.561       63.165       28.213       13.066     3989.830      795.975      170.732        0.610        0.248       84.724        5.307        0.004      338.160       10.621      861.202
01/26/2015  18:58:00      -50.196       18.980        0.934       30.373       22.811       17.748      922.522      520.334      314.982        0.232        0.088       53.664       14.745        0.075      338.179       10.656      861.200
01/26/2015  18:59:00      -46.485       27.551       -9.402       16.415       31.068       12.280      269.446      965.194      150.798        0.220        0.069       54.036        8.628        0.025      338.424       11.066      861.188
01/26/2015  19:00:00      -58.077        2.780       -8.964       13.133       12.620       11.630      172.467      159.269      135.253        0.196        0.023       58.143        8.220        0.020      338.313       10.879      861.173
01/26/2015  19:01:00      -74.292      -14.192      -11.272       28.887       19.715       15.608      834.474      388.676      243.624        0.366        0.073       75.636       15.470        0.042      338.107       10.533      861.150
01/26/2015  19:02:00     -104.513        0.408      -21.929       33.051       16.961       18.801     1092.389      287.673      353.474        0.657        0.087      104.514       18.598        0.032      338.004       10.362      861.142
01/26/2015  19:03:00      -68.682       -6.011       -6.869       38.612       26.688       17.556     1490.870      712.242      308.199        0.366        0.126       68.944       18.801        0.074      337.823       10.058      861.142
01/26/2015  19:04:00      -64.324      -35.009       -7.191       28.368       28.467       19.673      804.762      810.347      387.042        0.371        0.100       73.234        8.081        0.012      337.760        9.952      861.142
01/26/2015  19:05:00      -74.199      -30.041       -7.760       27.241       36.704       21.568      742.082     1347.166      465.174        0.451        0.128       80.050       16.767        0.044      337.808       10.032      861.157
01/26/2015  19:06:00      -60.656      -28.200       -7.945       30.630       21.896       16.695      938.174      479.428      278.735        0.312        0.085       66.891       12.338        0.034      337.833       10.074      861.185
01/26/2015  19:07:00      -56.771      -21.028       -9.644        9.633        8.436        9.557       92.793       71.174       91.342        0.201        0.013       60.540        2.263        0.001      337.833       10.073      861.197
01/26/2015  19:08:00      -41.684      -18.878      -11.375        7.815       18.189        5.219       61.068      330.836       27.236        0.132        0.021       45.760        1.324        0.001      338.078       10.487      861.226
01/26/2015  19:09:00      -40.340      -32.090      -12.686       13.375        9.426        8.632      178.885       88.852       74.518        0.158        0.017       51.547        6.004        0.014      338.032       10.407      861.249
01/26/2015  19:10:00      -75.818      -29.921      -12.007       16.486       14.414        9.540      271.775      207.751       91.021        0.368        0.029       81.509        4.253        0.003      337.992       10.341      861.284
01/26/2015  19:11:00      -85.124      -23.915       -7.588       17.542       20.223       11.122      307.723      408.982      123.699        0.436        0.042       88.419        7.191        0.007      337.925       10.228      861.322
01/26/2015  19:12:00      -75.096      -18.269      -10.609       21.764       23.660       15.268      473.685      559.785      233.119        0.368        0.063       77.287       10.239        0.018      337.855       10.111      861.332
01/26/2015  19:13:00     -112.805       -5.422      -13.542       26.679       22.502       15.330      711.773      506.323      235.011        0.720        0.073      112.935        9.548        0.007      337.918       10.217      861.341
01/26/2015  19:14:00     -131.402       10.451      -21.281       19.476       19.203       12.901      379.322      368.755      166.446        0.937        0.046      131.817        4.374        0.001      338.038       10.420      861.361
01/26/2015  19:15:00      -91.961       21.363      -12.052       41.581       19.247       13.770     1728.956      370.440      189.600        0.567        0.114       94.410        7.603        0.006      338.503       11.199      861.376
01/26/2015  19:16:00     -109.446        9.242       -8.526       22.737       21.898       14.030      516.959      479.509      196.838        0.666        0.060      109.835       12.971        0.014      338.003       10.358      861.406
01/26/2015  19:17:00      -68.049      -14.394      -10.962       15.183       15.191       12.011      230.519      230.771      144.274        0.278        0.030       69.555        4.591        0.004      337.994       10.343      861.452
01/26/2015  19:18:00      -49.154      -23.153      -12.723       13.003       10.737       10.072      169.079      115.284      101.451        0.175        0.019       54.334        3.867        0.005      338.069       10.469      861.482
01/26/2015  19:19:00      -43.766      -11.079       -7.020       26.633       16.292        8.550      709.319      265.422       73.103        0.157        0.052       45.147        7.798        0.030      338.146       10.600      861.513
01/26/2015  19:20:00      -73.619      -29.352      -13.849       38.592       11.034       12.098     1489.350      121.756      146.370        0.412        0.088       79.255       15.313        0.037      338.025       10.397      861.528
01/26/2015  19:21:00     -111.047      -34.644      -15.506       14.309       10.671       10.754      204.760      113.869      115.639        0.710        0.022      116.326        3.507        0.001      337.930       10.237      861.542
01/26/2015  19:22:00      -96.136      -36.098      -11.382       18.873       24.447       16.459      356.176      597.657      270.891        0.595        0.061      102.689        8.973        0.008      337.872       10.139      861.557
01/26/2015  19:23:00     -104.322      -37.887      -16.622       22.459       16.295       12.632      504.428      265.521      159.564        0.676        0.046      110.989       10.780        0.009      337.773        9.973      861.558
01/26/2015  19:24:00     -105.027      -39.329      -11.646       23.227       23.407       13.570      539.492      547.889      184.148        0.699        0.064      112.149        8.860        0.006      337.719        9.882      861.549
01/26/2015  19:25:00     -114.147      -36.130      -11.781       22.286       14.588       11.352      496.653      212.821      128.874        0.766        0.042      119.728       10.879        0.008      337.676        9.810      861.552
01/26/2015  19:26:00      -99.890      -43.471        6.270       32.357       19.281       17.626     1046.954      371.740      310.672        0.682        0.086      108.939       17.815        0.027      337.738        9.914      861.554
01/26/2015  19:27:00      -82.299      -51.370       -2.561       51.457       27.272       17.474     2647.850      743.776      305.358        0.656        0.185       97.016       21.443        0.049      337.769        9.965      861.551
01/26/2015  19:28:00      -93.857      -55.948       -1.125       43.487       22.453       15.791     1891.116      504.126      249.344        0.729        0.132      109.267       18.416        0.028      337.838       10.084      861.547
01/26/2015  19:29:00      -92.251      -60.512       -0.997       41.662       28.178       22.373     1735.751      793.998      500.563        0.760        0.152      110.326       24.516        0.049      337.859       10.116      861.539
01/26/2015  19:30:00      -84.931      -63.449       -1.236       40.078       36.041       21.495     1606.234     1298.934      462.027        0.730        0.168      106.014       23.115        0.048      337.937       10.250      861.525
01/26/2015  19:31:00     -105.072      -65.487       -4.753       42.809       25.443       21.195     1832.594      647.329      449.234        0.914        0.146      123.809       14.176        0.013      337.966       10.297      861.522
01/26/2015  19:32:00     -112.557      -58.804        1.660       32.663       28.269       18.918     1066.850      799.126      357.883        0.918        0.111      126.992       17.765        0.020      337.922       10.224      861.514
01/26/2015  19:33:00     -102.576      -27.367       -8.305       32.186       26.238       15.195     1035.971      688.431      230.890        0.665        0.098      106.164        9.460        0.008      337.976       10.316      861.496
01/26/2015  19:34:00     -121.634      -21.644       -4.791       27.446       17.634       14.744      753.283      310.970      217.383        0.828        0.064      123.545       14.871        0.014      337.895       10.177      861.479
01/26/2015  19:35:00      -99.772      -10.518       -4.965       28.822       19.722       17.072      830.721      388.969      291.444        0.580        0.076      100.325       17.040        0.029      337.798       10.014      861.474
01/26/2015  19:36:00     -120.281      -15.962       -9.128       24.221       21.112       13.624      586.637      445.731      185.600        0.801        0.061      121.336        7.885        0.004      337.832       10.072      861.460
01/26/2015  19:37:00     -147.846      -22.280      -14.120       24.890       17.477       18.498      619.497      305.456      342.180        1.191        0.063      149.515       16.126        0.012      337.703        9.857      861.450
01/26/2015  19:38:00     -154.413      -39.478       -7.506       28.215       21.114       13.640      796.082      445.794      186.042        1.344        0.071      159.379       13.766        0.007      337.661        9.787      861.453
01/26/2015  19:39:00     -129.808      -23.724       -1.540       49.691       31.433       19.908     2469.208      988.027      396.313        1.063        0.193      131.959       23.775        0.032      337.594        9.673      861.467
01/26/2015  19:40:00     -131.379      -48.304       -3.996       31.953       30.599       17.422     1020.975      936.314      303.510        1.093        0.113      139.978       12.820        0.008      337.630        9.734      861.488
01/26/2015  19:41:00     -107.826      -36.456       -0.636       24.671       18.367       12.666      608.640      337.355      160.417        0.703        0.055      113.822       12.548        0.012      337.753        9.940      861.527
01/26/2015  19:42:00      -90.653      -56.068        0.501       23.848       19.405       14.298      568.732      376.559      204.437        0.626        0.057      106.591       13.189        0.015      337.837       10.080      861.558
01/26/2015  19:43:00     -115.281      -46.679        2.454       28.022       23.912       16.512      785.223      571.795      272.647        0.855        0.081      124.373       16.314        0.017      337.915       10.212      861.584
01/26/2015  19:44:00     -101.607      -49.467       -1.276       29.083       16.769       14.190      845.845      281.183      201.348        0.705        0.066      113.009       13.256        0.014      337.853       10.108      861.617
01/26/2015  19:45:00      -94.289      -51.998        0.505       31.864       27.691       20.315     1015.339      766.788      412.712        0.689        0.110      107.676       19.244        0.032      337.723        9.890      861.633
01/26/2015  19:46:00      -82.987      -59.674        4.167       41.808       41.336       21.181     1747.873     1708.630      448.631        0.718        0.195      102.214       19.551        0.037      337.685        9.827      861.642
01/26/2015  19:47:00      -82.450      -57.966       10.206       40.669       35.038       24.926     1654.007     1227.677      621.324        0.688        0.175      100.788       23.023        0.052      337.686        9.828      861.658
01/26/2015  19:48:00     -108.614      -58.734        4.613       38.760       28.522       19.664     1502.307      813.507      386.690        0.898        0.135      123.478       18.296        0.022      337.694        9.842      861.682
01/26/2015  19:49:00     -104.367      -41.478        0.449       36.764       27.712       17.250     1351.565      767.957      297.556        0.751        0.121      112.307       19.320        0.030      337.645        9.759      861.700
01/26/2015  19:50:00     -112.624      -52.504       -2.886       26.065       27.961       17.749      679.379      781.823      315.013        0.861        0.089      124.262       14.780        0.014      337.662        9.786      861.708
01/26/2015  19:51:00     -113.867      -43.911       -1.723       28.267       23.728       15.914      799.036      563.030      253.242        0.826        0.081      122.041       15.853        0.017      337.628        9.730      861.711
01/26/2015  19:52:00     -111.736      -20.552       -6.837       28.055       21.397       12.905      787.068      457.815      166.527        0.718        0.071      113.610       10.608        0.009      337.574        9.640      861.712
01/26/2015  19:53:00      -94.242      -46.170       -9.590       20.050       23.008       13.351      401.992      529.364      178.248        0.611        0.055      104.944        8.979        0.007      337.496        9.510      861.725
01/26/2015  19:54:00      -76.203      -35.743      -18.148       14.257       12.799        9.638      203.257      163.817       92.884        0.394        0.023       84.170        6.179        0.005      337.471        9.468      861.728
01/26/2015  19:55:00      -55.475      -41.021       -9.697       26.551       16.654       11.519      704.932      277.353      132.687        0.298        0.056       68.994        5.288        0.006      337.505        9.524      861.735
01/26/2015  19:56:00      -52.818      -62.237       -4.157       28.861       23.508       19.516      832.963      552.623      380.886        0.422        0.088       81.628       16.478        0.041      337.439        9.414      861.765
01/26/2015  19:57:00     -112.856      -63.959      -16.789       23.873       22.259       10.869      569.930      495.458      118.125        0.915        0.059      129.720        9.598        0.005      337.419        9.381      861.798
01/26/2015  19:58:00     -139.500      -43.607      -14.233       22.740       16.199       14.768      517.094      262.405      218.107        1.128        0.050      146.157       12.743        0.008      337.418        9.379      861.829
01/26/2015  19:59:00     -114.568      -37.456       -9.994       39.398       21.925       20.542     1552.185      480.704      421.957        0.854        0.123      120.535       14.432        0.014      337.396        9.341      861.846
01/26/2015  20:00:00     -120.744      -73.239       -1.367       48.365       29.068       27.440     2339.177      844.941      752.963        1.194        0.197      141.220       24.567        0.030      337.413        9.370      861.849
01/26/2015  20:01:00     -142.366      -73.557       -2.090       35.013       25.249       20.855     1225.907      637.504      434.918        1.399        0.115      160.246       16.820        0.011      337.480        9.482      861.827
01/26/2015  20:02:00     -135.305      -45.685       -7.678       43.882       37.689       20.883     1925.632     1420.469      436.097        1.212        0.189      142.810       25.104        0.031      337.376        9.307      861.785
01/26/2015  20:03:00     -125.743      -39.216       -1.041       41.290       33.346       20.508     1704.834     1111.939      420.587        1.029        0.162      131.716       21.989        0.028      337.338        9.244      861.744
01/26/2015  20:04:00     -140.637      -20.559       -0.997       52.220       33.086       26.325     2726.920     1094.667      693.023        1.236        0.226      142.132       30.119        0.045      337.300        9.181      861.714
01/26/2015  20:05:00     -142.283      -32.917      -13.425       32.102       37.083       18.492     1030.513     1375.118      341.959        1.213        0.137      146.041       14.916        0.010      337.268        9.126      861.710
01/26/2015  20:06:00     -112.138       -7.680       -4.201       39.425       24.405       22.403     1554.311      595.592      501.900        0.765        0.133      112.401       23.131        0.042      337.227        9.058      861.706
01/26/2015  20:07:00     -127.672      -28.202      -12.056       31.454       24.528       19.239      989.329      601.630      370.142        0.960        0.098      130.749       16.361        0.016      337.238        9.077      861.712
01/26/2015  20:08:00     -119.518      -15.357      -13.335       30.299       26.105       19.136      918.040      681.497      366.175        0.833        0.098      120.500       13.857        0.013      337.200        9.014      861.723
01/26/2015  20:09:00     -153.666       -2.110      -16.852       29.034       29.694       18.419      842.973      881.713      339.260        1.298        0.103      153.681       11.394        0.005      337.240        9.081      861.725
01/26/2015  20:10:00     -117.281       17.438      -12.688       50.138       42.579       21.775     2513.783     1812.999      474.171        0.951        0.240      118.571       17.586        0.022      337.300        9.181      861.737
01/26/2015  20:11:00      -82.611       13.558       -1.997       45.721       31.703       26.519     2090.389     1005.086      703.235        0.540        0.190       83.716       25.468        0.093      337.311        9.199      861.738
01/26/2015  20:12:00      -54.057      -14.862        3.400       34.215       25.722       16.144     1170.648      661.617      260.617        0.262        0.105       56.063       12.770        0.052      337.315        9.207      861.742
01/26/2015  20:13:00      -51.223      -29.494        5.002       34.555       26.436       21.263     1194.041      698.870      452.128        0.293        0.117       59.108       19.420        0.108      337.243        9.087      861.757
01/26/2015  20:14:00      -56.037      -26.931      -11.104       28.481       27.386       17.581      811.189      750.015      309.107        0.293        0.094       62.173       13.502        0.047      337.248        9.094      861.755
01/26/2015  20:15:00      -60.532      -23.803      -13.271       24.983       15.845       18.079      624.139      251.063      326.845        0.280        0.060       65.044       16.278        0.063      337.208        9.030      861.753
01/26/2015  20:16:00      -90.511      -33.048      -13.385       22.221       22.023       13.348      493.781      485.022      178.162        0.531        0.058       96.356        5.915        0.004      337.243        9.086      861.744
01/26/2015  20:17:00      -90.497      -25.630      -21.240       19.929       19.818       13.126      397.177      392.755      172.302        0.513        0.048       94.057       10.615        0.013      337.227        9.061      861.751
01/26/2015  20:18:00      -96.156      -16.883      -12.453       25.499       21.890       16.747      650.206      479.173      280.452        0.555        0.070       97.627        7.933        0.007      337.275        9.141      861.745
01/26/2015  20:19:00      -70.697      -17.502       -5.454       24.442       18.913       18.259      597.391      357.695      333.393        0.331        0.064       72.831       16.650        0.052      337.292        9.168      861.734
01/26/2015  20:20:00      -82.490      -11.399       -9.564       18.982       18.181       14.875      360.298      330.550      221.272        0.397        0.046       83.274        8.222        0.010      337.296        9.174      861.744
01/26/2015  20:21:00      -55.038      -16.621       -5.816       13.560       12.836       10.691      183.866      164.756      114.308        0.190        0.023       57.493        8.344        0.021      337.306        9.192      861.757
01/26/2015  20:22:00      -35.817      -23.340      -10.270       14.161       12.118        9.428      200.522      146.845       88.892        0.118        0.022       42.751        4.380        0.010      337.313        9.203      861.777
01/26/2015  20:23:00      -30.374      -25.927       -6.562       24.517       11.954       11.410      601.082      142.891      130.187        0.126        0.044       39.935       12.736        0.102      337.375        9.307      861.791
01/26/2015  20:24:00      -60.698      -28.528      -16.386       12.059        9.492        6.485      145.409       90.105       42.052        0.252        0.014       67.068        3.485        0.003      337.463        9.454      861.802
01/26/2015  20:25:00      -83.518      -29.328      -14.493       13.651       11.690        8.286      186.342      136.647       68.650        0.422        0.020       88.518        4.733        0.003      337.391        9.334      861.808
01/26/2015  20:26:00      -93.280      -25.971      -12.835       25.045       18.824       11.725      627.269      354.352      137.484        0.533        0.056       96.828       10.478        0.012      337.270        9.132      861.803
01/26/2015  20:27:00     -115.534      -41.751      -17.554       15.193       15.876       11.306      230.818      252.051      127.826        0.800        0.031      122.846        9.138        0.006      337.210        9.032      861.803
01/26/2015  20:28:00     -139.329      -32.959      -16.355       25.595       14.933       10.216      655.107      222.981      104.374        1.087        0.049      143.175       10.212        0.005      337.178        8.977      861.787
01/26/2015  20:29:00     -133.301      -23.814      -18.293       11.764       14.254       10.873      138.390      203.181      118.212        0.957        0.023      135.411        6.940        0.003      337.182        8.984      861.764
01/26/2015  20:30:00     -155.527      -17.668      -22.825       18.641       11.561       11.975      347.485      133.655      143.406        1.282        0.031      156.527        6.274        0.002      337.151        8.932      861.734
01/26/2015  20:31:00     -121.448      -30.347      -12.156       26.605       20.224       18.850      707.810      408.999      355.328        0.864        0.074      125.182       15.218        0.015      337.135        8.905      861.699
01/26/2015  20:32:00     -136.632       -3.735      -12.398       35.091       21.616       18.827     1231.386      467.250      354.448        1.044        0.103      136.683       18.134        0.018      337.101        8.847      861.674
01/26/2015  20:33:00     -120.268      -10.428       -7.285       53.182       27.911       27.343     2828.317      779.000      747.640        0.949        0.218      120.720       28.417        0.055      337.095        8.837      861.646
01/26/2015  20:34:00     -118.846       -7.551       -4.830       37.636       44.179       22.765     1416.471     1951.742      518.238        0.904        0.194      119.086       17.969        0.023      336.997        8.673      861.619
01/26/2015  20:35:00     -164.035       -3.504      -16.488       43.252       28.072       17.002     1870.772      788.052      289.081        1.507        0.147      164.072       13.843        0.007      336.980        8.645      861.595
01/26/2015  20:36:00     -156.017        2.512      -10.738       54.267       41.983       26.078     2944.939     1762.591      680.076        1.492        0.269      156.037       27.223        0.030      336.966        8.621      861.566
01/26/2015  20:37:00     -172.420      -18.848      -12.837       49.321       33.905       26.356     2432.522     1149.564      694.620        1.726        0.214      173.447       24.290        0.020      336.912        8.530      861.541
01/26/2015  20:38:00     -163.796        7.159      -10.563       51.022       36.992       27.949     2603.254     1368.393      781.135        1.587        0.238      163.952       28.089        0.029      336.834        8.401      861.531
01/26/2015  20:39:00     -183.832       28.636      -21.128       46.273       40.941       29.136     2141.191     1676.171      848.935        1.986        0.233      186.048       19.823        0.011      336.817        8.373      861.512
01/26/2015  20:40:00     -133.122      -17.220       -6.752       56.962       40.284       28.267     3244.666     1622.784      799.005        1.186        0.283      134.232       23.366        0.030      336.838        8.409      861.491
01/26/2015  20:41:00     -130.668       -7.087      -14.308       59.130       37.865       23.902     3496.331     1433.746      571.322        1.141        0.275      130.860       27.758        0.045      336.844        8.417      861.463
01/26/2015  20:42:00     -104.829       14.272       -8.750       52.729       35.022       23.265     2780.333     1226.514      541.261        0.791        0.227      105.796       22.521        0.045      336.812        8.365      861.447
01/26/2015  20:43:00     -118.245        5.190       -9.461       46.302       42.660       25.752     2143.834     1819.868      663.152        0.936        0.231      118.359       18.711        0.025      336.831        8.398      861.429
01/26/2015  20:44:00      -85.495       13.681       -9.961       40.920       29.085       19.292     1674.443      845.942      372.193        0.524        0.145       86.583       17.871        0.043      336.844        8.418      861.417
01/26/2015  20:45:00      -48.760      -15.551      -13.562       24.730       27.211       16.590      611.559      740.460      275.226        0.222        0.081       51.180       11.160        0.048      336.948        8.591      861.426
01/26/2015  20:46:00      -42.352      -19.224       -6.074       20.179       16.975       11.517      407.210      288.152      132.647        0.151        0.041       46.511        9.041        0.038      337.019        8.709      861.445
01/26/2015  20:47:00      -85.776      -27.269       -8.300       29.343       28.129       12.113      860.983      791.249      146.714        0.498        0.090       90.006        8.180        0.008      336.971        8.630      861.469
01/26/2015  20:48:00      -66.984      -40.470      -11.623       35.901       27.354       14.990     1288.866      748.238      224.713        0.426        0.113       78.260       14.711        0.035      336.975        8.637      861.515
01/26/2015  20:49:00      -59.226      -36.244       -3.859       34.268       20.387       19.156     1174.281      415.624      366.945        0.340        0.098       69.436       20.627        0.088      337.033        8.733      861.549
01/26/2015  20:50:00      -89.667      -30.402      -15.774        8.633       10.524        7.584       74.520      110.752       57.520        0.473        0.012       94.681        4.934        0.003      337.141        8.914      861.565
01/26/2015  20:51:00      -88.717      -24.693       -9.714       14.914       16.320       10.895      222.439      266.339      118.711        0.459        0.030       92.089        7.732        0.007      337.150        8.930      861.581
01/26/2015  20:52:00      -86.954      -35.713      -12.548       10.378       13.208        7.254      107.702      174.447       52.618        0.466        0.017       94.002        7.173        0.006      337.148        8.925      861.588
01/26/2015  20:53:00      -59.036      -26.884      -11.176       11.408        8.396        6.855      130.147       70.491       46.995        0.229        0.012       64.869        5.177        0.006      337.185        8.991      861.605
01/26/2015  20:54:00      -37.611      -20.674      -11.296        8.889        9.168        5.479       79.016       84.051       30.016        0.108        0.010       42.919        4.642        0.012      337.209        9.030      861.601
01/26/2015  20:55:00      -42.774       -4.709       -4.109        9.876        7.191        5.712       97.541       51.715       32.628        0.103        0.009       43.032        3.209        0.006      337.214        9.040      861.597
01/26/2015  20:56:00      -41.256       -5.545       -2.934        7.951        7.019        5.854       63.218       49.271       34.274        0.094        0.007       41.627        4.588        0.012      337.280        9.148      861.598
01/26/2015  20:57:00      -46.956       -6.944       -4.426        8.622        7.864        5.127       74.343       61.838       26.285        0.122        0.008       47.467        4.441        0.009      337.301        9.181      861.604
01/26/2015  20:58:00      -49.774       -4.268       -7.780       10.909        6.073        6.789      119.004       36.883       46.086        0.138        0.010       49.957        6.255        0.016      337.331        9.234      861.598
01/26/2015  20:59:00      -42.320       -9.492       -5.344        5.934        6.587        5.335       35.218       43.385       28.460        0.101        0.005       43.372        1.612        0.001      337.327        9.225      861.593
01/26/2015  21:00:00      -45.049       -4.050       -6.743       11.178        9.622        8.714      124.942       92.579       75.940        0.119        0.015       45.231        7.276        0.026      337.263        9.119      861.582
01/26/2015  21:01:00      -48.138      -12.137       -8.169       21.977       10.758        9.636      482.971      115.737       92.845        0.161        0.035       49.645        9.027        0.033      337.217        9.045      861.573
01/26/2015  21:02:00      -32.157      -22.326       -1.634       11.520       10.699        5.813      132.702      114.474       33.796        0.091        0.014       39.148        5.384        0.019      337.226        9.060      861.584
01/26/2015  21:03:00       -2.925      -17.104        6.463       13.496        7.629        8.101      182.148       58.197       65.623        0.032        0.015       17.352        5.516        0.101      337.299        9.180      861.601
01/26/2015  21:04:00        1.054       20.923       22.753       11.811       17.323       19.097      139.507      300.088      364.678        0.088        0.040       20.950       15.914        0.577      337.233        9.070      861.622
01/26/2015  21:05:00        3.381       25.869       34.152       15.734       14.263       10.772      247.555      203.426      116.034        0.121        0.028       26.089        7.890        0.091      337.184        8.986      861.643
01/26/2015  21:06:00        6.488        5.444       11.567       11.647        8.044       11.977      135.648       64.698      143.437        0.027        0.017        8.469        9.904        1.367      337.151        8.931      861.648
01/26/2015  21:07:00       -1.984        4.050        9.757        7.654        5.125        5.103       58.588       26.265       26.043        0.011        0.006        4.510        3.740        0.688      337.145        8.920      861.647
01/26/2015  21:08:00      -23.325        2.378        2.363        9.210        7.485        5.572       84.815       56.029       31.050        0.036        0.009       23.446        4.669        0.040      337.142        8.915      861.646
01/26/2015  21:09:00      -50.322      -13.989       -1.842       13.611       14.737        7.488      185.252      217.180       56.074        0.159        0.023       52.231        6.818        0.017      337.109        8.860      861.643
01/26/2015  21:10:00      -67.345       -8.597       -8.692       12.014       10.722        9.231      144.337      114.957       85.205        0.251        0.017       67.892        8.254        0.015      337.205        9.023      861.641
01/26/2015  21:11:00      -65.337       -1.557       -7.915       14.415       12.282        7.480      207.795      150.842       55.956        0.237        0.021       65.356        5.254        0.006      337.152        8.934      861.631
01/26/2015  21:12:00      -76.984       23.863      -13.670       11.458       12.866        7.203      131.288      165.531       51.877        0.352        0.017       80.598        4.219        0.003      337.142        8.917      861.600
01/26/2015  21:13:00      -63.675        9.506      -11.657       16.933       10.022        7.989      286.717      100.440       63.819        0.237        0.023       64.380        6.334        0.010      337.173        8.967      861.568
01/26/2015  21:14:00      -88.225       -3.984      -12.735       12.806       18.064       12.769      163.981      326.308      163.059        0.431        0.033       88.315        8.087        0.008      337.105        8.854      861.534
01/26/2015  21:15:00     -106.716       -9.083      -17.183       17.875       17.015       13.366      319.529      289.519      178.639        0.628        0.039      107.102       10.263        0.009      337.068        8.792      861.516
01/26/2015  21:16:00     -124.206      -25.046      -11.186       28.991       21.208       16.511      840.472      449.764      272.623        0.887        0.078      126.706       11.468        0.008      336.989        8.658      861.510
01/26/2015  21:17:00     -125.057      -17.932      -10.872       30.141       17.137       18.081      908.472      293.671      326.933        0.880        0.076      126.336       17.016        0.018      336.870        8.462      861.510
01/26/2015  21:18:00     -121.979      -13.274       -6.268       40.551       28.640       23.323     1644.364      820.230      543.964        0.905        0.150      122.699       19.174        0.024      336.886        8.487      861.510
01/26/2015  21:19:00     -141.808        9.343      -17.001       41.384       26.860       17.543     1712.634      721.468      307.752        1.161        0.137      142.115       19.273        0.018      336.836        8.404      861.506
01/26/2015  21:20:00     -135.822       27.056       -8.411       44.133       37.060       18.369     1947.738     1373.468      337.423        1.145        0.183      138.490       17.496        0.016      336.910        8.527      861.503
01/26/2015  21:21:00     -160.996       38.416       -9.712       32.469       28.425       16.603     1054.262      807.986      275.652        1.481        0.107      165.516       14.218        0.007      336.950        8.594      861.493
01/26/2015  21:22:00     -143.170       15.010      -17.639       27.128       26.942       20.702      735.940      725.860      428.592        1.146        0.095      143.955       19.379        0.018      336.860        8.443      861.480
01/26/2015  21:23:00     -121.048        0.053      -13.224       30.807       24.573       20.567      949.046      603.825      423.020        0.840        0.099      121.048       16.981        0.020      336.908        8.524      861.450
01/26/2015  21:24:00     -104.525       -1.988       -8.770       30.262       35.525       20.140      915.765     1262.022      405.627        0.679        0.129      104.544       16.682        0.025      336.881        8.480      861.433
01/26/2015  21:25:00     -126.327       12.070      -12.429       47.054       31.326       23.221     2214.050      981.303      539.228        1.000        0.187      126.902       21.680        0.029      336.852        8.433      861.417
01/26/2015  21:26:00     -134.289       41.654       -5.456       47.574       36.646       25.403     2263.291     1342.951      645.336        1.202        0.213      140.601       16.121        0.013      336.873        8.467      861.419
01/26/2015  21:27:00     -149.763       49.600      -12.260       58.962       27.573       20.581     3476.478      760.279      423.581        1.485        0.233      157.763        6.374        0.002      336.841        8.413      861.428
01/26/2015  21:28:00      -63.999       -2.578       -9.220       22.198       44.038       15.837      492.736     1939.373      250.826        0.343        0.134       64.051       15.609        0.059      336.956        8.604      861.432
01/26/2015  21:29:00      -64.154      -19.859       -2.580       26.580       26.515       12.164      706.487      703.029      147.957        0.304        0.078       67.158       12.965        0.037      336.931        8.563      861.439
01/26/2015  21:30:00      -61.878      -20.231        2.815       15.530       13.538       14.812      241.172      183.270      219.407        0.244        0.032       65.101        7.653        0.014      337.035        8.737      861.449
01/26/2015  21:31:00      -43.654      -20.685      -12.854       15.766       13.203        9.673      248.582      174.327       93.576        0.151        0.026       48.307        7.464        0.024      336.985        8.654      861.460
01/26/2015  21:32:00      -21.275      -13.820       -3.097       13.806       10.526        7.222      190.604      110.806       52.161        0.050        0.018       25.369        6.661        0.069      337.020        8.712      861.465
01/26/2015  21:33:00       -4.490      -26.144        4.084       19.725       15.698        8.332      389.073      246.422       69.421        0.071        0.035       26.527        3.607        0.018      337.122        8.882      861.456
01/26/2015  21:34:00      -36.049      -37.411       -4.517       18.558       11.620        6.552      344.408      135.032       42.933        0.162        0.026       51.953        7.796        0.023      337.166        8.956      861.451
01/26/2015  21:35:00      -62.603      -28.121       -9.723        7.632        9.178        7.087       58.248       84.234       50.225        0.250        0.010       68.629        2.881        0.002      337.177        8.976      861.432
01/26/2015  21:36:00      -47.177      -26.569       -4.172       10.146        8.059        7.477      102.940       64.941       55.900        0.159        0.011       54.144        5.109        0.009      337.116        8.874      861.408
01/26/2015  21:37:00      -53.066      -17.665       -7.345       14.196       18.163        8.952      201.517      329.905       80.134        0.190        0.031       55.929        7.566        0.018      337.219        9.045      861.382
01/26/2015  21:38:00      -45.298      -14.471       -3.344        9.294       12.369        8.303       86.377      152.986       68.942        0.129        0.015       47.553        4.643        0.010      337.185        8.990      861.359
01/26/2015  21:39:00      -73.685      -17.713      -10.055        7.945        9.748        7.213       63.119       95.025       52.024        0.303        0.011       75.784        4.279        0.003      337.227        9.059      861.347
01/26/2015  21:40:00      -74.236      -28.701      -11.825        6.510        8.003        6.540       42.375       64.052       42.773        0.331        0.007       79.591        4.836        0.004      337.239        9.078      861.346
01/26/2015  21:41:00      -73.061      -31.873       -8.511       12.530        9.881        9.431      156.989       97.638       88.935        0.338        0.017       79.711        9.819        0.015      337.243        9.085      861.345
01/26/2015  21:42:00      -58.384      -17.539      -10.715       11.364        9.081        8.554      129.144       82.462       73.165        0.206        0.014       60.961        6.054        0.010      337.305        9.190      861.342
01/26/2015  21:43:00      -65.933      -19.577       -9.933       10.739        7.626        5.484      115.328       58.152       30.073        0.252        0.010       68.778        2.022        0.001      337.257        9.110      861.342
01/26/2015  21:44:00      -81.185      -25.606      -11.410       16.928       11.061        8.149      286.559      122.351       66.404        0.393        0.024       85.127        7.475        0.008      337.225        9.056      861.318
01/26/2015  21:45:00      -97.234      -21.874      -12.209       18.903       16.098       13.061      357.331      259.152      170.596        0.543        0.039       99.664        9.655        0.009      337.172        8.966      861.297
01/26/2015  21:46:00      -91.467        0.223      -13.492       19.475       17.193       11.840      379.265      295.587      140.195        0.468        0.041       91.467        4.890        0.003      337.167        8.957      861.284
01/26/2015  21:47:00      -65.160       17.361      -14.289       14.819       27.103       15.385      219.603      734.597      236.697        0.297        0.060       67.433       13.293        0.039      337.337        9.244      861.255
01/26/2015  21:48:00      -54.936       35.538       -5.241       32.885       29.110       19.132     1081.446      847.399      366.047        0.330        0.115       65.429       25.536        0.152      337.642        9.754      861.220
01/26/2015  21:49:00      -16.681       61.041       -7.129       16.619       33.971       11.577      276.190     1154.057      134.025        0.281        0.078       63.280       11.914        0.035      337.643        9.756      861.191
01/26/2015  21:50:00        1.876       75.306       -7.844        8.030        9.595        5.297       64.481       92.058       28.062        0.296        0.009       75.330        3.598        0.002      337.644        9.756      861.178
01/26/2015  21:51:00      -36.919       26.761       -8.686       17.984       38.521        9.271      323.413     1483.903       85.960        0.202        0.095       45.598        5.698        0.016      337.453        9.438      861.178
01/26/2015  21:52:00      -92.634      -21.314      -13.100       22.188       21.938       11.105      492.321      481.258      123.315        0.515        0.055       95.054        9.190        0.009      337.062        8.784      861.197
01/26/2015  21:53:00      -98.294      -23.112      -11.698       36.207       17.483       17.324     1310.926      305.647      300.121        0.612        0.096      100.975       19.655        0.038      336.900        8.511      861.211
01/26/2015  21:54:00      -59.704       -5.551      -12.635       25.588       13.884        9.710      654.722      192.774       94.278        0.235        0.047       59.961       10.795        0.032      337.026        8.721      861.210
01/26/2015  21:55:00      -23.228       -1.197       -5.807       15.032       13.174        5.718      225.946      173.566       32.700        0.050        0.022       23.258        5.474        0.055      337.180        8.980      861.191
01/26/2015  21:56:00       -7.947       21.022        2.778       16.238       23.464        8.770      263.677      550.549       76.920        0.070        0.045       22.474        7.782        0.120      337.668        9.798      861.168
01/26/2015  21:57:00      -52.377       -4.212       -8.554       14.374       20.243        8.716      206.607      409.764       75.964        0.176        0.035       52.546        4.209        0.006      337.233        9.067      861.150
01/26/2015  21:58:00      -90.045        1.213      -16.021       15.206       10.899        8.891      231.224      118.783       79.047        0.440        0.021       90.053        5.596        0.004      337.005        8.686      861.131
01/26/2015  21:59:00     -108.746        4.547      -16.324       34.104       19.474       14.949     1163.088      379.245      223.474        0.694        0.088      108.841       11.216        0.011      336.990        8.662      861.111
01/26/2015  22:00:00      -75.831       16.920      -13.403       27.511       35.354       16.673      756.867     1249.881      278.004        0.425        0.114       77.696       15.718        0.041      337.145        8.922      861.077
01/26/2015  22:01:00      -34.719      101.638      -16.841       37.335       32.098       14.397     1393.896     1030.279      207.286        0.722        0.132      107.404       15.327        0.020      337.582        9.654      861.041
01/26/2015  22:02:00       14.377      150.705      -13.866       22.171       26.682       14.235      491.564      711.908      202.630        1.226        0.070      151.389       13.636        0.008      337.828       10.066      861.010
01/26/2015  22:03:00       20.757      146.664      -26.310       27.985       32.585       20.572      783.168     1061.774      423.220        1.245        0.113      148.126       17.314        0.014      337.834       10.077      860.995
01/26/2015  22:04:00      -30.565      111.320      -19.768       27.828       26.530       16.181      774.399      703.829      261.826        0.773        0.087      115.439       15.658        0.018      337.783        9.992      861.011
01/26/2015  22:05:00      -61.355       43.756      -15.520       22.043       73.312       17.224      485.904     5374.634      296.662        0.604        0.308       75.359       17.657        0.055      337.588        9.664      861.037
01/26/2015  22:06:00      -90.134      -32.167       -8.098       11.778       13.926       10.294      138.731      193.937      105.976        0.483        0.022       95.702        7.779        0.007      337.027        8.724      861.059
01/26/2015  22:07:00      -82.232      -24.719       -3.596       27.715       18.992       14.519      768.134      360.715      210.792        0.436        0.067       85.867       13.618        0.025      337.064        8.786      861.078
01/26/2015  22:08:00      -60.953      -18.223       -5.659       16.064       18.157       14.600      258.052      329.678      213.146        0.244        0.040       63.618       12.700        0.040      337.121        8.882      861.084
01/26/2015  22:09:00      -58.016       -8.377      -11.354       14.346       20.210        9.159      205.814      408.460       83.893        0.213        0.035       58.618        5.713        0.009      337.479        9.481      861.070
01/26/2015  22:10:00       -2.186       67.950      -12.628       19.980       20.941       11.184      399.185      438.546      125.080        0.287        0.048       67.986        9.844        0.021      337.906       10.197      861.065
01/26/2015  22:11:00        4.373      115.879      -16.965        8.429       21.236        7.398       71.050      450.980       54.734        0.716        0.029      115.962        7.549        0.004      337.912       10.207      861.059
01/26/2015  22:12:00       -0.834      137.833      -18.427       12.073       14.498        7.035      145.761      210.179       49.497        0.987        0.020      137.835        6.432        0.002      338.051       10.440      861.055
01/26/2015  22:13:00       -5.211      121.708      -19.971       14.502       12.629        6.862      210.304      159.500       47.092        0.783        0.021      121.819        7.031        0.003      338.077       10.483      861.053
01/26/2015  22:14:00      -21.350       94.986      -15.475       11.959       15.195        9.678      143.029      230.886       93.672        0.509        0.023       97.356        6.982        0.005      338.058       10.452      861.053
01/26/2015  22:15:00      -49.899        0.147      -10.604       15.282       33.438        6.613      233.537     1118.127       43.738        0.200        0.070       49.900        4.041        0.007      337.716        9.876      861.045
01/26/2015  22:16:00      -48.435      -16.115       -3.476       19.347       13.164       11.864      374.309      173.296      140.748        0.165        0.034       51.045       11.307        0.049      337.372        9.302      861.040
01/26/2015  22:17:00      -34.726      -24.236       -1.999       22.553       17.045        7.662      508.624      290.538       58.713        0.133        0.043       42.347        8.188        0.037      337.373        9.302      861.030
01/26/2015  22:18:00       10.856       -5.618        5.060       11.827        9.296        8.346      139.868       86.413       69.653        0.024        0.015       12.223        6.746        0.305      337.373        9.303      861.023
01/26/2015  22:19:00       44.003       11.973        5.973       16.765        8.989        9.095      281.072       80.802       82.713        0.128        0.022       45.603        5.264        0.013      337.482        9.485      861.020
01/26/2015  22:20:00       45.308       16.069        8.621       11.594       11.851       11.049      134.429      140.442      122.086        0.139        0.020       48.073        7.217        0.023      337.506        9.526      861.018
01/26/2015  22:21:00       53.195       14.336       13.717       25.390       17.590       15.739      644.660      309.418      247.725        0.221        0.060       55.093       10.429        0.036      337.517        9.543      861.023
01/26/2015  22:22:00       33.934       34.510       19.464       18.032       14.272       18.461      325.163      203.699      340.799        0.180        0.043       48.399        5.784        0.014      337.494        9.505      861.042
01/26/2015  22:23:00       37.251       27.442        5.663       13.619        8.748        9.775      185.489       76.528       95.541        0.127        0.018       46.267        7.534        0.027      337.582        9.652      861.065
01/26/2015  22:24:00       23.169       21.495       -3.299       13.260       15.813       10.250      175.815      250.065      105.064        0.077        0.027       31.605        2.918        0.009      337.645        9.760      861.087
01/26/2015  22:25:00       -0.949       18.098       -4.478       12.939       13.885        6.295      167.425      192.796       39.632        0.037        0.020       18.123        4.434        0.060      337.713        9.874      861.104
01/26/2015  22:26:00      -15.609        3.719       -0.047       11.484       17.754       12.835      131.880      315.188      164.743        0.043        0.031       16.046       12.641        0.621      337.667        9.796      861.113
01/26/2015  22:27:00      -39.425      -22.245      -10.711        9.809        8.296        5.334       96.212       68.828       28.456        0.118        0.010       45.268        5.717        0.016      337.480        9.482      861.119
01/26/2015  22:28:00      -40.156      -37.855       -6.118       11.472       11.776        7.107      131.618      138.672       50.510        0.170        0.016       55.186        2.595        0.002      337.376        9.308      861.133
01/26/2015  22:29:00      -36.484      -38.908       -7.374       11.959        6.789        6.148      143.025       46.090       37.803        0.156        0.011       53.338        5.945        0.012      337.568        9.628      861.157
01/26/2015  22:30:00      -57.868      -41.599       -1.630       27.547       14.542       10.192      758.850      211.478      103.867        0.308        0.054       71.268        6.973        0.010      337.426        9.391      861.189
01/26/2015  22:31:00      -58.959      -35.341        1.209       25.797       17.853       12.646      665.508      318.729      159.926        0.294        0.057       68.739       11.280        0.027      337.343        9.253      861.224
01/26/2015  22:32:00      -72.793      -40.123       -4.265       17.376       16.195       16.710      301.908      262.287      279.213        0.389        0.042       83.119        8.403        0.010      337.359        9.279      861.252
01/26/2015  22:33:00      -42.055      -33.749       -3.888       24.858       14.141       13.219      617.926      199.964      174.738        0.196        0.050       53.923        6.620        0.015      337.365        9.289      861.263
01/26/2015  22:34:00      -47.261      -33.206       -6.874       17.155       15.384       13.506      294.287      236.680      182.422        0.205        0.036       57.760        8.791        0.023      337.383        9.318      861.258
01/26/2015  22:35:00      -34.385      -12.313       -0.832       13.386       11.754        9.574      179.173      138.151       91.668        0.087        0.020       36.523        7.511        0.042      337.335        9.239      861.262
01/26/2015  22:36:00      -82.959      -59.364        1.323       27.125       25.857       19.821      735.767      668.574      392.877        0.610        0.090      102.012       13.684        0.018      337.116        8.873      861.274
01/26/2015  22:37:00      -72.170      -75.697       -6.027       19.911       20.094       13.958      396.466      403.780      194.815        0.598        0.050      104.588       11.503        0.012      337.211        9.031      861.289
01/26/2015  22:38:00      -74.231      -42.851       -2.742       19.125       22.737       11.899      365.777      516.953      141.575        0.419        0.051       85.711        7.879        0.008      337.159        8.945      861.300
01/26/2015  22:39:00      -88.905      -37.362       -0.710       19.747       18.712        9.549      389.943      350.152       91.193        0.507        0.042       96.437        8.083        0.007      337.080        8.814      861.308
01/26/2015  22:40:00      -77.260      -46.575       -1.391       23.635       21.833       14.516      558.622      476.684      210.725        0.469        0.062       90.213       14.431        0.026      337.019        8.708      861.325
01/26/2015  22:41:00      -71.704      -36.571        3.349       37.895       21.052       17.177     1435.996      443.202      295.055        0.433        0.109       80.492       17.134        0.045      337.020        8.711      861.327
01/26/2015  22:42:00      -77.836      -52.418        2.531       26.970       22.049       16.560      727.358      486.170      274.232        0.515        0.074       93.841        5.118        0.003      337.044        8.751      861.343
01/26/2015  22:43:00      -65.805      -61.458       -1.915       24.682       26.658       19.210      609.217      710.635      369.008        0.490        0.084       90.041       16.836        0.035      337.075        8.804      861.356
01/26/2015  22:44:00      -59.479      -58.095       -3.888       17.716       34.075       13.949      313.870     1161.117      194.572        0.430        0.083       83.143       13.057        0.025      337.061        8.781      861.384
01/26/2015  22:45:00      -40.489      -32.378       -0.003       28.277       12.061       14.636      799.561      145.474      214.209        0.192        0.058       51.843       12.131        0.055      337.047        8.757      861.415
01/26/2015  22:46:00      -10.999      -30.282        5.539       18.224       15.528       11.161      332.111      241.105      124.563        0.088        0.035       32.218        7.082        0.048      337.036        8.739      861.439
01/26/2015  22:47:00      -16.787      -41.731        5.106       21.322       24.647       16.848      454.608      607.481      283.860        0.170        0.067       44.981       10.638        0.056      337.091        8.830      861.453
01/26/2015  22:48:00      -29.159       -8.675       13.363       25.328       22.680       16.763      641.489      514.363      281.008        0.127        0.072       30.422       12.943        0.181      337.033        8.734      861.443
01/26/2015  22:49:00      -26.115      -31.239       -3.738       23.774       36.807       15.867      565.184     1354.759      251.762        0.192        0.109       40.717       10.348        0.065      336.951        8.597      861.441
01/26/2015  22:50:00      -45.796       -8.695       -4.969       17.338       23.023       10.809      300.617      530.042      116.840        0.157        0.047       46.614        9.873        0.045      336.985        8.653      861.456
01/26/2015  22:51:00      -78.562      -51.073        8.416       37.749       30.511       20.587     1424.996      930.932      423.810        0.582        0.139       93.704       18.406        0.039      336.840        8.412      861.495
01/26/2015  22:52:00      -73.933      -62.319        7.490       59.461       49.539       26.149     3535.613     2454.147      683.753        0.804        0.334       96.694       30.467        0.099      336.762        8.282      861.535
01/26/2015  22:53:00      -92.600      -83.823        0.760       46.819       45.215       26.290     2192.035     2044.423      691.145        1.026        0.246      124.905       20.886        0.028      336.755        8.271      861.574
01/26/2015  22:54:00      -24.438      -78.499       -4.123       57.680       27.418       20.990     3326.960      751.758      440.588        0.565        0.226       82.215        9.286        0.013      336.918        8.542      861.598
01/26/2015  22:55:00      -13.502     -102.266       -3.364       31.005       29.797       17.838      961.287      887.889      318.185        0.641        0.108      103.153       11.073        0.012      337.047        8.757      861.622
01/26/2015  22:56:00      -17.525      -83.757      -11.632       31.323       27.323       23.159      981.129      746.541      536.357        0.486        0.113       85.571        4.243        0.002      336.967        8.623      861.636
01/26/2015  22:57:00      -60.232      -38.411       -7.819       29.215       31.555       16.402      853.533      995.727      269.037        0.364        0.106       71.437       11.079        0.024      336.948        8.592      861.654
01/26/2015  22:58:00      -62.830      -55.009       13.095       50.573       45.226       28.896     2557.636     2045.399      834.987        0.629        0.272       83.508       26.468        0.100      336.835        8.403      861.662
01/26/2015  22:59:00      -63.176      -91.676        8.431       62.341       52.347       29.487     3886.395     2740.169      869.455        0.998        0.375      111.336       31.769        0.081      336.755        8.270      861.670
01/26/2015  23:00:00      -35.895      -77.194       -1.140       39.287       33.474       34.854     1543.447     1120.481     1214.832        0.556        0.194       85.131       24.533        0.083      336.756        8.271      861.677
01/26/2015  23:01:00      -21.552     -108.331        5.866       31.421       34.750       20.443      987.260     1207.539      417.925        0.742        0.131      110.454       14.250        0.017      336.792        8.332      861.687
01/26/2015  23:02:00      -56.863     -101.090        2.792       27.625       41.178       23.847      763.143     1695.588      568.671        0.824        0.151      115.985       21.836        0.035      336.893        8.501      861.704
01/26/2015  23:03:00      -30.393      -37.998       -3.542       29.422       29.147       21.207      865.640      849.545      449.727        0.227        0.108       48.658       15.380        0.100      336.881        8.480      861.716
01/26/2015  23:04:00      -17.356      -24.178       -5.592       12.541       16.577        9.001      157.278      274.797       81.020        0.072        0.026       29.763        6.152        0.043      336.910        8.528      861.733
01/26/2015  23:05:00      -25.604        4.176       -3.643       16.126       13.012        9.583      260.054      169.304       91.839        0.060        0.026       25.942        9.105        0.123      336.928        8.557      861.745
01/26/2015  23:06:00      -52.048       -8.065       -4.001       36.040       17.582       15.066     1298.910      309.128      226.987        0.231        0.092       52.669       17.383        0.109      336.814        8.368      861.748
01/26/2015  23:07:00     -113.330       -1.779      -10.898       24.556       21.773       12.352      602.985      474.063      152.575        0.710        0.061      113.344        7.413        0.004      336.563        7.949      861.761
01/26/2015  23:08:00     -130.664      -32.399       -6.143       28.525       32.891       19.215      813.664     1081.834      369.218        1.021        0.113      134.621       14.725        0.012      336.343        7.581      861.786
01/26/2015  23:09:00     -128.111      -11.230       -9.193       35.015       29.386       23.528     1226.020      863.556      553.578        0.963        0.132      128.602       20.187        0.025      336.261        7.443      861.802
01/26/2015  23:10:00      -70.139      -13.141        0.325       29.524       30.543       17.755      871.651      932.862      315.255        0.361        0.106       71.360       13.843        0.038      336.214        7.365      861.807
01/26/2015  23:11:00      -61.879       -0.520        0.784       28.781       15.375       15.230      828.365      236.406      231.958        0.256        0.065       61.881       16.064        0.067      336.426        7.720      861.808
01/26/2015  23:12:00      -10.483      -22.191       -0.319       21.386       12.509        9.401      457.360      156.465       88.374        0.065        0.035       24.543        6.721        0.075      336.527        7.890      861.824
01/26/2015  23:13:00      -18.088      -28.677       -7.602       12.723       10.848        8.999      161.882      117.677       80.983        0.078        0.018       33.905        5.766        0.029      336.793        8.334      861.851
01/26/2015  23:14:00      -31.164       -8.801       -1.436        9.190        6.893        9.304       84.452       47.511       86.562        0.063        0.011       32.383        4.989        0.024      336.856        8.440      861.876
01/26/2015  23:15:00      -58.042       -4.770       -6.673       28.404       13.698        9.787      806.788      187.636       95.789        0.226        0.055       58.237       10.432        0.032      336.608        8.026      861.898
01/26/2015  23:16:00      -88.437        7.800      -15.052       11.076       10.617       10.850      122.682      112.725      117.714        0.423        0.018       88.780        6.695        0.006      336.424        7.718      861.915
01/26/2015  23:17:00      -84.720       10.188      -15.997       37.886       22.665       14.699     1435.354      513.721      216.070        0.485        0.108       85.330       13.898        0.027      336.388        7.658      861.913
01/26/2015  23:18:00     -100.427       23.961      -14.657       34.065       35.754       21.295     1160.420     1278.326      453.457        0.688        0.145      103.246       10.420        0.010      336.406        7.686      861.899
01/26/2015  23:19:00     -107.958       19.591      -18.870       30.504       39.854       17.333      930.516     1588.319      300.438        0.761        0.141      109.721       16.835        0.024      336.427        7.721      861.867
01/26/2015  23:20:00      -88.422       22.214      -17.115       21.758       32.981       17.210      473.414     1087.754      296.171        0.523        0.093       91.170       13.528        0.022      336.531        7.896      861.835
01/26/2015  23:21:00      -96.997       47.484      -17.921       28.033       33.088       13.875      785.870     1094.845      192.512        0.703        0.104      107.996       14.828        0.019      336.677        8.139      861.812
01/26/2015  23:22:00      -90.520       40.124      -14.651       19.162       35.598       14.778      367.184     1267.214      218.403        0.594        0.093       99.014       12.107        0.015      336.636        8.072      861.798
01/26/2015  23:23:00      -61.094        7.176      -13.167       15.217       17.408       10.154      231.560      303.045      103.094        0.230        0.032       61.514        6.841        0.012      336.630        8.060      861.774
01/26/2015  23:24:00      -58.526       -5.961      -10.810       22.110       17.690       11.346      488.873      312.938      128.726        0.225        0.047       58.829        6.831        0.013      336.544        7.917      861.743
01/26/2015  23:25:00      -63.029       20.974      -11.230       34.907       36.097       22.001     1218.490     1303.017      484.052        0.377        0.150       66.427       17.629        0.070      336.634        8.069      861.721
01/26/2015  23:26:00     -221.006       30.448      -25.181       40.593       32.876       21.790     1647.791     1080.831      474.798        2.680        0.160      223.093       15.291        0.005      336.360        7.606      861.711
01/26/2015  23:27:00     -184.866       27.185      -23.617       42.072       30.935       20.174     1770.033      956.948      407.007        1.930        0.157      186.854       19.014        0.010      336.330        7.558      861.708
01/26/2015  23:28:00     -188.139       46.413      -26.685       53.578       44.918       29.989     2870.553     2017.596      899.314        2.202        0.289      193.780       25.821        0.018      336.166        7.283      861.702
01/26/2015  23:29:00     -139.219       37.577      -24.408       50.009       43.160       27.703     2500.872     1862.749      767.443        1.326        0.257      144.201       31.284        0.047      336.208        7.355      861.699
01/26/2015  23:30:00     -123.789       20.994      -16.446       36.003       26.010       20.665     1296.244      676.507      427.024        0.922        0.120      125.556       15.474        0.015      336.254        7.432      861.699
01/26/2015  23:31:00     -102.784       14.697      -14.083       32.590       38.068       19.555     1062.124     1449.180      382.409        0.694        0.145      103.830        9.897        0.009      336.342        7.578      861.703
01/26/2015  23:32:00      -56.390      -16.291       -7.265       26.023       24.028       17.739      677.184      577.346      314.660        0.253        0.078       58.696       14.093        0.058      336.235        7.401      861.699
01/26/2015  23:33:00      -82.041      -49.010       -2.913       26.534       31.605       17.866      704.077      998.878      319.193        0.558        0.101       95.565       11.847        0.015      336.131        7.227      861.687
01/26/2015  23:34:00     -136.810      -56.591       -6.331       20.048       25.070       17.740      401.924      628.530      314.699        1.165        0.067      148.053       12.469        0.007      336.060        7.106      861.690
01/26/2015  23:35:00     -132.423      -15.863       -5.340       41.843       33.323       21.790     1750.801     1110.417      474.817        1.058        0.167      133.369       21.386        0.026      336.057        7.102      861.707
01/26/2015  23:36:00     -156.178       18.086      -14.300       31.595       30.911       23.727      998.259      955.498      562.991        1.372        0.126      157.222       17.083        0.012      336.009        7.023      861.723
01/26/2015  23:37:00     -150.367       28.527      -24.554       43.395       45.332       30.773     1883.138     2054.999      947.004        1.446        0.244      153.049       21.029        0.019      336.152        7.260      861.729
01/26/2015  23:38:00      -98.120        6.539       -2.117       50.476       64.464       26.601     2547.787     4155.595      707.609        0.854        0.371       98.338       22.855        0.054      336.111        7.195      861.718
01/26/2015  23:39:00     -131.710        1.003      -18.133       26.262       44.025       21.188      689.714     1938.202      448.925        1.038        0.154      131.713        8.798        0.004      336.230        7.392      861.680
01/26/2015  23:40:00      -88.814       17.473       -8.998       43.213       47.424       28.803     1867.337     2249.063      829.591        0.661        0.247       90.517       31.436        0.121      336.392        7.663      861.616
01/26/2015  23:41:00     -115.378       22.943      -12.868       46.850       35.617       25.136     2194.966     1268.597      631.826        0.905        0.205      117.637       25.055        0.045      336.380        7.643      861.567
01/26/2015  23:42:00      -98.613       14.058      -15.594       32.875       38.901       25.202     1080.785     1513.326      635.136        0.670        0.161       99.610       18.790        0.036      336.498        7.839      861.546
01/26/2015  23:43:00     -156.856       20.362      -23.360       38.343       25.722       21.180     1470.167      661.601      448.583        1.407        0.129      158.172       17.067        0.012      336.460        7.776      861.537
01/26/2015  23:44:00     -170.397       16.550      -17.484       45.686       27.321       23.784     2087.211      746.417      565.684        1.651        0.170      171.199       23.384        0.019      336.284        7.481      861.536
01/26/2015  23:45:00     -131.029      -23.299      -14.467       50.511       38.018       27.384     2551.364     1445.388      749.897        1.133        0.237      133.085       27.462        0.043      336.121        7.209      861.557
01/26/2015  23:46:00     -210.351       20.415      -16.500       51.279       43.369       28.971     2629.580     1880.888      839.303        2.514        0.267      211.339       26.207        0.015      336.116        7.198      861.574
01/26/2015  23:47:00     -231.415       32.931      -31.940       47.094       44.482       27.219     2217.836     1978.646      740.897        3.030        0.247      233.747       16.409        0.005      336.168        7.284      861.575
01/26/2015  23:48:00     -152.825       21.254      -20.030       52.640       47.610       22.344     2770.991     2266.702      499.235        1.487        0.277      154.296       19.052        0.015      336.189        7.322      861.586
01/26/2015  23:49:00     -152.113      -16.119      -19.684       46.132       55.975       26.480     2128.192     3133.170      701.184        1.487        0.298      152.965       22.934        0.022      336.181        7.310      861.604
01/26/2015  23:50:00      -99.746      -40.461       -2.434       31.230       30.084       22.437      975.308      905.044      503.398        0.699        0.119      107.639       17.346        0.026      336.212        7.361      861.603
01/26/2015  23:51:00      -82.568      -22.220       -4.442       41.272       29.846       20.466     1703.364      890.800      418.872        0.517        0.151       85.506       15.095        0.031      336.183        7.312      861.590
01/26/2015  23:52:00      -73.681       -4.046      -20.562       19.136       23.718       18.165      366.170      562.541      329.958        0.356        0.063       73.792       12.793        0.030      336.265        7.451      861.576
01/26/2015  23:53:00      -51.962       10.963      -15.104       16.665       22.078       16.947      277.707      487.429      287.208        0.205        0.053       53.106        7.780        0.021      336.356        7.602      861.558
01/26/2015  23:54:00      -75.213       -0.498       -7.242       28.530       31.500       18.713      813.986      992.280      350.186        0.393        0.108       75.215       14.812        0.039      336.502        7.847      861.536
01/26/2015  23:55:00     -113.667        7.125       -7.924       28.984       22.302       16.718      840.077      497.386      279.502        0.733        0.081      113.890       15.159        0.018      336.433        7.732      861.529
01/26/2015  23:56:00     -161.025       -4.560      -19.169       25.088       27.346       18.783      629.390      747.792      352.808        1.402        0.086      161.090       13.754        0.007      336.393        7.663      861.542
01/26/2015  23:57:00     -129.297       10.181       -3.815       57.221       37.193       25.730     3274.241     1383.298      662.015        1.108        0.266      129.698       31.091        0.057      336.360        7.608      861.546
01/26/2015  23:58:00     -121.494       -1.240       -9.328       32.530       34.820       20.050     1058.208     1212.422      402.004        0.876        0.134      121.500       17.095        0.020      336.382        7.645      861.562
01/26/2015  23:59:00      -64.912      -29.863       -2.400       31.667       27.196       18.075     1002.809      739.623      326.716        0.359        0.103       71.451       19.978        0.078      336.352        7.596      861.564
